[[{"header":{"parameterUnit":"m.s-1","parameterCategory":1,"la1":30.6,"la2":29.2853,"lo1":-89.7004,"lo2":-87.6739,"dy":0.0162,"dx":0.0183,"nx":112,"ny":82,"refTime":"2023-03-27T06:00:00:Z","depth":0,"parameterNumber":2,"parameterNumberName":"U-component_of_WINDS"},"data":[0.0,0.0,0.0,0.0,0.0,0.0,0.0,0.0,0.0,0.0,0.0,0.0,0.0,0.0,0.0,0.0,0.0,0.0,0.0,0.0,0.0,0.0,0.0,0.0,0.0,0.0,0.0,0.0,0.0,0.0,0.0,0.0,0.0,0.0,0.0,0.0,0.0,0.0,0.0,0.0,0.0,0.0,0.0,0.0,0.0,0.0,0.0,0.0,0.0,0.0,0.0,0.0,0.0,0.0,0.0,0.0,0.0,0.0,0.0,0.0,0.0,0.0,0.0,0.0,0.0,0.0,0.0,0.0,0.0,0.0,0.0,0.0,0.0,0.0,0.0,0.0,0.0,0.0,0.0,0.0,0.0,0.0,0.0,0.0,0.0,0.0,0.0,0.0,0.0,0.0,-2.4579,-2.755,-2.9784,-3.0884,-3.0581,-3.1031,-3.0079,-2.7094,0.0,0.0,0.0,0.0,0.0,0.0,0.0,0.0,0.0,0.0,0.0,0.0,0.0,0.0,0.0,0.0,0.0,0.0,0.0,0.0,0.0,0.0,0.0,0.0,0.0,0.0,0.0,0.0,0.0,0.0,0.0,0.0,0.0,0.0,0.0,0.0,0.0,0.0,0.0,0.0,0.0,0.0,0.0,0.0,0.0,0.0,0.0,0.0,0.0,0.0,0.0,0.0,0.0,0.0,0.0,0.0,0.0,0.0,0.0,0.0,0.0,0.0,0.0,0.0,0.0,0.0,0.0,0.0,0.0,0.0,0.0,0.0,0.0,0.0,0.0,0.0,0.0,0.0,0.0,0.0,0.0,0.0,0.0,0.0,0.0,0.0,0.0,0.0,0.0,0.0,0.0,0.0,0.0,0.0,0.0,0.0,0.0,0.0,0.0,0.0,0.0,0.0,0.0,0.0,-2.7296,-2.987,-3.0948,-3.1567,-3.1792,-3.1639,-3.0622,-2.8358,0.0,0.0,0.0,0.0,0.0,0.0,0.0,0.0,0.0,0.0,0.0,0.0,0.0,0.0,0.0,0.0,0.0,0.0,0.0,0.0,0.0,0.0,0.0,0.0,0.0,0.0,0.0,0.0,0.0,0.0,0.0,0.0,0.0,0.0,0.0,0.0,0.0,0.0,0.0,0.0,0.0,0.0,0.0,0.0,0.0,0.0,0.0,0.0,0.0,0.0,0.0,0.0,0.0,0.0,0.0,0.0,0.0,0.0,0.0,0.0,0.0,0.0,0.0,0.0,0.0,0.0,0.0,0.0,0.0,0.0,0.0,0.0,0.0,0.0,0.0,0.0,0.0,0.0,0.0,0.0,0.0,0.0,0.0,0.0,0.0,0.0,0.0,0.0,0.0,0.0,0.0,0.0,0.0,0.0,0.0,0.0,0.0,0.0,0.0,0.0,0.0,0.0,0.0,-2.7506,-2.8582,-3.0593,-3.1766,-3.2384,-3.233,-3.2693,-3.1755,-2.917,-2.8975,0.0,0.0,0.0,0.0,0.0,0.0,0.0,0.0,0.0,0.0,0.0,0.0,0.0,0.0,0.0,0.0,0.0,0.0,0.0,0.0,0.0,0.0,0.0,0.0,0.0,0.0,0.0,0.0,0.0,0.0,0.0,0.0,0.0,0.0,0.0,0.0,0.0,0.0,0.0,0.0,0.0,0.0,0.0,0.0,0.0,0.0,0.0,0.0,0.0,0.0,0.0,0.0,0.0,0.0,0.0,0.0,0.0,0.0,0.0,0.0,0.0,0.0,0.0,0.0,0.0,0.0,0.0,0.0,0.0,0.0,0.0,0.0,0.0,0.0,0.0,0.0,0.0,0.0,0.0,0.0,0.0,0.0,0.0,0.0,0.0,0.0,0.0,0.0,0.0,0.0,0.0,0.0,0.0,0.0,0.0,0.0,0.0,0.0,0.0,0.0,0.0,0.0,-2.879,-2.9808,-3.1273,-3.2414,-3.3087,-3.3033,-3.3656,-3.2819,-2.9854,-3.0241,0.0,0.0,0.0,0.0,0.0,0.0,0.0,0.0,0.0,0.0,0.0,0.0,0.0,0.0,0.0,0.0,0.0,0.0,0.0,0.0,0.0,0.0,0.0,0.0,0.0,0.0,0.0,0.0,0.0,0.0,0.0,0.0,0.0,0.0,0.0,0.0,0.0,0.0,0.0,0.0,0.0,0.0,0.0,0.0,0.0,0.0,0.0,0.0,0.0,0.0,0.0,0.0,0.0,0.0,0.0,0.0,0.0,0.0,0.0,0.0,0.0,0.0,0.0,0.0,0.0,0.0,0.0,0.0,0.0,0.0,0.0,0.0,0.0,0.0,0.0,0.0,0.0,0.0,0.0,0.0,0.0,0.0,0.0,0.0,0.0,0.0,0.0,0.0,0.0,0.0,0.0,0.0,0.0,0.0,0.0,0.0,0.0,0.0,0.0,0.0,0.0,0.0,-3.0223,-3.1502,-3.2478,-3.303,-3.3534,-3.4206,-3.4522,-3.3493,-3.0528,-3.0956,0.0,0.0,0.0,0.0,0.0,0.0,0.0,0.0,0.0,0.0,0.0,0.0,0.0,0.0,0.0,0.0,0.0,0.0,0.0,0.0,0.0,0.0,0.0,0.0,0.0,0.0,0.0,0.0,0.0,0.0,0.0,0.0,0.0,0.0,0.0,0.0,0.0,0.0,0.0,0.0,0.0,0.0,0.0,0.0,0.0,0.0,0.0,0.0,0.0,0.0,0.0,0.0,0.0,0.0,0.0,0.0,0.0,0.0,0.0,0.0,0.0,0.0,0.0,0.0,0.0,0.0,0.0,0.0,0.0,0.0,0.0,0.0,0.0,0.0,0.0,0.0,0.0,0.0,0.0,0.0,0.0,0.0,0.0,0.0,0.0,0.0,0.0,0.0,0.0,0.0,0.0,0.0,0.0,0.0,0.0,0.0,0.0,0.0,0.0,0.0,0.0,0.0,-3.0065,-3.1371,-3.3017,-3.3959,-3.4634,-3.5268,-3.5784,-3.4884,-3.2072,0.0,0.0,0.0,0.0,0.0,0.0,0.0,0.0,0.0,0.0,0.0,0.0,0.0,0.0,0.0,0.0,0.0,0.0,0.0,0.0,0.0,0.0,0.0,0.0,0.0,0.0,0.0,0.0,0.0,0.0,0.0,0.0,0.0,0.0,0.0,0.0,0.0,0.0,0.0,0.0,0.0,0.0,0.0,0.0,0.0,0.0,0.0,0.0,0.0,0.0,0.0,0.0,0.0,0.0,0.0,0.0,0.0,0.0,0.0,0.0,0.0,0.0,0.0,0.0,0.0,0.0,0.0,0.0,0.0,0.0,0.0,0.0,0.0,0.0,0.0,0.0,0.0,0.0,0.0,0.0,0.0,0.0,0.0,0.0,0.0,0.0,0.0,0.0,0.0,0.0,0.0,0.0,0.0,0.0,0.0,0.0,0.0,0.0,0.0,0.0,0.0,0.0,-2.9261,-3.0333,-3.1778,-3.3774,-3.479,-3.5554,-3.631,-3.6684,-3.5589,-3.2683,0.0,0.0,0.0,0.0,0.0,0.0,0.0,0.0,0.0,0.0,0.0,0.0,0.0,0.0,0.0,0.0,0.0,0.0,0.0,0.0,0.0,0.0,0.0,0.0,0.0,0.0,0.0,0.0,0.0,0.0,0.0,0.0,0.0,0.0,0.0,0.0,0.0,0.0,0.0,0.0,0.0,0.0,0.0,0.0,0.0,0.0,0.0,0.0,0.0,0.0,0.0,0.0,0.0,0.0,0.0,0.0,0.0,0.0,0.0,0.0,0.0,0.0,0.0,0.0,0.0,0.0,0.0,0.0,0.0,0.0,0.0,0.0,0.0,0.0,0.0,0.0,0.0,0.0,0.0,0.0,0.0,0.0,0.0,0.0,0.0,0.0,0.0,0.0,0.0,0.0,0.0,0.0,0.0,0.0,0.0,0.0,0.0,0.0,0.0,0.0,0.0,0.0,-2.9747,-3.1388,-3.3068,-3.4922,-3.5412,-3.6075,-3.7276,-3.706,-3.5413,0.0,0.0,0.0,0.0,0.0,0.0,0.0,0.0,0.0,0.0,0.0,0.0,0.0,0.0,0.0,0.0,0.0,0.0,0.0,0.0,0.0,0.0,0.0,0.0,0.0,0.0,0.0,0.0,0.0,0.0,0.0,0.0,0.0,0.0,0.0,0.0,0.0,0.0,0.0,0.0,0.0,0.0,0.0,0.0,0.0,0.0,0.0,0.0,0.0,0.0,0.0,0.0,0.0,0.0,0.0,0.0,0.0,0.0,0.0,0.0,0.0,0.0,0.0,0.0,0.0,0.0,0.0,0.0,0.0,0.0,0.0,0.0,0.0,0.0,0.0,0.0,0.0,0.0,0.0,0.0,0.0,0.0,0.0,0.0,0.0,0.0,0.0,0.0,0.0,0.0,0.0,0.0,0.0,0.0,0.0,0.0,0.0,0.0,0.0,0.0,0.0,0.0,0.0,-2.9623,-3.159,-3.3508,-3.4781,-3.5735,-3.6575,-3.7129,-3.763,-3.6291,-3.2435,0.0,0.0,0.0,0.0,0.0,0.0,0.0,0.0,0.0,0.0,0.0,0.0,0.0,0.0,0.0,0.0,0.0,0.0,0.0,0.0,0.0,0.0,0.0,0.0,0.0,0.0,0.0,0.0,0.0,0.0,0.0,0.0,0.0,0.0,0.0,0.0,0.0,0.0,0.0,0.0,0.0,0.0,0.0,0.0,0.0,0.0,0.0,0.0,0.0,0.0,0.0,0.0,0.0,0.0,0.0,0.0,0.0,0.0,0.0,0.0,0.0,0.0,0.0,0.0,0.0,0.0,0.0,0.0,0.0,0.0,0.0,0.0,0.0,0.0,0.0,0.0,0.0,0.0,0.0,0.0,0.0,0.0,0.0,0.0,0.0,0.0,0.0,0.0,0.0,0.0,0.0,0.0,0.0,0.0,0.0,0.0,0.0,0.0,0.0,0.0,0.0,0.0,-3.0054,-3.2269,-3.4299,-3.5648,-3.6476,-3.7164,-3.7655,-3.7704,-3.6305,-3.3099,0.0,0.0,0.0,0.0,0.0,0.0,0.0,0.0,0.0,0.0,0.0,0.0,0.0,0.0,0.0,0.0,0.0,0.0,0.0,0.0,0.0,0.0,0.0,0.0,0.0,0.0,0.0,0.0,0.0,0.0,0.0,0.0,0.0,0.0,0.0,0.0,0.0,0.0,0.0,0.0,0.0,0.0,0.0,0.0,0.0,0.0,0.0,0.0,0.0,0.0,0.0,0.0,0.0,0.0,0.0,0.0,0.0,0.0,0.0,0.0,0.0,0.0,0.0,0.0,0.0,0.0,0.0,0.0,0.0,0.0,0.0,0.0,0.0,0.0,0.0,0.0,0.0,0.0,0.0,0.0,0.0,0.0,0.0,0.0,0.0,0.0,0.0,0.0,0.0,0.0,0.0,0.0,0.0,0.0,0.0,0.0,0.0,0.0,0.0,0.0,0.0,0.0,-3.0865,-3.312,-3.5238,-3.7035,-3.7312,-3.7728,-3.8482,-3.7383,-3.5848,-3.3883,0.0,0.0,0.0,0.0,0.0,0.0,0.0,0.0,0.0,0.0,0.0,0.0,0.0,0.0,0.0,0.0,0.0,0.0,0.0,0.0,0.0,0.0,0.0,0.0,0.0,0.0,0.0,0.0,0.0,0.0,0.0,0.0,0.0,0.0,0.0,0.0,0.0,0.0,0.0,0.0,0.0,0.0,0.0,0.0,0.0,0.0,0.0,0.0,0.0,0.0,0.0,0.0,0.0,0.0,0.0,0.0,0.0,0.0,0.0,0.0,-2.2685,-2.109,0.0,0.0,0.0,0.0,0.0,0.0,0.0,0.0,0.0,0.0,0.0,0.0,0.0,0.0,0.0,0.0,0.0,0.0,0.0,0.0,0.0,0.0,0.0,0.0,0.0,0.0,0.0,0.0,0.0,0.0,0.0,0.0,0.0,0.0,0.0,0.0,0.0,0.0,0.0,0.0,-3.1017,-3.3489,-3.5722,-3.7156,-3.7371,-3.7464,-3.7683,-3.6963,-3.5639,-3.3722,-3.279,0.0,0.0,0.0,0.0,0.0,0.0,0.0,0.0,0.0,0.0,0.0,0.0,0.0,0.0,0.0,0.0,0.0,0.0,0.0,0.0,0.0,0.0,0.0,0.0,0.0,0.0,0.0,0.0,0.0,0.0,0.0,0.0,0.0,0.0,0.0,0.0,0.0,0.0,0.0,0.0,0.0,0.0,0.0,0.0,0.0,0.0,0.0,0.0,0.0,0.0,0.0,0.0,0.0,0.0,0.0,0.0,0.0,0.0,0.0,-2.6377,-2.4996,0.0,0.0,0.0,0.0,0.0,0.0,0.0,0.0,0.0,0.0,0.0,0.0,0.0,0.0,0.0,0.0,0.0,0.0,0.0,0.0,0.0,0.0,0.0,0.0,0.0,0.0,0.0,0.0,0.0,0.0,0.0,0.0,0.0,0.0,0.0,0.0,0.0,0.0,0.0,0.0,-3.1329,-3.3917,-3.6154,-3.7222,-3.7407,-3.7353,-3.724,-3.6607,-3.5714,-3.4502,-3.3502,0.0,0.0,0.0,0.0,0.0,0.0,0.0,0.0,0.0,0.0,0.0,0.0,0.0,0.0,0.0,0.0,0.0,0.0,0.0,0.0,0.0,0.0,0.0,0.0,0.0,0.0,0.0,0.0,0.0,0.0,0.0,0.0,0.0,0.0,0.0,0.0,0.0,0.0,0.0,0.0,0.0,0.0,0.0,0.0,0.0,0.0,0.0,0.0,0.0,0.0,0.0,0.0,0.0,-2.8127,-2.9291,-3.0762,-3.049,-3.1408,-3.3017,-2.9665,-2.9097,-3.0296,-2.7065,0.0,0.0,0.0,0.0,0.0,0.0,0.0,0.0,0.0,0.0,0.0,0.0,0.0,0.0,0.0,0.0,0.0,0.0,0.0,0.0,0.0,0.0,-2.7555,-2.7632,-2.8735,-2.9233,-2.7381,0.0,0.0,0.0,0.0,0.0,0.0,0.0,0.0,0.0,0.0,0.0,-3.1868,-3.4385,-3.6412,-3.7198,-3.7315,-3.7233,-3.7021,-3.6368,-3.5925,-3.5619,-3.449,-3.3431,0.0,0.0,0.0,0.0,0.0,0.0,0.0,0.0,0.0,0.0,0.0,0.0,0.0,0.0,0.0,0.0,0.0,0.0,0.0,0.0,0.0,0.0,0.0,0.0,0.0,0.0,0.0,0.0,0.0,0.0,0.0,0.0,-2.911,-2.9433,0.0,0.0,0.0,0.0,0.0,0.0,0.0,0.0,0.0,0.0,0.0,0.0,0.0,-2.5,-2.5891,-2.9681,-3.1726,-3.2029,-3.3399,-3.4111,-3.4226,-3.3968,-3.3896,-3.3987,-3.3298,0.0,-3.2211,-3.1342,0.0,0.0,0.0,0.0,0.0,0.0,0.0,0.0,0.0,0.0,0.0,0.0,0.0,0.0,0.0,0.0,0.0,0.0,0.0,0.0,0.0,0.0,-3.0514,-3.0324,-3.0381,-3.0319,-2.988,-2.8412,-2.6954,-2.6326,-2.6436,-2.6341,0.0,0.0,0.0,0.0,0.0,0.0,-3.2804,-3.4718,-3.6178,-3.6906,-3.7008,-3.7046,-3.7021,-3.6383,-3.6037,-3.6085,-3.5507,-3.4573,-3.3206,-3.2874,0.0,0.0,0.0,0.0,0.0,0.0,0.0,0.0,0.0,0.0,0.0,0.0,0.0,0.0,0.0,0.0,0.0,0.0,0.0,0.0,0.0,0.0,0.0,0.0,0.0,0.0,0.0,0.0,0.0,-2.702,-2.7454,-2.7934,-2.7291,-2.6249,0.0,0.0,0.0,0.0,0.0,0.0,0.0,0.0,0.0,-2.6358,-2.8651,-3.042,-3.1651,-3.3493,-3.4392,-3.4364,-3.4859,-3.5035,-3.4908,-3.4586,-3.4619,-3.4884,-3.4227,-3.395,-3.3808,-3.2038,-3.0564,-2.917,0.0,0.0,0.0,0.0,-2.466,-2.5168,-2.6671,-2.7938,-2.8748,-2.8046,0.0,0.0,0.0,0.0,0.0,0.0,0.0,-2.8332,-2.9703,-3.0295,-3.0597,-3.1099,-3.1204,-3.1139,-3.0594,-2.9966,-2.9229,-2.8183,-2.7512,-2.7028,-2.6741,-2.7911,0.0,0.0,0.0,-3.239,-3.3577,-3.5067,-3.62,-3.6716,-3.6893,-3.6838,-3.6572,-3.6268,-3.6148,-3.6211,-3.6006,-3.548,-3.4655,-3.3672,-3.2685,0.0,0.0,0.0,0.0,0.0,0.0,0.0,0.0,0.0,0.0,0.0,0.0,0.0,0.0,0.0,0.0,0.0,0.0,0.0,0.0,0.0,0.0,0.0,0.0,0.0,0.0,0.0,0.0,-2.6244,-2.6739,-2.7121,-2.7453,-2.7176,0.0,0.0,0.0,0.0,0.0,0.0,-2.5397,-2.6949,-2.8985,-3.1658,-3.3121,-3.4452,-3.5646,-3.562,-3.5558,-3.5528,-3.5203,-3.5018,-3.4889,-3.452,-3.4647,-3.5101,-3.4249,-3.4164,-3.4476,-3.2581,-3.1518,-3.091,-2.8458,-2.6908,-2.6013,-2.5664,-2.5882,-2.6544,-2.7769,-2.9326,-3.0593,-2.9974,-3.0117,-3.0333,-2.9337,0.0,0.0,0.0,0.0,-2.9592,-3.0829,-3.0889,-3.0806,-3.158,-3.1634,-3.1436,-3.0947,-3.0754,-3.0444,-2.9719,-2.89,-2.8411,-2.8575,-2.9692,0.0,-3.0386,-3.1931,-3.3472,-3.4465,-3.5484,-3.6229,-3.6522,-3.6767,-3.6746,-3.632,-3.6336,-3.6336,-3.6274,-3.6274,-3.6224,-3.6186,-3.4931,-3.4267,-3.4257,0.0,0.0,0.0,0.0,0.0,0.0,0.0,0.0,0.0,0.0,0.0,0.0,0.0,0.0,0.0,0.0,0.0,0.0,0.0,0.0,0.0,0.0,0.0,0.0,0.0,0.0,0.0,0.0,0.0,-2.8984,-2.9413,0.0,0.0,0.0,0.0,-2.9055,-2.9213,-3.0267,-3.2466,-3.2744,-3.3699,-3.5566,-3.5652,-3.5717,-3.5786,-3.5657,-3.5599,-3.5589,-3.5181,-3.4963,-3.487,-3.4413,-3.4191,-3.4129,-3.3716,-3.3538,-3.3629,-3.4171,-3.2847,-3.0462,-3.0606,-2.8991,-2.6739,-2.8221,-2.8257,-2.8059,-3.1198,-3.1949,-3.1534,-3.1357,-3.0291,-2.9391,-3.0895,-3.0196,0.0,0.0,-3.1082,-3.1265,-3.2531,-3.2586,-3.2293,-3.236,-3.1664,-3.1116,-3.1398,-3.006,-2.9173,-3.0306,-3.0959,-3.1134,-3.0539,0.0,-3.2105,-3.2786,-3.3196,-3.398,-3.5461,-3.5958,-3.6194,-3.6194,-3.66,-3.6769,-3.6492,-3.6754,-3.6816,-3.6492,-3.6492,-3.6753,-3.7369,-3.7146,-3.6746,-3.6276,-3.6429,0.0,0.0,0.0,0.0,0.0,0.0,0.0,0.0,0.0,0.0,0.0,0.0,0.0,0.0,0.0,0.0,0.0,0.0,0.0,0.0,0.0,0.0,0.0,0.0,0.0,0.0,0.0,0.0,-2.864,-2.9646,0.0,-2.8521,-2.9544,-3.048,-3.0843,-3.2162,-3.3451,-3.4583,-3.4793,-3.5193,-3.5884,-3.5876,-3.5854,-3.5857,-3.5768,-3.5687,-3.5599,-3.5268,-3.5032,-3.4813,-3.448,-3.4173,-3.3895,-3.3671,-3.3433,-3.3196,-3.3324,-3.2692,-3.1691,-3.1672,-3.0815,-2.9651,-2.9992,-2.9782,-2.959,-3.0995,-3.166,-3.1999,-3.2852,-3.2705,-3.2286,-3.2965,-3.2805,-3.2498,-3.3064,-3.3307,-3.347,-3.3687,-3.3371,-3.3052,-3.3157,-3.2133,-3.1457,-3.2461,-3.163,-3.088,-3.1574,-3.0778,-3.0278,-3.1042,-3.2273,-3.3261,-3.3638,-3.4575,-3.5474,-3.615,-3.6476,-3.6723,-3.6815,-3.7042,-3.7163,-3.7074,-3.7074,-3.7044,-3.6816,-3.7095,-3.742,-3.7841,-3.8085,-3.8337,-3.8451,-3.856,-3.7546,0.0,0.0,0.0,0.0,0.0,0.0,0.0,0.0,0.0,0.0,0.0,0.0,0.0,0.0,0.0,0.0,0.0,0.0,0.0,0.0,0.0,0.0,0.0,0.0,0.0,-2.6616,-2.8144,-2.8052,-2.9639,-3.0194,-2.8747,-3.032,-3.161,-3.2029,-3.3559,-3.4717,-3.5268,-3.554,-3.5757,-3.5869,-3.5887,-3.5917,-3.5923,-3.5866,-3.5772,-3.564,-3.5353,-3.5098,-3.4813,-3.4464,-3.4154,-3.3842,-3.353,-3.319,-3.2943,-3.2687,-3.2454,-3.2162,-3.1894,-3.1507,-3.1061,-3.0535,-3.0241,-3.0217,-3.1047,-3.1876,-3.2736,-3.4007,-3.43,-3.4201,-3.4448,-3.4546,-3.4546,-3.4546,-3.4691,-3.4739,-3.43,-3.3866,-3.3493,-3.3566,-3.2494,-3.175,-3.2795,-3.2509,-3.2063,-3.2154,-3.117,-3.0726,-3.209,-3.3185,-3.3879,-3.3844,-3.5263,-3.6292,-3.6028,-3.6845,-3.7465,-3.7616,-3.784,-3.7805,-3.7389,-3.7093,-3.6993,-3.7234,-3.7406,-3.7888,-3.8764,-3.8576,-3.8858,-3.9706,-3.9529,-3.889,-3.7653,0.0,0.0,0.0,0.0,0.0,0.0,0.0,0.0,0.0,0.0,0.0,0.0,0.0,0.0,0.0,0.0,0.0,0.0,0.0,0.0,0.0,0.0,0.0,-2.5386,-2.6954,-2.801,-2.7517,-2.9622,-3.0666,-2.9575,-3.1184,-3.2435,-3.28,-3.3542,-3.4267,-3.4867,-3.5278,-3.559,-3.5801,-3.5856,-3.5927,-3.5991,-3.5927,-3.584,-3.5708,-3.5419,-3.5159,-3.4888,-3.436,-3.4068,-3.3947,-3.322,-3.2848,-3.2781,-3.2489,-3.2143,-3.1746,-3.13,-3.101,-3.0723,-2.9968,-2.971,-3.0012,-3.1662,-3.2856,-3.3766,-3.4808,-3.4947,-3.4787,-3.5198,-3.5198,-3.5088,-3.5105,-3.5088,-3.4947,-3.4448,-3.4016,-3.3693,-3.3597,-3.2638,-3.1892,-3.2451,-3.2571,-3.2435,-3.2091,-3.2342,-3.2886,-3.3863,-3.4164,-3.4127,-3.3785,-3.5453,0.0,-3.5284,-3.6974,-3.8292,-3.8412,-3.8715,-3.8428,-3.7238,-3.6695,-3.6798,-3.7653,-3.7343,-3.8075,-4.0273,-3.8772,-3.8583,-4.0078,-3.9597,-3.9709,-4.0567,0.0,0.0,0.0,0.0,0.0,0.0,0.0,0.0,0.0,0.0,0.0,0.0,0.0,0.0,0.0,0.0,0.0,0.0,0.0,0.0,0.0,-2.4996,-2.6745,-2.7563,-2.8793,-2.9849,-3.0506,-3.0974,-3.1164,-3.0959,-3.1524,-3.2197,-3.2822,-3.3479,-3.4106,-3.4716,-3.5243,-3.5557,-3.5721,-3.5841,-3.5908,-3.5921,-3.5919,-3.584,-3.5708,-3.5432,-3.5098,-3.4737,-3.4398,-3.403,-3.3615,-3.3178,-3.2752,-3.2335,-3.2126,-3.1839,-3.1596,-3.1765,-3.1617,-3.1291,-3.1038,-3.1091,-3.1437,-3.254,-3.3267,-3.3892,-3.4918,-3.5198,-3.5198,-3.54,-3.5291,-3.5041,-3.4835,-3.4739,-3.4546,-3.4151,-3.4062,-3.4067,-3.3959,-3.3176,-3.2687,-3.3545,-3.3637,-3.3499,-3.3233,-3.4149,-3.4901,-3.4666,-3.5112,-3.5724,-3.6283,-3.6758,-3.6993,-3.6778,-3.7326,-3.737,-3.6457,-3.6476,-3.6437,-3.6198,-3.6557,-3.7223,-3.8365,-3.942,-4.0368,-4.1346,-4.1513,-4.2114,-4.3099,-4.1932,-4.1421,0.0,0.0,0.0,0.0,0.0,0.0,0.0,0.0,0.0,0.0,0.0,0.0,0.0,0.0,0.0,0.0,0.0,0.0,0.0,0.0,0.0,0.0,-2.6911,-2.853,-3.0,-3.0486,-3.0891,-3.1449,-3.1312,-3.1117,-3.1072,-3.1346,-3.1785,-3.2263,-3.3063,-3.3776,-3.4451,-3.5076,-3.5485,-3.5682,-3.5836,-3.5895,-3.5903,-3.5875,-3.5784,-3.5618,-3.5331,-3.4994,-3.4637,-3.4213,-3.3823,-3.3462,-3.2993,-3.2573,-3.2179,-3.1894,-3.1617,-3.1368,0.0,0.0,0.0,0.0,-3.1268,-3.1707,-3.2833,-3.3419,-3.3902,-3.5121,-3.5458,-3.5412,-3.552,-3.5429,-3.5198,-3.4899,-3.4643,-3.4399,-3.4,-3.3825,-3.37,-3.3638,-3.3013,-3.2649,-3.3318,-3.364,-3.3698,-3.3432,-3.4841,0.0,-3.5458,-3.589,-3.6258,-3.621,-3.688,-3.7227,-3.6643,-3.7354,-3.765,-3.6985,-3.6963,-3.6908,-3.6702,-3.707,0.0,0.0,0.0,-4.113,-4.1354,-4.2063,0.0,0.0,0.0,-4.2574,-4.3254,-4.2122,0.0,0.0,-3.9673,-3.925,0.0,0.0,0.0,0.0,0.0,0.0,0.0,0.0,0.0,0.0,0.0,0.0,0.0,0.0,0.0,0.0,-2.9263,-3.0664,-3.2223,-3.1915,-3.1414,-3.1201,-3.1078,-3.0855,-3.0485,-3.0912,-3.1257,-3.1514,-3.2506,-3.3415,-3.4134,-3.4882,0.0,0.0,0.0,-3.5898,-3.5903,-3.5833,-3.5688,-3.5495,-3.5139,-3.485,-3.4572,-3.388,-3.355,-3.3433,-3.2737,-3.2335,-3.2144,-3.1765,-3.1445,-3.119,-3.0821,-3.0764,-3.0885,-3.0707,-3.0885,-3.1365,-3.2831,0.0,0.0,-3.5341,-3.5711,-3.5577,-3.5577,-3.5458,-3.5291,-3.4899,-3.4594,-3.43,-3.3949,-3.3482,-3.3036,-3.2966,-3.2655,-3.245,-3.2523,-3.3089,-3.3479,-3.3222,-3.5023,-3.6437,-3.6104,-3.6517,-3.6405,-3.5218,-3.6565,-3.7255,-3.5903,-3.7302,-3.8439,-3.8368,-3.8547,0.0,-3.7742,-3.7895,-3.8643,-4.0023,-4.0847,-4.1269,-4.1261,-4.1741,-4.19,-4.1611,-4.2377,-4.345,-4.4886,-4.4831,-4.4759,-4.4473,-4.0521,-3.9951,0.0,0.0,0.0,0.0,0.0,0.0,0.0,0.0,0.0,0.0,0.0,0.0,0.0,0.0,0.0,-2.7006,-2.9027,-3.079,-3.2014,-3.2463,-3.2449,-3.1804,-3.1389,-3.1112,-3.0895,-3.0975,-3.1235,-3.164,-3.2444,-3.3265,-3.3998,-3.4789,-3.5377,-3.5678,-3.5837,-3.5894,-3.5903,-3.5788,-3.5639,-3.5496,-3.5045,0.0,-3.4508,-3.3884,-3.3455,-3.322,-3.2555,-3.2144,-3.193,-3.1691,-3.1466,-3.1274,-3.1134,-3.1291,-3.1634,-3.1637,-3.1637,-3.1895,-3.3446,-3.3836,-3.3845,-3.5341,-3.5656,-3.5475,-3.5383,-3.5041,0.0,-3.4349,-3.4,-3.3642,-3.345,-3.3527,-3.3576,-3.3275,-3.3435,-3.356,-3.335,-3.4012,-3.4441,-3.389,-3.5674,-3.708,-3.6527,-3.7102,-3.7703,-3.7657,-3.7792,-3.7838,-3.768,-3.7886,-3.7562,-3.651,-3.6398,-3.6334,-3.6206,-3.7528,-3.9015,-4.0678,-4.2756,-4.405,-4.415,-4.4609,-4.4732,-4.4542,-4.4837,-4.5078,-4.5264,-4.5194,-4.5032,-4.4852,-4.3664,-4.2965,0.0,0.0,0.0,0.0,0.0,0.0,0.0,0.0,0.0,0.0,0.0,-2.0699,0.0,0.0,-2.6993,-2.8841,-3.0302,-3.139,-3.1875,-3.2538,-3.2792,-3.238,-3.1894,-3.1466,-3.1201,-3.1117,-3.1157,-3.1376,-3.2378,-3.3211,-3.382,-3.475,-3.5392,-3.5738,-3.5813,-3.5843,-3.5846,-3.5679,-3.5521,-3.5345,-3.4832,-3.4449,-3.4176,-3.3616,-3.316,-3.2798,-3.2352,-3.2038,-3.1894,-3.1711,-3.1562,-3.1389,-3.1368,-3.1445,-3.1579,-3.1691,-3.1691,-3.184,-3.3328,-3.3639,-3.3643,-3.5131,-3.5458,-3.5291,-3.5198,-3.4899,-3.4628,-3.479,-3.4584,-3.4422,-3.4828,-3.459,-3.4295,-3.416,-3.4282,-3.4371,-3.4286,-3.4961,-3.5558,-3.5321,-3.6636,-3.7679,-3.7387,-3.803,-3.8528,-3.8391,-3.8278,-3.8107,-3.8049,-3.7934,-3.7703,-3.715,-3.7069,-3.7326,-3.7792,-3.9519,-4.1213,-4.2632,-4.4079,-4.4961,-4.5194,-4.5476,-4.5581,-4.5528,-4.5581,-4.5581,-4.5528,-4.53,-4.5194,-4.5086,-4.4814,-4.435,0.0,0.0,0.0,0.0,0.0,0.0,0.0,0.0,-1.8379,-2.0515,-2.1405,-2.3016,-2.7019,-2.7818,-2.8626,-3.0917,-3.1646,-3.2,-3.2235,-3.2598,-3.2864,-3.293,-3.2335,-3.1812,-3.1477,-3.1522,-3.1531,-3.1459,-3.2485,-3.3351,-3.3822,-3.4816,-3.5484,-3.5782,-3.5819,-3.5809,-3.5806,-3.5588,-3.5416,-3.5207,-3.4675,-3.4265,-3.3975,-3.339,-3.2912,-3.2519,-3.2266,-3.2073,-3.193,-3.1841,-3.1817,-3.1802,-3.184,-3.1812,-3.1798,-3.1854,-3.1888,-3.2175,-3.3366,-3.3634,-3.3691,-3.5155,-3.5375,-3.5155,-3.539,-3.5182,-3.4956,-3.5527,-3.5535,-3.5525,-3.6214,-3.578,-3.5133,-3.5239,-3.5223,-3.5223,-3.5399,-3.601,-3.6591,-3.6798,-3.7494,-3.8162,-3.8214,-3.8811,-3.9115,-3.8655,-3.8544,-3.8391,-3.8091,-3.8033,-3.8164,-3.8391,-3.8578,-3.9153,-4.04,-4.1993,-4.339,-4.4524,-4.4906,-4.5194,-4.5423,-4.5581,-4.5632,-4.5632,-4.5632,-4.5632,-4.5632,-4.5406,-4.523,-4.5194,-4.5086,-4.4855,1.5371,0.9521,0.2485,-0.8513,-1.1,-1.3183,0.0,0.0,-2.0238,-2.3092,-2.4354,-2.5539,-2.7294,-2.8852,-3.0251,-3.1441,-3.1594,-3.2104,-3.3719,-3.3121,-3.2775,-3.343,-3.266,-3.1974,-3.1683,-3.2337,-3.2745,-3.2608,-3.3296,-3.3915,-3.4388,-3.5096,-3.5572,-3.5788,-3.5857,-3.5851,-3.5801,-3.5601,-3.5425,-3.5266,-3.4755,-3.4439,-3.4316,-3.3532,-3.3129,-3.2993,-3.2574,-3.2284,-3.2073,-3.2179,-3.2492,-3.2913,-3.3008,-3.3256,-3.3522,-3.2986,-3.3158,-3.3847,-3.4562,-3.4619,-3.457,-3.5946,-3.5793,-3.5291,-3.6356,-3.6038,-3.5407,-3.5829,-3.6002,-3.5997,-3.6131,-3.6152,-3.6141,-3.63,-3.6492,-3.6682,-3.6835,-3.7103,-3.7319,-3.727,-3.7936,-3.8488,-3.8385,-3.9089,-3.9504,-3.9152,-3.9007,-3.886,-3.8694,-3.86,-3.856,-3.856,-3.9266,-4.0522,-4.2495,-4.3081,-4.3817,-4.4872,-4.53,-4.5581,-4.5581,-4.5736,-4.577,-4.577,-4.577,-4.5718,-4.5632,-4.5563,-4.5459,-4.5177,-4.5177,-4.4727,1.8041,1.0656,0.2247,0.0,-1.103,-1.6063,-2.2352,-2.2552,-2.1376,-2.1375,-2.14,-2.1219,-2.0503,-2.3944,-2.6653,0.0,-2.9118,-3.1762,-3.2167,-3.2678,-3.2931,-3.2701,-3.2958,-3.2949,-3.2435,-3.2534,-3.2797,-3.318,-3.3852,-3.4339,-3.4543,-3.5232,-3.5702,-3.5848,-3.5898,-3.5864,-3.5806,-3.56,-3.5399,-3.5239,-3.4735,-3.4357,-3.4093,-3.355,-3.3117,-3.2852,-3.3298,-3.3261,-3.2967,-3.3825,-3.4111,-3.4012,-3.4069,-3.4428,-3.4827,-3.3852,-3.3608,-3.3847,-3.4491,-3.4549,-3.4555,-3.5894,-3.5874,-3.558,-3.6569,-3.653,-3.6225,-3.6926,-3.7192,-3.7306,-3.7822,-3.7679,-3.742,-3.756,-3.7715,-3.7801,-3.8054,-3.8506,-3.8908,-3.8908,-3.9211,-3.948,-3.948,-3.9733,-3.9918,-3.9867,-3.952,-3.9313,-3.9434,-3.9427,-3.9703,-4.0331,-4.1272,-4.2272,-4.3314,-4.3973,-4.4565,-4.5213,-4.5459,-4.5632,-4.5718,-4.5821,-4.5922,-4.5922,-4.5922,-4.5871,-4.5821,-4.577,-4.5615,-4.5459,-4.5459,-4.5198,1.7424,1.0353,0.0,-0.4951,-1.1542,-1.7161,-2.0691,-2.0273,-1.8598,-1.6717,-1.5049,-1.368,-1.2913,-1.664,-2.017,-2.1259,-2.5487,-2.9389,-3.1543,-3.229,-3.2552,-3.2324,-3.27,-3.3086,-3.3286,-3.3179,-3.3382,-3.398,-3.4563,-3.4894,-3.4897,-3.5436,-3.5802,-3.5909,-3.5895,-3.5873,-3.5799,-3.559,-3.5405,-3.5207,-3.4755,-3.4357,-3.4043,-3.3899,-3.3732,-3.3588,-3.4353,-3.4443,-3.4128,-3.5073,-3.5312,-3.506,-3.5078,-3.5478,-3.5937,-3.5007,-3.4518,-3.4438,-3.4975,-3.5026,-3.5115,-3.6417,-3.6506,-3.6272,-3.7263,-3.7255,-3.7081,-3.8015,-3.8335,-3.8504,-3.9193,-3.8997,-3.865,-3.8737,-3.8788,-3.8891,-3.9043,-3.9564,-4.0054,-4.0138,-4.0188,-4.0238,-4.0337,-4.0288,-4.0238,-4.0288,-3.9952,-3.9857,-4.0178,-4.0442,-4.099,-4.2088,-4.2863,-4.3542,-4.4141,-4.4761,-4.523,-4.5441,-4.5615,-4.577,-4.5821,-4.5972,-4.6073,-4.6073,-4.6073,-4.6023,-4.5972,-4.5922,-4.5787,-4.5684,-4.5684,-4.5563,0.0,0.0,0.0722,-0.9746,-1.3624,-1.5615,-1.8538,-1.4675,-1.0126,-0.882,-0.5273,-0.329,-0.6131,-0.7386,-1.0794,-1.9343,-2.0843,-2.411,-3.3211,-3.2282,-3.1281,-3.2868,-3.1674,-3.1657,-3.4125,-3.4707,-3.5032,-3.5321,-3.5549,-3.5667,-3.5667,-3.5812,-3.5903,-3.5897,-3.5906,-3.587,-3.5799,-3.5591,-3.5406,-3.52,-3.487,-3.4588,-3.44,-3.4792,-3.5349,-3.5996,-3.5775,-3.5575,-3.5454,-3.5408,-3.5651,-3.6058,-3.6,-3.6362,-3.6952,-3.6713,-3.6433,-3.6293,-3.6672,-3.6746,-3.6844,-3.8086,-3.7937,-3.7519,-3.8811,-3.8619,-3.8101,-3.8793,-3.9115,-3.9309,-3.9432,-3.9573,-3.9644,-3.9644,-3.9747,-3.9867,-3.9867,-4.0087,-4.0305,-4.0288,-4.0387,-4.0485,-4.0468,-4.0485,-4.0436,-4.0305,-4.0305,-4.0459,-4.0877,-4.1493,-4.227,-4.3413,-4.3603,-4.4158,-4.5233,-4.5477,-4.5598,-4.5563,-4.5821,-4.5972,-4.5972,-4.6122,-4.6172,-4.6172,-4.6172,-4.6122,-4.5972,-4.5972,-4.5922,-4.577,-4.577,-4.5718,0.0,0.0,0.2935,0.0969,-0.3775,-0.7643,-0.6445,-0.4686,-0.285,-0.1128,0.0056,0.0921,0.1446,-0.2009,-0.7088,-1.3496,-1.7266,-2.2249,-3.0396,-3.1835,-3.214,-3.2356,-3.3132,0.0,-3.4472,-3.4051,-3.4505,-3.6391,-3.6555,-3.658,-3.664,-3.6714,-3.6504,-3.5911,-3.5903,-3.5844,-3.5732,-3.6192,-3.6061,-3.533,-3.5496,-3.5672,-3.5926,-3.6085,-3.6213,-3.6399,-3.6877,-3.6863,-3.6544,-3.7091,-3.7164,-3.6889,-3.687,-3.6953,-3.7031,-3.6829,-3.6788,-3.6795,-3.7067,-3.7075,-3.7177,-3.8253,-3.827,-3.8083,-3.9027,-3.9106,-3.8904,-3.9259,-3.9415,-3.959,-3.9746,-3.9798,-3.9901,-4.0037,-4.0138,-4.0205,-4.0288,-4.0387,-4.0436,-4.0436,-4.0485,-4.0534,-4.0648,-4.0534,-4.0639,-4.1085,-4.1341,-4.1591,-4.1827,-4.2888,-4.3859,-4.4443,-4.4639,-4.4919,-4.5336,-4.5511,-4.5615,-4.5718,-4.5871,-4.6023,-4.6122,-4.6172,-4.6172,-4.6172,-4.6172,-4.6172,-4.6122,-4.6122,-4.6073,-4.5922,-4.6005,-4.6005,0.0,1.0911,0.6369,0.6681,0.3064,0.0027,0.2164,0.3393,0.4458,0.5809,0.6658,0.7524,0.8603,0.4945,-0.0462,-0.73,-1.2423,-1.8688,-2.769,-3.0385,-3.1626,-3.2092,-3.3392,-3.4409,0.0,0.0,-3.4833,-3.6972,-3.7123,-3.7138,-3.7166,-3.7182,-3.6802,-3.5923,-3.5885,-3.582,-3.5688,-3.6439,-3.662,-3.6192,-3.6387,-3.6798,-3.7422,-3.7324,-3.7399,-3.762,-3.8071,-3.7993,-3.7617,-3.8053,-3.7933,-3.7429,-3.741,-3.7317,-3.7185,-3.7048,-3.7009,-3.711,-3.7551,-3.762,-3.7723,-3.8756,-3.894,-3.8904,-3.9335,-3.9415,-3.9484,-3.9642,-3.9781,-3.9867,-4.0087,-4.0087,-4.0138,-4.0337,-4.0387,-4.0387,-4.0485,-4.0534,-4.0583,-4.0583,-4.0631,-4.068,-4.0745,-4.0631,-4.084,-4.1576,-4.2091,-4.2581,-4.2889,-4.4031,-4.4944,-4.5247,-4.5336,-4.5389,-4.5632,-4.5667,-4.577,-4.5871,-4.5972,-4.6122,-4.6189,-4.6172,-4.6172,-4.6172,-4.6172,-4.6172,-4.6172,-4.6172,-4.6172,-4.6073,-4.6204,-4.6186,1.4653,1.3046,1.084,0.7702,0.7094,0.731,0.7518,0.9762,1.1791,1.1825,1.4166,1.5825,0.0,0.0,0.8521,-0.1567,-0.6668,-1.3507,-2.5413,-2.824,-2.9902,0.0,0.0,0.0,0.0,0.0,-3.6071,-3.7246,-3.7381,-3.7413,-3.7416,-3.737,-3.6926,-3.606,-3.5963,-3.5907,-3.5834,-3.6446,-3.7091,-3.7738,-3.7487,-3.7881,-3.8755,-3.8497,-3.8818,-3.9575,-3.9192,-3.8855,-3.8585,-3.8267,-3.7931,-3.7703,-3.7613,-3.7503,-3.7392,-3.7334,-3.7203,-3.7259,-3.8148,-3.8414,-3.8579,-3.9547,-3.9901,-3.9901,-3.9729,-3.9729,-3.9781,-4.0037,-4.0138,-4.0171,-4.0419,-4.0534,-4.0534,-4.0534,-4.0534,-4.0534,-4.0534,-4.06,-4.0697,-4.0697,-4.0793,-4.0888,-4.0888,-4.0793,-4.0971,-4.1744,-4.2499,-4.3254,-4.4027,-4.4871,-4.5494,-4.577,-4.5701,-4.5701,-4.5972,-4.5972,-4.5972,-4.5972,-4.6122,-4.6172,-4.6172,-4.6172,-4.6172,-4.6172,-4.6172,-4.6172,-4.6172,-4.6172,-4.6172,-4.6221,-4.635,-4.6332,1.7235,1.6487,1.6266,1.7661,1.707,1.6712,1.895,1.8703,1.742,1.5346,1.5016,1.4465,0.0,0.0,0.0,-0.3637,-0.5226,0.0,-2.4924,-2.9039,0.0,-3.1697,0.0,-3.4589,-3.5276,-3.6151,0.0,-3.8932,-3.9029,-3.9048,-3.909,-3.9115,-3.8714,-3.7787,-3.77,-3.7628,-3.7564,-3.7583,-3.8265,-3.9603,-3.8861,-3.8916,-3.9652,-3.9482,-3.9528,-3.967,-3.9331,-3.9008,-3.8658,-3.8428,-3.8052,-3.7613,-3.7631,-3.7503,-3.7392,-3.7334,-3.7297,-3.7394,-3.8552,-3.8728,-3.8637,-3.9696,-3.9986,-3.9901,-3.9849,-3.9935,-4.002,-4.0188,-4.0337,-4.0436,-4.06,-4.0648,-4.0697,-4.0776,-4.0776,-4.0776,-4.0776,-4.0745,-4.0745,-4.084,-4.0793,-4.0793,-4.0871,-4.068,-4.1077,-4.2615,-4.2943,-4.3288,-4.413,-4.4993,-4.5615,-4.577,-4.577,-4.577,-4.5821,-4.5922,-4.5972,-4.5972,-4.6122,-4.6172,-4.6172,-4.6172,-4.6172,-4.6172,-4.6172,-4.6172,-4.6172,-4.6172,-4.6172,-4.6239,-4.6447,-4.6542,2.0459,2.0394,2.0767,2.3122,2.2736,2.1882,2.2332,2.1044,1.863,1.4753,1.424,0.0,1.2088,1.3676,0.0,0.0,0.0,0.0,-2.2525,-2.756,-3.0297,0.0,-3.351,0.0,-3.5675,-3.6837,-3.813,-3.9556,-3.9704,-3.975,-3.9747,-3.9772,-3.937,-3.8427,-3.8324,-3.8421,-3.8666,-3.8527,-3.909,-4.0325,-3.9756,-3.97,-4.008,-3.9935,-3.9826,-3.9717,-3.9452,-3.9146,-3.8826,-3.8603,-3.8271,-3.781,-3.7792,-3.7685,-3.7522,-3.7484,-3.741,-3.7509,-3.8784,-3.8763,-3.8432,-3.9822,-4.0221,-4.0138,-4.0104,-4.0188,-4.0271,-4.0453,-4.0583,-4.068,-4.0793,-4.084,-4.0905,-4.0888,-4.084,-4.0793,-4.0793,-4.0697,-4.0631,-4.0793,-4.0745,-4.0745,-4.0888,-4.0776,-4.1243,-4.3022,-4.3214,-4.3611,-4.4886,-4.5407,-4.5718,-4.5871,-4.5871,-4.5922,-4.5972,-4.6055,-4.5965,-4.5698,-4.5778,-4.5638,-4.5286,-4.5203,-4.5361,-4.5778,-4.5778,-4.5985,-4.6319,-4.6319,-4.627,-4.6239,-4.6398,-4.6495,2.3605,2.4109,2.4361,2.5671,2.5377,2.4036,2.1303,1.9747,1.7402,1.2337,0.0,1.3791,1.2086,1.3293,1.1583,0.2572,0.0,-0.7658,-1.925,-2.532,-2.9523,-3.2119,-3.363,-3.498,-3.6274,-3.7544,-3.8702,-3.9692,-3.9957,-4.0027,-3.997,-3.9964,-3.9591,-3.8762,-3.8675,-3.8891,-3.9485,-3.9415,-3.9717,-4.0415,-4.0289,-4.0215,-4.0215,-4.0078,-3.9954,-3.9804,-3.9526,-3.9298,-3.9055,-3.8822,-3.8496,-3.8183,-3.8068,-3.788,-3.7703,-3.7649,-3.754,-3.7605,-3.8987,-3.8807,-3.8277,-4.0023,-4.0466,-4.0349,-4.037,-4.0436,-4.0534,-4.0697,-4.084,-4.0935,-4.0918,-4.1029,-4.1047,-4.0935,-4.0793,-4.0697,-4.0648,-4.0583,-4.0534,-4.0648,-4.0697,-4.0745,-4.0888,-4.1004,-4.1605,-4.3187,-4.3412,-4.3965,-4.5641,-4.5732,-4.5732,-4.5815,-4.5778,-4.5775,-4.5856,-4.5905,-4.5721,-4.5182,-4.5147,-4.4829,-4.4114,-4.4014,-4.4331,-4.5129,-4.5235,-4.5652,-4.6288,-4.6346,-4.635,-4.627,-4.635,-4.6447,2.4882,2.5716,2.6525,2.7001,2.5835,2.3833,2.1089,1.922,0.0,0.0,1.2777,1.3242,1.155,1.3362,1.256,0.4556,-0.0912,-0.7444,-1.6846,-2.526,-3.1049,0.0,-3.4382,-3.5894,-3.7222,-3.8504,0.0,-4.0604,-4.0814,-4.089,-4.0886,-4.0861,-4.074,-4.0481,-4.04,-4.0377,-4.0376,-4.0308,-4.0342,-4.0485,-4.0396,-4.0344,-4.0289,-4.0138,-4.0036,-3.9954,-3.9623,-3.9489,-3.9457,-3.9027,-3.8778,-3.8578,-3.8231,-3.7949,-3.7703,-3.7667,-3.7559,-3.7605,-3.9181,-3.9441,-3.9266,-4.0429,-4.0268,-3.973,-4.0412,-4.0648,-4.0697,-4.0953,-4.1047,-4.1093,-4.1134,-4.1105,-4.1047,-4.0935,-4.0793,-4.0648,-4.0404,-4.0436,-4.0534,-4.0534,-4.0631,-4.0793,-4.1,-4.1501,-4.2192,-4.3287,-4.3444,-4.3774,-4.4809,-4.4931,-4.4913,-4.5061,-4.4484,-4.4148,-4.4308,-4.4419,-4.4459,-4.4473,-4.4382,-4.4265,-4.4096,-4.4078,-4.4131,-4.4272,-4.5028,-4.5446,-4.557,-4.6129,-4.6447,-4.6542,-4.6542,-4.659,2.6339,2.6898,2.7324,2.7122,2.536,2.2811,1.9541,0.0,0.0,0.0,1.1277,1.167,1.0177,1.2455,0.0,0.4413,0.0139,-0.5787,-1.6019,-2.4044,0.0,-3.366,-3.5413,-3.6882,0.0,-3.9081,-3.9896,-4.0823,-4.103,-4.1105,-4.1111,-4.1078,-4.0782,-4.0247,-4.0591,-4.0764,-4.0654,-4.0583,-4.0523,-4.0495,-4.043,-4.0344,-4.0233,-4.0234,-3.9889,-3.9351,-3.9596,-3.9364,-3.8826,-3.8924,-3.8807,-3.8573,-3.8249,-3.8,-3.7845,-3.7828,-3.7739,-3.7882,-3.9358,-3.939,-3.9112,-4.0734,-4.0816,-4.0375,-4.0784,-4.0905,-4.0935,-4.1105,-4.1198,-4.1261,-4.1209,-4.118,-4.1105,-4.0918,-4.0697,-4.0453,-4.0355,-4.0387,-4.0534,-4.068,-4.084,-4.0935,-4.1105,-4.1383,-4.1933,-4.2905,-4.2979,-4.3258,-4.4073,-4.3829,-4.3772,-4.4222,-4.3925,-4.3745,-4.3904,-4.3997,-4.3976,-4.3704,-4.3642,-4.3421,-4.3032,-4.2953,-4.3102,-4.3525,-4.386,-4.4276,-4.4728,-4.4894,-4.5299,-4.5912,-4.5751,-4.6011,2.7315,2.7708,2.7793,2.7165,2.4909,2.185,1.8032,1.5233,0.0,0.0,0.9517,0.9946,0.8758,0.0,1.0536,0.0,0.0287,-0.5439,-1.5546,0.0,-2.9629,0.0,-3.6481,0.0,-3.9052,-3.9571,-4.0114,-4.0844,-4.0996,-4.1065,-4.1086,-4.1025,-4.0643,-3.9888,-4.03,-4.0558,-4.0687,-4.0444,-4.04,-4.0523,-4.0444,-4.036,-4.0251,-4.01,-3.9567,-3.8803,-3.9387,-3.9101,-3.8305,-3.8838,-3.8884,-3.8597,-3.83,-3.8119,-3.7984,-3.7951,-3.7899,-3.8079,-3.9455,-3.937,-3.9014,-4.1014,-4.1276,-4.0932,-4.1088,-4.1123,-4.1123,-4.1226,-4.1318,-4.138,-4.1255,-4.1209,-4.1117,-4.0871,-4.0534,-4.0288,-4.0355,-4.0436,-4.0631,-4.0888,-4.1029,-4.1169,-4.1226,-4.1394,-4.1771,-4.2538,-4.2579,-4.2806,-4.3401,-4.276,-4.2533,-4.3156,-4.3208,-4.3255,-4.3412,-4.355,-4.3376,-4.2908,-4.2855,-4.2546,-4.198,-4.1841,-4.2079,-4.2732,-4.2828,-4.3198,-4.3888,-4.3799,-4.4202,-4.5041,-4.4992,-4.5291,2.7017,2.8087,2.8547,2.7865,2.5147,2.1568,1.7585,0.0,0.0,0.8388,0.8307,0.8554,0.7788,0.0,0.0,0.0,0.0,-0.9169,0.0,0.0,0.0,-3.5063,0.0,0.0,-3.9089,-4.0169,-4.0879,-4.0897,-4.0901,-4.0953,-4.1013,-4.0952,-4.083,-4.0701,-3.9987,-3.9934,-4.0602,-3.9813,-3.9817,-4.0588,-4.0523,-4.0473,-4.0454,-3.9536,-3.9084,-3.8972,-3.886,-3.8782,-3.8764,-3.9126,-3.9181,-3.899,-3.8566,-3.8219,-3.7984,-3.7984,-3.7933,-3.8079,-3.9455,-3.9783,-3.982,-4.1294,-4.1086,-4.0321,-4.1,-4.1209,-4.1209,-4.1335,-4.138,-4.138,-4.1363,-4.1318,-4.1071,-4.0662,-4.032,-4.0188,-4.0436,-4.0583,-4.0745,-4.1047,-4.1152,-4.1209,-4.1363,-4.2002,-4.2555,-4.2735,-4.255,-4.2474,-4.2684,-4.1853,-4.1308,-4.1572,-4.1635,-4.1681,-4.1815,-4.1947,-4.2017,-4.2111,-4.199,-4.1894,-4.1841,-4.1797,-4.1815,-4.1903,-4.2661,-4.3094,-4.3209,-4.3645,-4.3968,-4.4212,-4.4824,-4.4711,2.8061,2.885,2.8827,2.7971,2.4526,2.0736,1.8215,0.0,1.0219,0.8954,0.7986,0.7154,0.6338,0.0,0.0,0.0,0.0,0.0,-1.7075,0.0,0.0,-3.4913,-3.7872,0.0,0.0,0.0,-4.1013,-4.1029,-4.0989,-4.0979,-4.1011,-4.0943,-4.0655,-4.0091,-3.9708,-3.9894,-4.0713,-3.9824,-3.981,-4.066,-4.0579,-4.0564,-4.0526,-3.96,-3.9169,-3.9122,-3.904,-3.8969,-3.8955,-3.9255,-3.9264,-3.9122,-3.8609,-3.8318,-3.8307,-3.8798,-3.8622,-3.8395,-4.0273,-4.048,-4.016,-4.1523,-4.1672,-4.1262,-4.141,-4.1363,-4.1363,-4.1471,-4.1515,-4.1515,-4.1426,-4.1198,-4.0948,-4.068,-4.0534,-4.0534,-4.0758,-4.0977,-4.118,-4.1335,-4.156,-4.1648,-4.1648,-4.2326,-4.274,-4.2282,-4.2527,-4.2531,-4.195,-4.21,-4.2233,-4.2261,-4.1751,-4.1471,-4.1604,-4.1648,-4.1754,-4.1884,-4.1841,-4.178,-4.1692,-4.1692,-4.1587,-4.1453,-4.1723,-4.1925,-4.1936,-4.2149,-4.2579,-4.3328,-4.3945,-4.4401,2.715,2.8107,2.8249,2.7308,2.3744,1.9952,0.0,0.0,0.9148,0.8534,0.6951,0.5329,0.413,0.2221,0.0,0.0,0.0,-1.3152,-1.9506,-2.4995,0.0,0.0,0.0,-3.8832,-3.9967,-4.0619,-4.1006,-4.1091,-4.1017,-4.0979,-4.0996,-4.0935,-4.0626,-4.0004,-3.968,-3.9905,-4.0752,-3.9863,-3.985,-4.0726,-4.0662,-4.0642,-4.063,-3.9483,-3.909,-3.9257,-3.8975,-3.8767,-3.8652,-3.9245,-3.92,-3.8776,-3.8609,-3.8478,-3.8524,-3.9327,-3.9207,-3.8894,-4.0871,-4.1025,-4.0599,-4.1718,-4.2055,-4.1962,-4.178,-4.1648,-4.1577,-4.1648,-4.156,-4.1453,-4.1363,-4.1105,-4.0888,-4.0793,-4.0776,-4.0918,-4.1071,-4.1346,-4.1542,-4.1692,-4.1858,-4.1962,-4.1902,-4.2369,-4.2546,-4.1972,-4.2317,-4.2476,-4.199,-4.2519,-4.2961,-4.2898,-4.2316,-4.1938,-4.2027,-4.1833,-4.1842,-4.2141,-4.2158,-4.2132,-4.2,-4.2,-4.1788,-4.1272,-4.1244,-4.1244,-4.1255,-4.1198,-4.1586,-4.2402,-4.329,-4.4278,2.3302,2.5311,2.656,2.5826,2.2836,1.9364,0.0,0.0,0.8773,0.648,0.4718,0.2952,0.1095,-0.0217,0.0,0.0,0.0,0.0,-2.1498,-2.5444,0.0,0.0,0.0,-3.5578,-3.7892,-3.981,-4.0959,-4.1088,-4.0987,-4.0941,-4.0996,-4.0935,-4.0898,-4.0888,-3.9979,-3.9881,-4.0694,-3.9837,-3.987,-4.08,-4.0725,-4.0723,-4.0742,-3.9002,-3.8683,-3.9432,-3.8447,-3.7902,-3.7826,-3.9161,-3.8961,-3.7889,-3.8535,-3.8664,-3.8601,-3.9388,-3.9534,-3.9497,-4.0923,-4.125,-4.1217,-4.1896,-4.2055,-4.1987,-4.2079,-4.2055,-4.1962,-4.1841,-4.1498,-4.1192,-4.1209,-4.1041,-4.0888,-4.0888,-4.1041,-4.1255,-4.1391,-4.1587,-4.1841,-4.1962,-4.2005,-4.2005,-4.2005,-4.2005,-4.2005,-4.2005,-4.1902,-4.2105,-4.2996,-4.2979,-4.2935,-4.3103,-4.3103,-4.3085,-4.3085,-4.243,-4.2324,-4.305,-4.3085,-4.3076,-4.2978,-4.2996,-4.2457,-4.1443,-4.1515,-4.1515,-4.138,-4.138,-4.138,-4.1478,-4.2999,-4.4278,2.0651,2.167,2.1903,2.1043,1.8122,1.5029,1.3372,0.0,0.5668,0.4257,0.2226,0.0218,-0.1411,-0.375,0.0,0.0,0.0,0.0,0.0,0.0,0.0,-3.2848,-3.6472,-3.9219,-4.0018,-4.067,-4.1031,-4.1031,-4.1025,-4.1033,-4.0999,-4.0968,-4.0945,-4.0907,-3.9406,-3.9035,-3.994,-3.8485,-3.8216,-3.9092,-3.9121,-3.9151,-3.9149,-3.8597,-3.8763,-3.948,-3.9108,-3.927,-3.9822,-3.9774,-3.9596,-3.927,-3.9017,-3.8862,-3.8939,-4.0194,-4.0211,-3.9862,-4.1759,-4.1969,-4.1548,-4.2177,-4.2364,-4.2234,-4.1604,-4.1671,-4.1962,-4.1841,-4.1604,-4.1318,-4.1318,-4.1226,-4.1134,-4.1134,-4.1318,-4.1498,-4.1631,-4.1849,-4.2037,-4.2037,-4.2583,-4.2839,-4.2186,-4.301,-4.3408,-4.2239,-4.2498,-4.2686,-4.2395,-4.2827,-4.319,-4.3233,-4.3312,-4.3056,-4.2273,-4.2546,-4.2829,-4.3005,-4.3589,-4.3872,-4.3737,-4.3737,-4.3276,-4.223,-4.2258,-4.195,-4.1255,-4.138,-4.1733,-4.2422,-4.3004,-4.4047,0.0,1.8017,1.839,1.746,1.4902,0.0,0.0,0.0,0.2847,0.0722,-0.1717,-0.402,-0.5788,0.0,0.0,0.0,0.0,0.0,0.0,0.0,0.0,-3.319,0.0,0.0,-4.0098,-4.0695,-4.1081,-4.105,-4.1056,-4.1045,-4.0999,-4.0692,-4.0477,-4.0413,-3.9314,-3.8858,-3.9141,-3.8055,-3.7783,-3.8343,-3.8391,-3.8563,-3.8887,-3.8544,-3.9004,-3.9995,-3.9576,-3.9669,0.0,-3.9928,-3.9659,-3.9331,-3.9099,-3.9007,-3.9095,-4.057,-4.0632,-4.0263,-4.1887,-4.2246,-4.1931,-4.1683,-4.1805,-4.2002,-4.1707,-4.1652,-4.1605,-4.1442,-4.1464,-4.1471,-4.1426,-4.1318,-4.1318,-4.1363,-4.156,-4.1797,-4.1909,-4.2037,-4.2205,-4.2205,-4.2905,-4.3298,-4.2739,-4.3786,-4.4285,-4.322,-4.3487,-4.3754,-4.3446,-4.3924,-4.4252,-4.4252,-4.4314,-4.3843,-4.2483,-4.264,-4.3013,-4.3589,-4.3846,-4.4077,-4.4163,-4.3943,-4.3419,-4.2689,-4.25,-4.2191,-4.1782,-4.1638,-4.2035,-4.2926,-4.3377,-4.4218,0.0,0.0,0.0,0.0,0.0,0.0,0.0,0.0,0.0,0.0,0.0,0.0,0.0,0.0,0.0,0.0,0.0,0.0,0.0,-2.7855,0.0,0.0,-3.6562,-3.8493,-3.8509,-4.0014,-4.1011,-4.1007,-4.0998,-4.0974,-4.0898,-4.0132,-3.961,-3.9431,-3.9431,-3.9062,-3.8305,-3.8179,-3.8166,-3.8213,-3.821,-3.8634,-3.939,-3.8704,-3.9244,-4.0682,-3.9859,-3.9355,-3.9164,-3.9683,-3.9321,-3.8456,-3.8943,-3.911,-3.9227,-4.0546,-4.0854,-4.0725,-4.147,-4.2026,-4.2196,-4.0697,-4.0659,-4.1378,-4.2163,-4.1787,-4.1073,-4.0931,-4.1216,-4.1604,-4.1471,-4.1426,-4.1471,-4.1604,-4.1797,-4.203,-4.2079,-4.2205,-4.2328,-4.2328,-4.2983,-4.3572,-4.3518,-4.4306,-4.4825,-4.4668,-4.4711,-4.504,-4.5668,-4.5731,-4.5713,-4.5731,-4.5731,-4.508,-4.3533,-4.2834,-4.3072,-4.4535,-4.4018,-4.3914,-4.4414,-4.3801,-4.327,-4.2871,-4.2308,-4.2273,-4.2738,-4.2132,-4.2194,-4.2855,-4.3801,-4.4715,0.3691,0.0,0.8706,0.5986,0.4046,0.2211,0.0,0.0,0.0,0.0,0.0,0.0,0.0,0.0,0.0,0.0,0.0,0.0,-2.7492,0.0,0.0,-3.6869,-3.8478,-3.8901,-3.7654,-3.9097,-4.0076,-4.0039,-4.063,-4.0694,-3.9963,-3.9777,-3.9088,-3.7734,-3.7692,-3.7611,-3.7417,-3.674,-3.6414,-3.6481,-3.6441,-3.6526,-3.676,-3.7828,-3.8549,-3.8966,-3.9959,-4.0331,-4.0231,-4.01,-3.9804,-3.9452,-3.9352,-3.9556,-3.996,-4.0185,-4.051,-4.0915,-4.1596,-4.1488,-4.1016,-4.1194,-4.0903,-4.0612,-4.136,-4.1779,-4.1979,-4.1837,-4.175,-4.178,-4.1858,-4.1797,-4.1736,-4.1858,-4.2012,-4.2079,-4.2103,-4.2305,-4.2445,-4.2445,-4.3655,-4.445,-4.384,-4.4941,-4.5659,-4.4988,-4.4856,-4.4868,-4.515,-4.4997,-4.4936,-4.504,-4.504,-4.4897,-4.4478,-4.4221,-4.4232,-4.4668,-4.5035,-4.54,-4.5728,-4.54,-4.4609,-4.3373,-4.248,-4.2051,-4.2184,-4.2083,-4.2126,-4.2303,-4.3315,-4.4143,-0.2298,-0.0052,0.1923,-0.0206,-0.2361,-0.439,0.0,0.0,0.0,0.0,0.0,0.0,0.0,0.0,0.0,0.0,-2.4561,0.0,0.0,0.0,-3.6056,-3.7617,-3.8233,-3.8517,-3.8409,-3.8883,-3.9193,-3.9156,-3.9558,-3.956,-3.8986,-3.8663,-3.8069,-3.7084,-3.6712,-3.6522,-3.6545,-3.6078,-3.5859,-3.5897,-3.5818,-3.6005,-3.6443,-3.7724,-3.8489,-3.888,-4.0075,-4.0545,-4.0392,-4.012,-3.9901,-3.9719,-3.9464,-3.9498,-3.974,-3.9909,-4.0093,-4.0419,-4.1121,-4.098,-4.0655,-4.1812,-4.1574,-4.1013,-4.1785,-4.2189,-4.2338,-4.1736,-4.1771,-4.1952,-4.2005,-4.1662,-4.1467,-4.1924,-4.1855,-4.1759,-4.2175,-4.2427,-4.2566,-4.2566,-4.3863,-4.4857,-4.4425,-4.5708,-4.6625,-4.6108,-4.6036,-4.6018,-4.5993,-4.5584,-4.5265,-4.5351,-4.4986,-4.4711,-4.4796,-4.4389,-4.4335,-4.4814,-4.4527,-4.4527,-4.4988,-4.4563,-4.4133,-4.365,-4.303,-4.269,-4.269,-4.2299,-4.2103,-4.2121,-4.3447,-4.43,-0.6923,-0.6489,-0.5843,-0.5605,-0.7709,-1.0116,0.0,0.0,0.0,0.0,0.0,0.0,0.0,0.0,0.0,0.0,0.0,0.0,-3.3146,-3.4821,-3.6241,-3.7246,-3.739,-3.7878,-3.9091,-3.8644,-3.8299,-3.8299,-3.8342,-3.8267,-3.8012,-3.7414,-3.6995,-3.6813,-3.6142,-3.5834,-3.5878,-3.5885,-3.5879,-3.5885,-3.5818,-3.6176,-3.6906,-3.7725,-3.8507,-3.9271,-4.001,-4.0274,-4.0214,-4.0019,-3.9848,-3.967,-3.9427,-3.9293,-3.9305,-3.962,-3.9676,-3.9714,-4.0304,-4.04,-4.051,-4.2194,-4.2029,-4.1394,-4.2314,-4.2508,-4.2207,-4.1301,-4.1535,-4.2121,-4.2072,-4.1576,-4.1203,-4.1985,-4.177,-4.1546,-4.2342,-4.2588,-4.2649,-4.2649,-4.3836,-4.4844,-4.4844,-4.6134,-4.7108,-4.6952,-4.7039,-4.7065,-4.6908,-4.6273,-4.5817,-4.586,-4.5255,-4.4879,-4.4856,-4.4271,-4.4168,-4.4867,-4.3584,-4.3037,-4.3619,-4.3131,-4.312,-4.3638,-4.3619,-4.3549,-4.3549,-4.2912,-4.2543,-4.2578,-4.4,-4.4711,-0.9323,-1.3649,-1.6916,-1.1959,-1.2959,-1.5428,0.0,0.0,0.0,0.0,0.0,0.0,0.0,-2.4067,-2.4675,0.0,0.0,-3.373,0.0,0.0,-3.8738,-3.8188,-3.8229,-3.783,-3.6621,-3.6988,-3.7318,-3.7304,-3.7944,-3.7958,-3.7138,-3.7054,-3.6668,-3.5911,-3.5824,-3.581,-3.5811,-3.5818,-3.5823,-3.5807,-3.576,-3.5793,-3.5939,-3.6745,-3.758,-3.844,-3.9218,-3.9854,-4.036,-4.0196,-3.996,-3.9693,-3.9526,-3.9701,-3.9952,-3.9298,-3.9276,-3.9589,-3.9583,-3.9568,-3.9822,-4.1397,-4.0818,-3.9824,-4.1191,-4.1564,-4.1429,-4.1145,-4.1581,-4.2163,-4.2364,-4.2274,-4.2144,-4.2454,-4.2519,-4.2562,-4.2591,-4.2709,-4.2824,-4.2783,-4.3544,-4.4237,-4.4237,-4.5015,-4.5631,-4.559,-4.5467,-4.5402,-4.5503,-4.521,-4.5036,-4.5138,-4.569,-4.5768,-4.5124,-4.516,-4.4989,-4.4427,-4.392,-4.3692,-4.3862,-4.3987,-4.3699,-4.3043,-4.3577,-4.3858,-4.3895,-4.4453,-4.4682,-4.454,-4.488,-4.4946,-1.1924,-1.5586,-1.9046,-1.8303,-2.0607,-2.3144,0.0,0.0,0.0,0.0,0.0,0.0,0.0,0.0,-2.8521,-3.3111,0.0,-3.3641,-3.6875,-3.7055,-3.7211,-3.8234,-3.7605,-3.7155,-3.7294,-3.6761,-3.6402,-3.6398,-3.6705,-3.6696,-3.6211,-3.6258,-3.6115,-3.5707,-3.5776,-3.581,-3.5845,-3.581,-3.5799,-3.5794,-3.5763,-3.5745,-3.5771,-3.658,-3.7394,-3.8196,-3.8917,-3.9676,-4.0379,-4.0177,-3.9958,-3.9758,-3.9575,-3.9522,-3.9497,-3.8872,-3.9054,-3.9637,-3.9506,-3.9728,-4.02,-4.0926,-4.0582,-4.0113,-4.1214,-4.1499,-4.153,-4.1905,-4.2181,-4.2346,-4.2463,-4.2163,-4.1952,-4.2559,-4.2441,-4.2318,-4.2752,-4.2956,-4.305,-4.3031,-4.3685,-4.4267,-4.4229,-4.4823,-4.5291,-4.5192,-4.5147,-4.5124,-4.5147,-4.4705,-4.4574,-4.5047,-4.4615,-4.4548,-4.5156,-4.4473,-4.4136,-4.4325,-4.3754,-4.3661,-4.4136,-4.3849,-4.3668,-4.3704,-4.3536,-4.3896,-4.4686,-4.461,-4.4435,-4.4235,-4.4725,-4.4647,-1.4035,-1.6794,-2.006,-2.2815,-2.5705,0.0,0.0,0.0,0.0,0.0,0.0,0.0,0.0,-2.9234,0.0,-3.5744,-3.4524,-3.4112,-3.6989,-3.6258,-3.6156,-3.8176,-3.7105,-3.6716,-3.8038,-3.6735,-3.5788,-3.5773,-3.5718,-3.5648,-3.5596,-3.5637,-3.5679,-3.5707,-3.5766,-3.5818,-3.5884,-3.5838,-3.5907,-3.6087,-3.6093,-3.6202,-3.6406,-3.6813,-3.7502,-3.8421,-3.8708,-3.9435,-4.036,-3.9909,-3.965,-3.9542,-3.9317,-3.9104,-3.8921,-3.859,-3.888,-3.9429,-3.9467,-3.9779,-4.0179,-4.0525,-4.031,-4.0094,-4.1107,-4.1215,-4.1176,-4.2008,-4.2127,-4.2139,-4.2516,-4.216,-4.1951,-4.2698,-4.234,-4.1978,-4.2686,-4.2723,-4.2668,-4.2868,-4.3251,-4.3633,-4.3978,-4.4282,-4.4512,-4.4574,-4.4606,-4.4624,-4.457,-4.4227,-4.4227,-4.4841,-4.3917,-4.3779,-4.4968,-4.379,-4.3376,-4.4382,-4.3816,-4.3615,-4.409,-4.3688,-4.3707,-4.4163,-4.3707,-4.4105,-4.5428,-4.491,-4.4516,-4.4335,-4.4863,-4.4629,-1.5271,-1.9615,-2.3901,-2.3807,-2.4492,0.0,-2.9718,-2.9115,0.0,-2.938,0.0,0.0,0.0,-3.2117,-3.3199,-3.2444,-3.48,-3.7099,-3.8163,-3.8195,-3.8202,-3.8452,-3.7668,-3.7124,-3.7187,-3.6343,-3.5766,-3.5698,-3.5648,-3.5615,-3.5601,-3.5596,-3.5648,-3.5707,-3.5775,-3.5799,-3.5799,-3.5799,-3.6207,-3.7003,-3.7005,-3.7395,-3.8081,-3.7345,-3.7851,-3.9262,-3.8445,-3.8965,-4.0321,-3.9299,-3.8878,-3.8835,-3.8512,-3.8592,-3.8881,-3.875,-3.8645,-3.8661,-3.9267,-3.9052,-3.8692,-4.0074,-3.9479,-3.8487,-4.0041,-3.995,-3.9463,-4.0347,-4.0601,-4.0999,-4.2464,-4.2846,-4.2865,-4.3123,-4.2541,-4.1976,-4.2014,-4.1396,-4.1087,-4.1832,-4.1433,-4.1433,-4.2941,-4.2614,-4.2359,-4.2955,-4.3023,-4.2964,-4.2964,-4.3559,-4.401,-4.4065,-4.4823,-4.5067,-4.4526,-4.3762,-4.3706,-4.4547,-4.44,-4.3999,-4.3324,-4.4108,-4.4251,-4.3589,-4.4198,-4.4894,-4.5753,-4.6254,-4.6481,-4.6481,-4.6295,-4.5335,-1.5945,-1.9764,-2.3738,-2.5118,-2.6171,0.0,0.0,-3.2109,-3.155,-3.1239,-3.2257,0.0,0.0,0.0,-3.4681,-3.3671,-3.5118,-3.667,-3.7525,-3.7662,-3.7857,-3.8375,-3.7663,-3.7124,-3.7102,-3.6267,-3.5728,-3.5699,-3.5629,-3.5596,-3.5601,-3.5648,-3.5649,-3.5648,-3.5736,-3.5799,-3.5795,-3.5799,-3.6262,-3.7155,-3.6565,-3.6733,-3.7529,-3.6648,-3.7422,-3.9405,-3.8439,-3.8916,-4.0372,-3.987,-3.9564,-3.9372,-3.8952,-3.8923,-3.9064,-3.8851,-3.8732,-3.8738,-3.8944,-3.8739,-3.8492,-3.9046,-3.8728,-3.8407,-3.9443,-3.9552,-3.9445,-4.0167,-4.0492,-4.0726,-4.1325,-4.1887,-4.2395,-4.2521,-4.2337,-4.2152,-4.2134,-4.1512,-4.1037,-4.133,-4.1147,-4.1241,-4.2249,-4.2123,-4.2123,-4.2811,-4.2862,-4.288,-4.2992,-4.3284,-4.3685,-4.4193,-4.4672,-4.4601,-4.3743,-4.3487,-4.3468,-4.3707,-4.3743,-4.409,-4.4858,-4.4181,-4.4162,-4.4984,-4.4711,-4.5242,-4.6559,-4.6187,-4.596,-4.582,-4.5698,-4.471,-1.7785,-2.1078,-2.4638,-2.6506,0.0,0.0,-3.3439,-3.3668,-3.3168,-3.3477,-3.4092,-3.4392,-3.3784,0.0,0.0,-3.4256,-3.5353,-3.642,-3.674,-3.6791,-3.6985,-3.7546,-3.7072,-3.6681,-3.6689,-3.6095,-3.5699,-3.5669,-3.5629,-3.5596,-3.5601,-3.5658,-3.5679,-3.5639,-3.5745,-3.5795,-3.5803,-3.5823,-3.628,-3.7183,-3.6526,-3.667,-3.7486,-3.6617,-3.7414,-3.9441,-3.8473,-3.8941,-4.0403,-3.9999,-3.9661,-3.9343,-3.8983,-3.8987,-3.9129,-3.8921,-3.8822,-3.8822,-3.867,-3.8609,-3.8559,-3.8401,-3.8354,-3.8419,-3.9186,-3.9206,-3.917,-3.9913,-4.0055,-3.9993,-3.9956,-4.0792,-4.177,-4.2148,-4.1837,-4.1544,-4.1864,-4.1042,-4.0349,-4.0624,-4.0492,-4.0646,-4.1862,-4.181,-4.1922,-4.2849,-4.2995,-4.3013,-4.3123,-4.3397,-4.3816,-4.44,-4.451,-4.4181,-4.3287,-4.3286,-4.3305,-4.3196,-4.3305,-4.3905,-4.5058,-4.3943,-4.387,-4.5095,-4.4528,-4.4894,-4.6192,-4.5512,-4.5124,-4.4986,-4.5373,-4.4511,-2.0884,-2.4151,-2.7431,0.0,0.0,0.0,-3.4589,-3.3289,-3.2421,-3.6294,-3.5703,-3.453,-3.4677,-3.464,-3.4315,-3.3443,-3.549,-3.6887,-3.6014,-3.5903,-3.5903,-3.5911,-3.584,-3.5795,-3.5803,-3.5737,-3.5679,-3.5612,-3.5596,-3.5596,-3.5601,-3.5657,-3.5698,-3.5708,-3.5752,-3.5803,-3.5803,-3.5866,-3.6331,-3.7181,-3.7131,-3.7568,-3.8373,-3.7501,-3.7986,-3.9463,-3.8517,-3.9031,-4.0431,-3.9487,-3.8861,-3.8515,-3.8371,-3.8633,-3.9073,-3.895,-3.891,-3.8862,-3.8603,-3.859,-3.8676,-3.8405,-3.8307,-3.8452,-3.9168,-3.8826,-3.8389,-3.9254,-3.8955,-3.8415,-3.8478,-3.968,-4.1123,-4.2147,-4.1056,-4.0042,-4.091,-3.9662,-3.867,-3.9593,-3.9095,-3.9296,-4.1766,-4.1492,-4.1439,-4.2959,-4.3214,-4.3214,-4.3196,-4.3907,-4.4455,-4.4602,-4.4455,-4.409,-4.3269,-4.3196,-4.3178,-4.3104,-4.3287,-4.3394,-4.3394,-4.3481,-4.3481,-4.3412,-4.3412,-4.3743,-4.44,-4.4343,-4.4324,-4.434,-4.5703,-4.5039,-2.0577,-2.4761,0.0,-2.8194,0.0,0.0,0.0,-3.3812,0.0,0.0,-3.522,-3.3758,-3.4558,-3.5073,-3.4936,-3.3589,-3.5013,-3.6207,-3.5947,-3.5894,-3.5889,-3.584,-3.5813,-3.5784,-3.5727,-3.5718,-3.5658,-3.5615,-3.5646,-3.5646,-3.5596,-3.5708,-3.5718,-3.5629,-3.5747,-3.5799,-3.5791,-3.582,-3.5988,-3.628,-3.6902,-3.7916,-3.9286,-3.8399,-3.8928,-4.0438,-3.9491,-3.9683,-4.0593,-4.0034,-3.968,-3.947,-3.9194,-3.9119,-3.9156,-3.9007,-3.891,-3.8822,-3.8743,-3.8701,-3.8658,-3.8496,-3.8446,-3.8469,-3.8642,-3.8536,-3.8391,-3.8598,-3.8569,-3.8478,-3.8446,-3.8894,-3.9575,-4.0446,-4.0249,-3.9942,-4.0194,-3.9392,-3.8651,-3.8839,-3.9232,-3.9855,-4.104,-4.1567,-4.2168,-4.3121,-4.3322,-4.3376,-4.341,-4.3629,-4.3776,-4.383,-4.3776,-4.3684,-4.3446,-4.341,-4.3393,-4.3393,-4.3428,-4.3703,-4.4217,-4.3722,-4.3978,-4.515,-4.4565,-4.4656,-4.5462,-4.4821,-4.4802,-4.5369,-4.5672,-4.5142,-2.4007,-2.7448,0.0,-3.0888,-3.2907,-3.4803,-3.4724,0.0,0.0,0.0,-3.5607,-3.4691,-3.4706,-3.529,-3.5364,-3.4117,-3.5037,-3.5788,-3.5435,-3.5388,-3.524,-3.4846,-3.478,-3.4738,-3.472,-3.471,-3.4816,-3.5052,-3.5121,-3.5276,-3.5562,-3.5637,-3.5658,-3.5607,-3.5699,-3.5782,-3.5799,-3.582,-3.6033,-3.6426,-3.6916,-3.7884,-3.9201,-3.8646,-3.9131,-4.0373,-4.0095,-4.0236,-4.064,-4.0285,-4.006,-3.9892,-3.9526,-3.9343,-3.9256,-3.9036,-3.8939,-3.8881,-3.8792,-3.875,-3.8719,-3.851,-3.8478,-3.8478,-3.8368,-3.8336,-3.8354,-3.8274,-3.8354,-3.8446,-3.8415,-3.8559,-3.8952,-3.9761,-3.9675,-3.9515,-3.9871,-3.9289,-3.8676,-3.8609,-3.93,-4.0125,-4.0781,-4.1672,-4.2546,-4.3281,-4.341,-4.3428,-4.3479,-4.3497,-4.3608,-4.3938,-4.3664,-4.3591,-4.3956,-4.3886,-4.3886,-4.394,-4.3975,-4.4178,-4.4583,-4.3851,-4.3904,-4.4821,-4.4309,-4.4309,-4.4784,-4.4273,-4.4254,-4.4766,-4.5349,-4.5001,-2.9038,0.0,0.0,0.0,-3.4795,0.0,-3.5657,-3.6293,-3.652,-3.5938,0.0,-3.6515,-3.498,-3.5283,-3.5516,-3.4703,-3.5209,-3.5393,-3.458,-3.4475,-3.4191,-3.3378,-3.3235,-3.3211,-3.318,-3.3248,-3.3576,-3.4229,-3.4349,-3.4704,-3.5445,-3.5502,-3.5531,-3.5607,-3.5659,-3.5745,-3.5799,-3.5872,-3.6303,-3.7078,-3.7099,-3.7553,-3.8363,-3.8381,-3.8829,-3.9636,-4.0382,-4.0655,-4.0559,-4.0302,-4.01,-3.9954,-3.9551,-3.9388,-3.932,-3.9026,-3.8921,-3.895,-3.878,-3.875,-3.8762,-3.8528,-3.8478,-3.8478,-3.8289,-3.8274,-3.8307,-3.8259,-3.8322,-3.8433,-3.8433,-3.8621,-3.8976,-3.9694,-3.9265,-3.8921,-3.9712,-3.9246,-3.8726,-3.8799,-3.946,-4.0267,-4.1075,-4.193,-4.2735,-4.3403,-4.3532,-4.3532,-4.3532,-4.3532,-4.3809,-4.4617,-4.3941,-4.3776,-4.4635,-4.4547,-4.451,-4.4656,-4.4673,-4.4691,-4.4638,-4.3903,-4.341,-4.3232,-4.3214,-4.3233,-4.325,-4.3178,-4.3269,-4.3597,-4.4929,-4.482,0.0,-2.9479,0.0,0.0,-3.439,-3.5452,-3.6179,-3.608,-3.5872,-3.5945,-3.5974,-3.574,-3.486,-3.4759,-3.4545,-3.3795,-3.3812,-3.3838,-3.3621,-3.3583,-3.3485,-3.3255,-3.3214,-3.3178,-3.3122,-3.3658,-3.4019,-3.4134,-3.4735,-3.5158,-3.5325,-3.5438,-3.5531,-3.5607,-3.5718,-3.5782,-3.5799,-3.5866,-3.5986,-3.6192,-3.6849,-3.7254,-3.742,-3.8033,-3.8792,-3.9644,-4.0382,-4.0629,-4.0504,-4.0286,-4.006,-3.9804,-3.9502,-3.9317,-3.9147,-3.9007,-3.895,-3.891,-3.8822,-3.8792,-3.8792,-3.8713,-3.8621,-3.851,-3.8621,-3.8559,-3.8496,-3.8564,-3.8596,-3.8627,-3.8627,-3.8689,-3.8775,-3.894,-3.8879,-3.8847,-3.9013,-3.886,-3.8891,-3.9515,-4.0286,-4.1111,-4.1882,-4.2724,-4.3364,-4.3563,-4.3582,-4.3582,-4.3582,-4.3582,-4.3913,-4.4777,-4.4149,-4.407,-4.4863,-4.4884,-4.4884,-4.4902,-4.4936,-4.4902,-4.4834,-4.4042,-4.3513,-4.3463,-4.3376,-4.3687,-4.4345,-4.3651,-4.4345,-4.6231,-4.5315,-4.537,0.0,0.0,0.0,0.0,0.0,-3.5568,-3.6016,-3.5788,-3.5576,-3.5806,-3.5845,-3.5347,-3.3758,-3.4078,-3.4199,-3.2934,-3.3072,-3.3179,-3.2706,-3.2621,-3.2454,-3.1951,-3.1903,-3.1855,-3.1719,-3.2366,-3.2971,-3.334,-3.4066,-3.4716,-3.5277,-3.5369,-3.5457,-3.5607,-3.5698,-3.5773,-3.5845,-3.5859,-3.5872,-3.5917,-3.6356,-3.6761,-3.7141,-3.8373,-3.917,-3.9615,-3.9944,-4.0003,-3.9861,-3.9622,-3.941,-3.9252,-3.9389,-3.9362,-3.9248,-3.9092,-3.9007,-3.8939,-3.8881,-3.8851,-3.8851,-3.8762,-3.8701,-3.8652,-3.8621,-3.8541,-3.851,-3.8546,-3.8578,-3.8609,-3.8609,-3.8689,-3.875,-3.875,-3.875,-3.8872,-3.9271,-3.9332,-3.959,-4.0449,-4.1259,-4.194,-4.2378,-4.31,-4.3686,-4.3734,-4.3701,-4.3667,-4.3615,-4.3667,-4.3981,-4.4775,-4.4217,-4.4136,-4.4998,-4.5038,-4.5004,-4.5004,-4.5004,-4.4936,-4.4816,-4.4042,-4.3548,-4.3446,-4.3429,-4.3631,-4.4069,-4.4015,-4.4656,-4.5957,-4.5902,-4.6104,0.0,0.0,0.0,0.0,0.0,0.0,-3.5627,-3.5597,-3.5502,-3.5505,-3.5642,-3.5075,-3.2741,-3.3378,-3.3701,-3.2043,-3.2377,-3.255,-3.1751,-3.1629,-3.1361,-3.0567,-3.046,-3.0367,-3.0184,-3.0963,-3.1783,-3.2483,-3.3181,-3.409,-3.5223,-3.5166,-3.527,-3.5618,-3.5669,-3.5765,-3.5878,-3.5823,-3.583,-3.5905,-3.6047,-3.6463,-3.7163,-3.8693,-3.9452,-3.9567,-3.9282,-3.9171,-3.9176,-3.8899,-3.8722,-3.8669,-3.9263,-3.9476,-3.938,-3.9202,-3.9073,-3.9007,-3.895,-3.8939,-3.891,-3.878,-3.875,-3.8762,-3.851,-3.8478,-3.851,-3.8465,-3.851,-3.8541,-3.8541,-3.8683,-3.8859,-3.8988,-3.8983,-3.9136,-3.9872,-4.013,-4.0511,-4.1453,-4.2266,-4.282,-4.282,-4.3361,-4.3837,-4.3883,-4.3851,-4.3753,-4.3649,-4.3753,-4.4099,-4.4773,-4.4232,-4.4151,-4.5045,-4.502,-4.5004,-4.5004,-4.5004,-4.4936,-4.4744,-4.3989,-4.3532,-4.3411,-4.3394,-4.3449,-4.3631,-4.4272,-4.4784,-4.5203,-4.6361,-4.6746,0.0,0.0,0.0,0.0,0.0,-3.4866,0.0,0.0,-3.5701,0.0,-3.4812,-3.4549,-3.3437,-3.2803,-3.2095,-3.1055,-3.0923,-3.0874,-3.0627,-3.0606,-3.0532,-3.0349,-3.0279,-3.0184,-3.0042,-3.1381,-3.2253,-3.2241,-3.3091,-3.4053,-3.5066,-3.4639,-3.4759,-3.565,-3.5736,-3.5799,-3.5811,-3.5803,-3.5838,-3.5905,-3.667,-3.7085,-3.7215,-3.8077,-3.885,-3.9456,-3.8569,-3.8556,-3.9176,-3.8899,-3.8764,-3.8759,-3.9303,-3.9502,-3.9452,-3.9264,-3.9183,-3.9175,-3.9036,-3.8997,-3.8979,-3.891,-3.8792,-3.8719,-3.8732,-3.8634,-3.851,-3.8627,-3.8701,-3.8762,-3.8689,-3.8762,-3.9047,-3.9688,-3.9884,-3.9933,-4.0074,-4.0683,-4.1471,-4.236,-4.3175,-4.3717,-4.3638,-4.373,-4.3837,-4.3883,-4.3851,-4.3818,-4.3865,-4.3883,-4.4179,-4.4975,-4.4346,-4.4198,-4.5027,-4.502,-4.5004,-4.5004,-4.5004,-4.497,-4.4886,-4.4042,-4.3548,-4.3497,-4.3411,-4.3759,-4.4526,-4.4583,-4.5425,-4.6948,-4.6469,-4.6947,-2.403,0.0,0.0,0.0,0.0,-3.3809,-3.5266,0.0,-3.5612,-3.5295,-3.49,-3.4234,-3.2929,-3.2731,-3.2279,-3.0782,-3.0477,-3.0362,-3.0151,-3.0117,-3.008,-2.9996,-2.9943,-3.0035,-3.0356,-3.1035,-3.16,-3.2009,-3.2466,-3.326,-3.4426,-3.4301,-3.4665,-3.566,-3.5727,-3.5754,-3.5807,-3.5754,-3.5799,-3.5918,-3.6774,-3.7461,-3.7923,-3.7727,-3.8054,-3.8717,-3.7713,-3.7435,-3.7766,-3.7985,-3.802,-3.8073,-3.9184,-3.9575,-3.9502,-3.9401,-3.9343,-3.9301,-3.9175,-3.912,-3.9073,-3.8979,-3.891,-3.8851,-3.8851,-3.8803,-3.8743,-3.8792,-3.8822,-3.8944,-3.9374,-3.9515,-3.9778,-4.0597,-4.1176,-4.157,-4.157,-4.1866,-4.2397,-4.3256,-4.3701,-4.3961,-4.3929,-4.3897,-4.3929,-4.3942,-4.3929,-4.3897,-4.3897,-4.3929,-4.409,-4.4397,-4.4133,-4.409,-4.4443,-4.4466,-4.4402,-4.4321,-4.434,-4.4254,-4.4118,-4.375,-4.3566,-4.3548,-4.3497,-4.3646,-4.403,-4.4966,-4.5864,-4.6635,-4.7241,-4.7886,0.0,0.0,0.0,0.0,0.0,0.0,0.0,0.0,-3.5287,-3.5394,-3.4976,-3.4179,-3.2904,-3.2956,-3.2656,-3.0954,-3.0587,-3.0352,-2.9918,-2.9817,-2.9808,-2.9889,-2.972,-2.9851,-3.0485,-3.0607,-3.1024,-3.1843,-3.2088,-3.284,-3.427,-3.4301,-3.4698,-3.567,-3.5679,-3.5708,-3.5745,-3.5728,-3.5899,-3.6236,-3.7116,-3.7999,-3.8811,-3.8085,-3.8039,-3.8479,-3.7019,-3.6594,-3.6964,-3.7375,-3.7621,-3.7883,-3.9233,-3.9689,-3.9575,-3.9526,-3.9471,-3.9406,-3.9283,-3.9229,-3.9183,-3.9064,-3.9007,-3.8997,-3.8939,-3.891,-3.891,-3.891,-3.9087,-3.9412,-3.9974,-4.033,-4.073,-4.1582,-4.2291,-4.2804,-4.2996,-4.3033,-4.3219,-4.3875,-4.4005,-4.4005,-4.4005,-4.4005,-4.4005,-4.4005,-4.4005,-4.3974,-4.3929,-4.3942,-4.3961,-4.3915,-4.3878,-4.391,-4.3961,-4.391,-4.3865,-4.3804,-4.3804,-4.3719,-4.3566,-4.3566,-4.36,-4.3667,-4.36,-4.3566,-4.3566,-4.5272,-4.6153,-4.6172,-4.7848,-4.8678,0.0,0.0,0.0,0.0,0.0,0.0,0.0,0.0,-3.4576,-3.4632,-3.4581,-3.4452,-3.4236,-3.3478,-3.2601,-3.159,-3.1236,-3.0736,-2.9847,-2.9551,-2.9678,-3.0392,-2.9797,-2.9545,-3.0087,-3.0431,-3.0958,-3.1821,-3.226,-3.3318,-3.5224,-3.4726,-3.4797,-3.567,-3.5639,-3.5618,-3.5618,-3.5728,-3.6234,-3.7131,-3.8024,-3.8887,-3.9727,-3.961,-3.9551,-3.9383,-3.6714,-3.6444,-3.782,-3.7714,-3.8099,-3.88,-3.9589,-3.9845,-3.9758,-3.9575,-3.9502,-3.9477,-3.9406,-3.9301,-3.9183,-3.9129,-3.9045,-3.8997,-3.8939,-3.891,-3.891,-3.891,-3.96,-4.0298,-4.0222,-4.0942,-4.1904,-4.2638,-4.292,-4.3144,-4.3794,-4.3931,-4.3949,-4.3986,-4.4005,-4.4005,-4.4005,-4.4005,-4.4005,-4.4005,-4.4005,-4.4005,-4.4005,-4.3961,-4.3897,-4.3897,-4.3716,-4.3667,-4.3804,-4.3701,-4.3667,-4.3804,-4.3804,-4.3804,-4.3771,-4.3771,-4.3804,-4.3804,-4.3804,-4.3771,-4.3771,-4.5411,-4.6221,-4.6342,-4.8009,-4.8804,0.0,0.0,0.0,0.0,-2.8524,-2.9908,-3.1384,-3.3334,-3.4734,-3.4464,-3.4836,-3.5117,-3.4867,-3.4076,-3.3154,-3.2172,-3.1787,-3.1424,-3.0884,-3.0806,-3.0623,-3.0186,-3.0393,-3.0601,-3.0665,-3.0515,-3.101,-3.2437,-3.2069,-3.2608,-3.4526,-3.4475,-3.4788,-3.562,-3.5596,-3.5604,-3.5604,-3.5679,-3.5926,-3.632,-3.7798,-3.8667,-3.8979,-3.9487,-3.9687,-3.9565,-3.7943,-3.7501,-3.7988,-3.8393,-3.8651,-3.8937,-3.9673,-3.9933,-3.9845,-3.9689,-3.9637,-3.9607,-3.9502,-3.9425,-3.938,-3.9301,-3.9293,-3.9239,-3.912,-3.9073,-3.9203,-3.977,-4.0198,-4.0691,-4.1725,-4.2267,-4.2772,-4.3602,-4.3837,-4.3911,-4.4151,-4.4177,-4.4177,-4.4177,-4.4165,-4.4135,-4.4195,-4.4085,-4.4036,-4.4104,-4.4055,-4.4005,-4.4005,-4.3974,-4.3961,-4.3897,-4.3878,-4.3846,-4.3851,-4.3865,-4.3846,-4.3851,-4.3818,-4.3804,-4.3804,-4.3719,-4.3734,-4.3851,-4.3851,-4.3851,-4.3804,-4.4942,-4.5771,-4.6323,-4.754,-4.8373,-1.994,0.0,0.0,0.0,0.0,-2.817,-3.0317,-3.2244,-3.3763,-3.4388,-3.475,-3.4968,-3.4945,-3.439,-3.362,-3.2694,-3.2091,-3.1626,-3.1371,-3.1132,-3.0874,-3.0559,-3.0867,-3.1111,-3.1214,-3.0563,-3.0894,-3.2785,-3.2165,-3.2541,-3.4462,-3.4646,-3.494,-3.5483,-3.5496,-3.5528,-3.5577,-3.5618,-3.6017,-3.6703,-3.7916,-3.8817,-3.9379,-3.963,-3.9889,-4.0077,-3.9072,-3.8549,-3.8469,-3.8898,-3.9163,-3.9395,-3.9889,-4.0017,-3.9911,-3.9823,-3.9731,-3.9674,-3.9552,-3.9502,-3.9495,-3.9418,-3.9391,-3.9373,-3.9301,-3.9461,-3.9778,-4.0383,-4.097,-4.167,-4.2763,-4.3278,-4.3643,-4.4242,-4.4373,-4.4373,-4.4373,-4.4344,-4.4285,-4.4285,-4.4255,-4.4244,-4.4255,-4.4165,-4.4085,-4.4135,-4.4055,-4.4005,-4.4005,-4.3974,-4.3961,-4.3897,-4.3929,-4.3929,-4.3897,-4.3961,-4.3961,-4.3929,-4.4175,-4.4309,-4.4309,-4.4225,-4.4369,-4.4744,-4.4503,-4.4471,-4.4716,-4.5268,-4.5838,-4.6394,-4.7556,-4.8389,0.0,0.0,0.0,0.0,0.0,0.0,-2.9512,0.0,-3.1566,-3.423,-3.4225,-3.3914,-3.4465,-3.4371,-3.3942,-3.3152,-3.2157,-3.1426,-3.1281,-3.0476,-3.0387,-3.1649,-3.1136,-3.0916,-3.1622,-3.0584,-3.0753,-3.2854,-3.2599,-3.3173,-3.5192,-3.5283,-3.5292,-3.5293,-3.5293,-3.5369,-3.5502,-3.5562,-3.6532,-3.8357,-3.8449,-3.939,-4.1037,-4.0207,-4.0253,-4.0929,-3.9956,-3.9475,-3.9336,-3.9262,-3.9614,-4.0215,-4.0196,-4.0119,-3.9996,-3.9933,-3.9823,-3.9689,-3.9551,-3.9514,-3.9495,-3.9444,-3.9418,-3.9418,-3.9436,-3.9952,-4.0568,-4.0643,-4.1875,-4.3166,-4.3222,-4.3877,-4.4515,-4.4515,-4.4515,-4.4515,-4.4515,-4.4401,-4.4314,-4.4314,-4.4314,-4.4285,-4.4214,-4.4214,-4.4165,-4.4036,-4.4005,-4.4005,-4.4005,-4.3961,-4.3897,-4.3897,-4.3851,-4.3818,-4.3897,-4.3897,-4.3929,-4.4005,-4.4804,-4.5305,-4.5287,-4.5324,-4.5695,-4.6475,-4.5732,-4.5714,-4.6494,-4.6494,-4.6513,-4.6568,-4.8166,-4.8909,-1.9828,0.0,0.0,0.0,0.0,0.0,-2.6231,-2.8927,-3.146,-3.1958,-3.3336,-3.4412,-3.4379,-3.4203,-3.3899,-3.3441,-3.314,-3.2931,-3.2799,-3.2589,-3.2216,-3.1711,-3.1884,-3.1859,-3.1379,-3.1278,-3.1808,-3.3193,-3.3116,-3.3583,-3.4865,-3.503,-3.5119,-3.5157,-3.5157,-3.5235,-3.5438,-3.5526,-3.6241,-3.7481,-3.8123,-3.9033,-4.0174,-4.0506,-4.0765,-4.0913,-4.0635,-4.0458,-4.0391,-4.027,-4.0265,-4.0341,-4.0288,-4.0215,-4.0118,-3.9954,-3.9889,-3.9823,-3.9689,-3.9637,-3.9645,-3.962,-3.9596,-3.9639,-4.0188,-4.0087,-4.0181,-4.204,-4.2406,-4.2529,-4.3802,-4.4318,-4.4515,-4.4515,-4.4515,-4.4515,-4.4515,-4.4487,-4.4458,-4.4458,-4.4401,-4.4383,-4.4401,-4.4344,-4.4285,-4.4296,-4.4226,-4.4135,-4.4135,-4.4055,-4.3942,-4.3915,-4.3929,-4.3929,-4.3897,-4.3942,-4.3974,-4.4005,-4.4721,-4.5203,-4.5305,-4.576,-4.6168,-4.6494,-4.6336,-4.635,-4.6573,-4.6573,-4.6871,-4.7467,-4.8595,-4.9113,-2.1034,-2.1595,-2.2184,-2.2214,0.0,0.0,-2.6505,-2.8651,-3.0826,-3.2418,-3.3624,-3.4302,-3.4099,-3.385,-3.3625,-3.3345,-3.3316,-3.3286,-3.3244,-3.2895,-3.2442,-3.1903,-3.2174,-3.2212,-3.1671,-3.1565,-3.2074,-3.3358,-3.3142,-3.3612,-3.5128,-3.5303,-3.5401,-3.5551,-3.5586,-3.5551,-3.5402,-3.59,-3.6647,-3.7642,-3.8525,-3.9435,-4.0345,-4.0422,-4.0622,-4.0921,-4.0537,-4.0529,-4.0826,-4.0732,-4.0593,-4.0473,-4.0375,-4.027,-4.0196,-4.0077,-3.9975,-3.9933,-3.9781,-3.9731,-3.9727,-3.9679,-3.99,-4.0252,-4.0697,-4.0966,-4.1436,-4.2961,-4.3216,-4.3284,-4.4334,-4.4578,-4.4578,-4.4578,-4.4578,-4.4597,-4.457,-4.4551,-4.4551,-4.4515,-4.4487,-4.4458,-4.4458,-4.4383,-4.4344,-4.4314,-4.4244,-4.4184,-4.4135,-4.4055,-4.3974,-4.3961,-4.3974,-4.3974,-4.3961,-4.4308,-4.4544,-4.4544,-4.5588,-4.6205,-4.629,-4.6702,-4.7058,-4.7497,-4.7262,-4.7308,-4.7708,-4.7341,-4.7602,-4.8404,-4.8973,-4.9197,-2.2418,-2.2289,-2.2265,-2.2694,-2.3,0.0,-2.8116,-2.8785,-2.9648,-3.3486,-3.3773,-3.3345,-3.3277,-3.3011,-3.278,-3.2755,-3.2737,-3.2809,-3.2979,-3.2264,-3.1812,-3.2196,-3.2108,-3.2073,-3.2144,-3.1652,-3.1902,-3.3317,-3.2948,-3.3506,-3.5529,-3.5627,-3.5757,-3.6024,-3.6122,-3.5942,-3.5532,-3.6447,-3.7461,-3.8541,-3.9334,-4.0188,-4.1075,-4.0227,-4.0278,-4.0957,-4.011,-4.0189,-4.0907,-4.0839,-4.0725,-4.0603,-4.0454,-4.0396,-4.0348,-4.033,-4.0251,-4.0129,-4.0022,-3.9902,-3.9823,-3.9802,-4.0349,-4.1038,-4.1132,-4.214,-4.3321,-4.3467,-4.407,-4.4712,-4.4712,-4.4712,-4.4712,-4.4712,-4.4712,-4.4685,-4.4605,-4.4659,-4.4659,-4.4542,-4.4515,-4.4487,-4.4411,-4.4411,-4.4373,-4.4244,-4.4214,-4.4165,-4.4067,-4.4036,-4.4036,-4.4036,-4.4036,-4.4073,-4.4166,-4.4798,-4.5231,-4.5417,-4.6773,-4.7608,-4.7701,-4.7794,-4.8166,-4.889,-4.8286,-4.8399,-4.9308,-4.8514,-4.852,-4.923,-4.923,-4.923,-2.3047,-2.2574,-2.2544,-2.2747,-2.3283,0.0,-2.4622,-2.598,-2.734,-2.8194,-2.9154,-3.0027,-3.0542,-3.0031,-2.9846,-3.0885,-3.1515,-3.2107,-3.289,-3.2598,-3.2364,-3.2438,-3.1984,-3.1765,-3.1948,-3.2091,-3.2376,-3.2903,-3.333,-3.3836,-3.4492,-3.4511,-3.4652,-3.4973,-3.5116,-3.5548,-3.6362,-3.6723,-3.7771,-3.9446,-3.9626,-4.0188,-4.1095,-4.0851,-4.0843,-4.0996,-4.0816,-4.079,-4.0907,-4.0888,-4.0804,-4.0675,-4.0526,-4.0825,-4.1301,-4.1208,-4.1148,-4.1128,-4.1104,-4.0606,-4.0068,-4.0748,-4.1048,-4.1272,-4.1865,-4.2257,-4.2629,-4.3303,-4.4121,-4.477,-4.477,-4.477,-4.4789,-4.4712,-4.4738,-4.4764,-4.4632,-4.4659,-4.4685,-4.4605,-4.4578,-4.4551,-4.4468,-4.4487,-4.4487,-4.4458,-4.4401,-4.4354,-4.4325,-4.4266,-4.4255,-4.4255,-4.4255,-4.4487,-4.5097,-4.4675,-4.4954,-4.6178,-4.655,-4.7014,-4.7664,-4.8314,-4.8742,-4.8909,-4.893,-4.9043,-4.9308,-4.9139,-4.9158,-4.9427,-4.9427,-4.9377,-2.362,-2.3032,-2.296,-2.3074,-2.354,0.0,0.0,-2.5889,-2.6901,-2.7772,-2.8695,-2.9453,-2.9784,-2.9674,-2.9743,-3.0345,-3.1342,-3.198,-3.1729,-3.261,-3.3064,-3.2491,-3.2214,-3.2249,-3.2668,-3.2966,-3.3318,-3.3736,-3.4055,-3.4385,-3.4678,-3.4747,-3.5088,-3.5866,-3.5642,-3.5836,-3.6543,-3.7186,-3.8012,-3.9069,-3.9929,-4.0609,-4.1103,-4.1039,-4.0999,-4.0996,-4.0991,-4.0954,-4.0927,-4.1383,-4.1236,-4.073,-4.0648,-4.1054,-4.1637,-4.1109,-4.115,-4.1437,-4.0959,-4.0747,-4.0783,-4.1218,-4.1901,-4.2617,-4.2993,-4.3369,-4.3786,-4.4083,-4.4543,-4.4895,-4.4895,-4.4895,-4.4895,-4.4846,-4.4889,-4.4846,-4.4738,-4.4745,-4.4745,-4.4632,-4.4632,-4.4605,-4.4515,-4.4515,-4.4487,-4.4458,-4.4411,-4.4383,-4.4354,-4.4314,-4.4285,-4.4285,-4.4285,-4.4453,-4.4804,-4.4841,-4.5363,-4.6531,-4.7015,-4.7611,-4.8412,-4.8841,-4.9046,-4.9046,-4.9098,-4.9164,-4.9244,-4.9244,-4.9308,-4.9409,-4.9409,-4.9358,-2.4212,-2.35,-2.3405,-2.3508,-2.3862,-2.4504,0.0,0.0,0.0,-2.7954,-2.8584,-2.8884,-2.8848,-2.926,-2.9614,-2.9656,-3.0879,-3.1444,-3.0368,-3.2201,-3.3226,-3.2068,-3.2489,-3.3,-3.3266,-3.3559,-3.4064,-3.4902,-3.4666,-3.4702,-3.5174,-3.5272,-3.5752,-3.6614,-3.6304,-3.6329,-3.6769,-3.7829,-3.8556,-3.8913,-4.0326,-4.1038,-4.111,-4.1032,-4.0991,-4.0996,-4.0991,-4.1042,-4.1199,-4.1898,-4.1829,-4.1272,-4.1042,-4.1321,-4.1736,-4.0957,-4.1082,-4.153,-4.0939,-4.1055,-4.1493,-4.1815,-4.2824,-4.3926,-4.4119,-4.4497,-4.4871,-4.4929,-4.501,-4.5014,-4.5033,-4.5057,-4.5014,-4.501,-4.4991,-4.4986,-4.4815,-4.4821,-4.484,-4.4632,-4.4632,-4.4632,-4.4515,-4.4515,-4.4487,-4.4411,-4.4411,-4.4383,-4.4344,-4.4344,-4.4344,-4.4344,-4.4344,-4.44,-4.4568,-4.5036,-4.5698,-4.6669,-4.7398,-4.8146,-4.8982,-4.9169,-4.9211,-4.9197,-4.915,-4.915,-4.9164,-4.9179,-4.9211,-4.9276,-4.9276,-4.9244,-2.493,-2.3891,-2.3794,-2.397,-2.4243,-2.4489,-2.4605,0.0,-2.4797,-2.4705,0.0,-2.5659,-2.5415,0.0,0.0,-2.7264,-2.8517,-2.9412,-2.9483,-3.0916,-3.1604,-3.0641,-3.2546,-3.3604,-3.2719,-3.2862,-3.3818,-3.5798,-3.4556,-3.4174,-3.5145,-3.5377,-3.5352,-3.507,-3.574,-3.6631,-3.7733,-3.8793,-3.981,-4.0715,-4.0914,-4.1032,-4.111,-4.1038,-4.0996,-4.0996,-4.0935,-4.1354,-4.2053,-4.2151,-4.2568,-4.3012,-4.2182,-4.1879,-4.187,-4.1697,-4.1651,-4.1773,-4.2445,-4.22,-4.1819,-4.3312,-4.3824,-4.4048,-4.4894,-4.462,-4.4192,-4.4938,-4.5125,-4.5103,-4.517,-4.517,-4.5148,-4.5033,-4.5057,-4.5014,-4.4764,-4.4745,-4.477,-4.4632,-4.4605,-4.4578,-4.4515,-4.4515,-4.4515,-4.4487,-4.4487,-4.4487,-4.4487,-4.4487,-4.4487,-4.4487,-4.4487,-4.4787,-4.5471,-4.4974,-4.5275,-4.6794,-4.6982,-4.7414,-4.8295,-4.9008,-4.9321,-4.9179,-4.9244,-4.923,-4.9101,-4.9164,-4.9211,-4.9211,-4.9211,-4.9164,-2.5058,-2.5069,-2.5562,-2.4719,-2.5292,-2.5812,-2.4858,-2.4596,-2.4498,-2.4358,0.0,0.0,0.0,0.0,0.0,0.0,-2.8973,-2.9597,-2.8816,-3.0681,-3.1621,-3.0321,-3.1225,-3.2348,-3.3339,-3.4809,-3.5906,-3.6463,-3.5846,-3.5533,-3.5661,-3.5988,-3.6409,-3.6858,-3.6996,-3.7519,-3.8593,-3.9199,-3.9752,-4.026,-4.0758,-4.1032,-4.111,-4.103,-4.0996,-4.0996,-4.0926,-4.1393,-4.2228,-4.2753,-4.2859,-4.2712,-4.2773,-4.2757,-4.2651,-4.2102,-4.2163,-4.2489,-4.2357,-4.2672,-4.3291,-4.448,-4.4824,-4.484,-4.5243,-4.5069,-4.4836,-4.518,-4.5254,-4.5213,-4.5235,-4.5192,-4.5281,-4.5754,-4.5845,-4.5798,-4.5653,-4.5628,-4.5426,-4.478,-4.5055,-4.5386,-4.5331,-4.5256,-4.5378,-4.5885,-4.596,-4.596,-4.596,-4.596,-4.596,-4.5998,-4.6027,-4.6158,-4.6525,-4.5838,-4.6064,-4.7654,-4.8248,-4.87,-4.9047,-4.9356,-4.9483,-4.9421,-4.9402,-4.9308,-4.915,-4.9197,-4.9146,-4.9012,-4.9116,-4.9083,-2.602,-2.6395,-2.7009,-2.5356,-2.5799,-2.6344,-2.5125,-2.4707,-2.4566,-2.4498,-2.541,0.0,0.0,0.0,-2.8236,-2.8108,0.0,-2.954,-2.837,-2.9902,-3.0718,-2.9593,-2.9973,-3.1222,-3.3455,-3.5307,-3.6376,-3.6402,-3.6435,-3.6417,-3.6369,-3.6776,-3.7349,-3.8086,-3.8042,-3.8391,-3.9131,-3.9612,-3.9917,-4.0077,-4.0933,-4.1383,-4.1435,-4.1622,-4.1587,-4.1365,-4.1537,-4.1966,-4.2617,-4.3238,-4.3267,-4.2975,-4.3555,-4.3598,-4.3189,-4.2092,-4.2143,-4.2733,-4.2356,-4.3256,-4.4668,-4.5208,-4.54,-4.54,-4.5419,-4.5592,-4.5763,-4.5723,-4.5723,-4.5723,-4.5703,-4.5428,-4.5366,-4.6015,-4.6145,-4.6134,-4.6269,-4.6038,-4.5679,-4.5179,-4.5561,-4.6043,-4.6223,-4.6186,-4.6318,-4.6957,-4.7051,-4.7022,-4.7051,-4.7051,-4.7061,-4.7146,-4.7155,-4.7211,-4.7292,-4.6762,-4.7027,-4.8418,-4.9098,-4.9504,-4.9731,-4.9721,-4.9663,-4.9623,-4.9525,-4.9402,-4.9244,-4.9244,-4.9179,-4.8978,-4.9049,-4.8996,-2.8427,-2.7685,-2.7472,-2.5727,-2.5274,-2.5224,-2.5034,-2.4896,-2.4719,-2.4476,-2.5059,-2.5541,-2.5278,-2.6563,-2.7567,-2.7362,-2.7965,0.0,0.0,-2.805,-2.793,-2.7771,-2.9167,-3.0776,-3.2477,-3.2859,-3.3651,-3.5319,-3.5508,-3.6037,-3.7198,-3.7581,-3.7617,-3.7343,-3.8327,-3.8965,-3.9182,-4.0236,-4.0828,-4.0976,-4.1836,-4.2252,-4.2291,-4.3128,-4.3062,-4.2299,-4.3071,-4.3433,-4.3471,-4.3491,-4.3976,-4.4715,-4.4753,-4.4189,-4.3186,-4.1482,-4.1357,-4.2164,-4.2963,-4.4268,-4.553,-4.5438,-4.54,-4.5419,-4.5476,-4.609,-4.6743,-4.6762,-4.6762,-4.6743,-4.6666,-4.6033,-4.538,-4.5337,-4.5335,-4.5521,-4.6159,-4.5539,-4.5079,-4.5892,-4.5976,-4.6158,-4.7013,-4.7145,-4.7164,-4.7183,-4.7146,-4.7118,-4.7202,-4.7183,-4.7211,-4.7292,-4.7352,-4.7429,-4.7479,-4.7485,-4.7821,-4.8732,-4.8731,-4.9083,-4.986,-4.9898,-4.9816,-4.9692,-4.9692,-4.9585,-4.9384,-4.9384,-4.9321,-4.9197,-4.9012,-4.8909,-3.0038,-3.0603,-3.0831,-2.7881,-2.8398,-2.8858,-2.5878,-2.5542,-2.5626,-2.4893,-2.5409,-2.5918,-2.5652,-2.6894,-2.7864,-2.7597,-2.8118,-2.8458,0.0,-2.8259,-2.8512,-2.9019,-3.0029,-3.0935,-3.156,-3.4058,-3.5649,-3.5667,-3.6753,-3.7435,-3.7512,-3.7924,-3.8313,-3.8552,-3.921,-3.9716,-4.0,-4.0533,-4.1139,-4.1807,-4.214,-4.2595,-4.3144,-4.2868,-4.2549,-4.2255,-4.2518,-4.2966,-4.3549,-4.4112,-4.452,-4.4792,-4.4752,-4.4198,-4.3391,-4.3388,-4.3559,-4.3911,-4.4718,-4.5327,-4.5719,-4.5668,-4.5599,-4.5528,-4.5545,-4.6179,-4.6756,-4.6161,-4.6413,-4.6722,-4.6127,-4.5707,-4.5553,-4.6088,-4.6162,-4.6307,-4.7118,-4.6972,-4.6616,-4.629,-4.7125,-4.7789,-4.7434,-4.8377,-4.9072,-4.8956,-4.89,-4.89,-4.8964,-4.8991,-4.9019,-4.9072,-4.9098,-4.915,-4.9226,-4.9176,-4.9036,-4.8808,-4.925,-4.9614,-4.9879,-4.9898,-4.9871,-4.9843,-4.9843,-4.9759,-4.9585,-4.9585,-4.9525,-4.9321,-4.9257,-4.9179,-3.1859,-3.2502,-3.266,-2.9746,-3.0242,-3.0521,-2.7019,-2.6587,-2.6745,-2.606,-2.5883,-2.6319,-2.7888,-2.7706,-2.7699,-2.8889,-2.8612,-2.8345,0.0,-2.8652,-2.8969,-2.9737,-3.0244,-3.0801,-3.1444,-3.3809,-3.546,-3.5832,-3.7126,-3.7891,-3.7826,-3.8409,-3.8895,-3.9268,-3.9671,-4.0043,-4.0361,-4.0629,-4.1241,-4.2189,-4.2555,-4.3011,-4.3566,-4.33,-4.3,-4.2674,-4.2994,-4.3442,-4.4015,-4.4569,-4.4802,-4.4792,-4.4752,-4.4383,-4.3927,-4.4159,-4.4428,-4.4812,-4.5621,-4.588,-4.5824,-4.581,-4.5746,-4.5665,-4.5665,-4.6282,-4.6841,-4.6265,-4.6519,-4.6846,-4.6254,-4.5799,-4.5707,-4.6532,-4.6665,-4.6929,-4.8056,-4.799,-4.756,-4.6999,-4.7715,-4.8243,-4.7667,-4.8732,-4.9733,-4.9887,-4.989,-4.9898,-4.9978,-4.9978,-5.0005,-5.0063,-5.0089,-5.0114,-5.0182,-5.0108,-4.9854,-4.9321,-4.9701,-4.9978,-4.9952,-4.9952,-4.9906,-4.9898,-4.9898,-4.9871,-4.9759,-4.9759,-4.9673,-4.9525,-4.9525,-4.9402]},{"header":{"parameterUnit":"m.s-1","parameterCategory":1,"la1":30.6,"la2":29.2853,"lo1":-89.7004,"lo2":-87.6739,"dy":0.0162,"dx":0.0183,"nx":112,"ny":82,"refTime":"2023-03-27T06:00:00:Z","depth":0,"parameterNumber":3,"parameterNumberName":"V-component_of_WINDS"},"data":[0.0,0.0,0.0,0.0,0.0,0.0,0.0,0.0,0.0,0.0,0.0,0.0,0.0,0.0,0.0,0.0,0.0,0.0,0.0,0.0,0.0,0.0,0.0,0.0,0.0,0.0,0.0,0.0,0.0,0.0,0.0,0.0,0.0,0.0,0.0,0.0,0.0,0.0,0.0,0.0,0.0,0.0,0.0,0.0,0.0,0.0,0.0,0.0,0.0,0.0,0.0,0.0,0.0,0.0,0.0,0.0,0.0,0.0,0.0,0.0,0.0,0.0,0.0,0.0,0.0,0.0,0.0,0.0,0.0,0.0,0.0,0.0,0.0,0.0,0.0,0.0,0.0,0.0,0.0,0.0,0.0,0.0,0.0,0.0,0.0,0.0,0.0,0.0,0.0,0.0,-3.0762,-3.1276,-3.3079,-3.3557,-3.1668,-3.1994,-3.1012,-2.8057,0.0,0.0,0.0,0.0,0.0,0.0,0.0,0.0,0.0,0.0,0.0,0.0,0.0,0.0,0.0,0.0,0.0,0.0,0.0,0.0,0.0,0.0,0.0,0.0,0.0,0.0,0.0,0.0,0.0,0.0,0.0,0.0,0.0,0.0,0.0,0.0,0.0,0.0,0.0,0.0,0.0,0.0,0.0,0.0,0.0,0.0,0.0,0.0,0.0,0.0,0.0,0.0,0.0,0.0,0.0,0.0,0.0,0.0,0.0,0.0,0.0,0.0,0.0,0.0,0.0,0.0,0.0,0.0,0.0,0.0,0.0,0.0,0.0,0.0,0.0,0.0,0.0,0.0,0.0,0.0,0.0,0.0,0.0,0.0,0.0,0.0,0.0,0.0,0.0,0.0,0.0,0.0,0.0,0.0,0.0,0.0,0.0,0.0,0.0,0.0,0.0,0.0,0.0,0.0,-3.1679,-3.3761,-3.3922,-3.3265,-3.1654,-3.1917,-3.089,-2.7989,0.0,0.0,0.0,0.0,0.0,0.0,0.0,0.0,0.0,0.0,0.0,0.0,0.0,0.0,0.0,0.0,0.0,0.0,0.0,0.0,0.0,0.0,0.0,0.0,0.0,0.0,0.0,0.0,0.0,0.0,0.0,0.0,0.0,0.0,0.0,0.0,0.0,0.0,0.0,0.0,0.0,0.0,0.0,0.0,0.0,0.0,0.0,0.0,0.0,0.0,0.0,0.0,0.0,0.0,0.0,0.0,0.0,0.0,0.0,0.0,0.0,0.0,0.0,0.0,0.0,0.0,0.0,0.0,0.0,0.0,0.0,0.0,0.0,0.0,0.0,0.0,0.0,0.0,0.0,0.0,0.0,0.0,0.0,0.0,0.0,0.0,0.0,0.0,0.0,0.0,0.0,0.0,0.0,0.0,0.0,0.0,0.0,0.0,0.0,0.0,0.0,0.0,0.0,-2.9497,-3.1056,-3.324,-3.3184,-3.2526,-3.1357,-3.1572,-3.08,-2.8416,-2.8975,0.0,0.0,0.0,0.0,0.0,0.0,0.0,0.0,0.0,0.0,0.0,0.0,0.0,0.0,0.0,0.0,0.0,0.0,0.0,0.0,0.0,0.0,0.0,0.0,0.0,0.0,0.0,0.0,0.0,0.0,0.0,0.0,0.0,0.0,0.0,0.0,0.0,0.0,0.0,0.0,0.0,0.0,0.0,0.0,0.0,0.0,0.0,0.0,0.0,0.0,0.0,0.0,0.0,0.0,0.0,0.0,0.0,0.0,0.0,0.0,0.0,0.0,0.0,0.0,0.0,0.0,0.0,0.0,0.0,0.0,0.0,0.0,0.0,0.0,0.0,0.0,0.0,0.0,0.0,0.0,0.0,0.0,0.0,0.0,0.0,0.0,0.0,0.0,0.0,0.0,0.0,0.0,0.0,0.0,0.0,0.0,0.0,0.0,0.0,0.0,0.0,0.0,-2.9813,-3.1138,-3.2384,-3.2414,-3.1951,-3.1074,-3.1523,-3.0873,-2.8579,-2.9331,0.0,0.0,0.0,0.0,0.0,0.0,0.0,0.0,0.0,0.0,0.0,0.0,0.0,0.0,0.0,0.0,0.0,0.0,0.0,0.0,0.0,0.0,0.0,0.0,0.0,0.0,0.0,0.0,0.0,0.0,0.0,0.0,0.0,0.0,0.0,0.0,0.0,0.0,0.0,0.0,0.0,0.0,0.0,0.0,0.0,0.0,0.0,0.0,0.0,0.0,0.0,0.0,0.0,0.0,0.0,0.0,0.0,0.0,0.0,0.0,0.0,0.0,0.0,0.0,0.0,0.0,0.0,0.0,0.0,0.0,0.0,0.0,0.0,0.0,0.0,0.0,0.0,0.0,0.0,0.0,0.0,0.0,0.0,0.0,0.0,0.0,0.0,0.0,0.0,0.0,0.0,0.0,0.0,0.0,0.0,0.0,0.0,0.0,0.0,0.0,0.0,0.0,-3.1848,-3.3488,-3.2763,-3.2318,-3.1823,-3.1071,-3.1912,-3.1096,-2.7974,-2.9376,0.0,0.0,0.0,0.0,0.0,0.0,0.0,0.0,0.0,0.0,0.0,0.0,0.0,0.0,0.0,0.0,0.0,0.0,0.0,0.0,0.0,0.0,0.0,0.0,0.0,0.0,0.0,0.0,0.0,0.0,0.0,0.0,0.0,0.0,0.0,0.0,0.0,0.0,0.0,0.0,0.0,0.0,0.0,0.0,0.0,0.0,0.0,0.0,0.0,0.0,0.0,0.0,0.0,0.0,0.0,0.0,0.0,0.0,0.0,0.0,0.0,0.0,0.0,0.0,0.0,0.0,0.0,0.0,0.0,0.0,0.0,0.0,0.0,0.0,0.0,0.0,0.0,0.0,0.0,0.0,0.0,0.0,0.0,0.0,0.0,0.0,0.0,0.0,0.0,0.0,0.0,0.0,0.0,0.0,0.0,0.0,0.0,0.0,0.0,0.0,0.0,0.0,-3.0998,-3.2344,-3.2164,-3.2085,-3.1876,-3.1203,-3.1798,-3.1135,-2.8625,0.0,0.0,0.0,0.0,0.0,0.0,0.0,0.0,0.0,0.0,0.0,0.0,0.0,0.0,0.0,0.0,0.0,0.0,0.0,0.0,0.0,0.0,0.0,0.0,0.0,0.0,0.0,0.0,0.0,0.0,0.0,0.0,0.0,0.0,0.0,0.0,0.0,0.0,0.0,0.0,0.0,0.0,0.0,0.0,0.0,0.0,0.0,0.0,0.0,0.0,0.0,0.0,0.0,0.0,0.0,0.0,0.0,0.0,0.0,0.0,0.0,0.0,0.0,0.0,0.0,0.0,0.0,0.0,0.0,0.0,0.0,0.0,0.0,0.0,0.0,0.0,0.0,0.0,0.0,0.0,0.0,0.0,0.0,0.0,0.0,0.0,0.0,0.0,0.0,0.0,0.0,0.0,0.0,0.0,0.0,0.0,0.0,0.0,0.0,0.0,0.0,0.0,-2.863,-3.0599,-3.1917,-3.1911,-3.1879,-3.1733,-3.1286,-3.1749,-3.1074,-2.8789,0.0,0.0,0.0,0.0,0.0,0.0,0.0,0.0,0.0,0.0,0.0,0.0,0.0,0.0,0.0,0.0,0.0,0.0,0.0,0.0,0.0,0.0,0.0,0.0,0.0,0.0,0.0,0.0,0.0,0.0,0.0,0.0,0.0,0.0,0.0,0.0,0.0,0.0,0.0,0.0,0.0,0.0,0.0,0.0,0.0,0.0,0.0,0.0,0.0,0.0,0.0,0.0,0.0,0.0,0.0,0.0,0.0,0.0,0.0,0.0,0.0,0.0,0.0,0.0,0.0,0.0,0.0,0.0,0.0,0.0,0.0,0.0,0.0,0.0,0.0,0.0,0.0,0.0,0.0,0.0,0.0,0.0,0.0,0.0,0.0,0.0,0.0,0.0,0.0,0.0,0.0,0.0,0.0,0.0,0.0,0.0,0.0,0.0,0.0,0.0,0.0,0.0,-2.8352,-3.098,-3.2781,-3.214,-3.1746,-3.1498,-3.1417,-3.1792,-3.092,0.0,0.0,0.0,0.0,0.0,0.0,0.0,0.0,0.0,0.0,0.0,0.0,0.0,0.0,0.0,0.0,0.0,0.0,0.0,0.0,0.0,0.0,0.0,0.0,0.0,0.0,0.0,0.0,0.0,0.0,0.0,0.0,0.0,0.0,0.0,0.0,0.0,0.0,0.0,0.0,0.0,0.0,0.0,0.0,0.0,0.0,0.0,0.0,0.0,0.0,0.0,0.0,0.0,0.0,0.0,0.0,0.0,0.0,0.0,0.0,0.0,0.0,0.0,0.0,0.0,0.0,0.0,0.0,0.0,0.0,0.0,0.0,0.0,0.0,0.0,0.0,0.0,0.0,0.0,0.0,0.0,0.0,0.0,0.0,0.0,0.0,0.0,0.0,0.0,0.0,0.0,0.0,0.0,0.0,0.0,0.0,0.0,0.0,0.0,0.0,0.0,0.0,0.0,-2.8481,-3.0774,-3.2359,-3.2292,-3.2176,-3.1935,-3.1711,-3.1997,-3.0858,-2.7825,0.0,0.0,0.0,0.0,0.0,0.0,0.0,0.0,0.0,0.0,0.0,0.0,0.0,0.0,0.0,0.0,0.0,0.0,0.0,0.0,0.0,0.0,0.0,0.0,0.0,0.0,0.0,0.0,0.0,0.0,0.0,0.0,0.0,0.0,0.0,0.0,0.0,0.0,0.0,0.0,0.0,0.0,0.0,0.0,0.0,0.0,0.0,0.0,0.0,0.0,0.0,0.0,0.0,0.0,0.0,0.0,0.0,0.0,0.0,0.0,0.0,0.0,0.0,0.0,0.0,0.0,0.0,0.0,0.0,0.0,0.0,0.0,0.0,0.0,0.0,0.0,0.0,0.0,0.0,0.0,0.0,0.0,0.0,0.0,0.0,0.0,0.0,0.0,0.0,0.0,0.0,0.0,0.0,0.0,0.0,0.0,0.0,0.0,0.0,0.0,0.0,0.0,-2.8026,-3.0489,-3.2265,-3.2097,-3.1988,-3.1881,-3.1877,-3.1637,-3.0599,-2.852,0.0,0.0,0.0,0.0,0.0,0.0,0.0,0.0,0.0,0.0,0.0,0.0,0.0,0.0,0.0,0.0,0.0,0.0,0.0,0.0,0.0,0.0,0.0,0.0,0.0,0.0,0.0,0.0,0.0,0.0,0.0,0.0,0.0,0.0,0.0,0.0,0.0,0.0,0.0,0.0,0.0,0.0,0.0,0.0,0.0,0.0,0.0,0.0,0.0,0.0,0.0,0.0,0.0,0.0,0.0,0.0,0.0,0.0,0.0,0.0,0.0,0.0,0.0,0.0,0.0,0.0,0.0,0.0,0.0,0.0,0.0,0.0,0.0,0.0,0.0,0.0,0.0,0.0,0.0,0.0,0.0,0.0,0.0,0.0,0.0,0.0,0.0,0.0,0.0,0.0,0.0,0.0,0.0,0.0,0.0,0.0,0.0,0.0,0.0,0.0,0.0,0.0,-2.7307,-3.0349,-3.2431,-3.1911,-3.1587,-3.1517,-3.1863,-3.0954,-3.008,-2.9584,0.0,0.0,0.0,0.0,0.0,0.0,0.0,0.0,0.0,0.0,0.0,0.0,0.0,0.0,0.0,0.0,0.0,0.0,0.0,0.0,0.0,0.0,0.0,0.0,0.0,0.0,0.0,0.0,0.0,0.0,0.0,0.0,0.0,0.0,0.0,0.0,0.0,0.0,0.0,0.0,0.0,0.0,0.0,0.0,0.0,0.0,0.0,0.0,0.0,0.0,0.0,0.0,0.0,0.0,0.0,0.0,0.0,0.0,0.0,0.0,-1.7407,-1.6626,0.0,0.0,0.0,0.0,0.0,0.0,0.0,0.0,0.0,0.0,0.0,0.0,0.0,0.0,0.0,0.0,0.0,0.0,0.0,0.0,0.0,0.0,0.0,0.0,0.0,0.0,0.0,0.0,0.0,0.0,0.0,0.0,0.0,0.0,0.0,0.0,0.0,0.0,0.0,0.0,-2.8422,-3.0553,-3.2306,-3.3018,-3.2059,-3.1436,-3.148,-3.0879,-2.9905,-2.8422,-2.8756,0.0,0.0,0.0,0.0,0.0,0.0,0.0,0.0,0.0,0.0,0.0,0.0,0.0,0.0,0.0,0.0,0.0,0.0,0.0,0.0,0.0,0.0,0.0,0.0,0.0,0.0,0.0,0.0,0.0,0.0,0.0,0.0,0.0,0.0,0.0,0.0,0.0,0.0,0.0,0.0,0.0,0.0,0.0,0.0,0.0,0.0,0.0,0.0,0.0,0.0,0.0,0.0,0.0,0.0,0.0,0.0,0.0,0.0,0.0,-1.4697,-1.5243,0.0,0.0,0.0,0.0,0.0,0.0,0.0,0.0,0.0,0.0,0.0,0.0,0.0,0.0,0.0,0.0,0.0,0.0,0.0,0.0,0.0,0.0,0.0,0.0,0.0,0.0,0.0,0.0,0.0,0.0,0.0,0.0,0.0,0.0,0.0,0.0,0.0,0.0,0.0,0.0,-2.8457,-3.0808,-3.2411,-3.25,-3.1807,-3.1204,-3.0698,-3.0176,-2.9571,-2.895,-2.874,0.0,0.0,0.0,0.0,0.0,0.0,0.0,0.0,0.0,0.0,0.0,0.0,0.0,0.0,0.0,0.0,0.0,0.0,0.0,0.0,0.0,0.0,0.0,0.0,0.0,0.0,0.0,0.0,0.0,0.0,0.0,0.0,0.0,0.0,0.0,0.0,0.0,0.0,0.0,0.0,0.0,0.0,0.0,0.0,0.0,0.0,0.0,0.0,0.0,0.0,0.0,0.0,0.0,-1.0377,-0.9588,-0.7812,-0.8815,-0.9828,-1.0887,-1.244,-1.4035,-1.5354,-1.4164,0.0,0.0,0.0,0.0,0.0,0.0,0.0,0.0,0.0,0.0,0.0,0.0,0.0,0.0,0.0,0.0,0.0,0.0,0.0,0.0,0.0,0.0,-2.4593,-2.4447,-2.5647,-2.6553,-2.5422,0.0,0.0,0.0,0.0,0.0,0.0,0.0,0.0,0.0,0.0,0.0,-2.8443,-3.096,-3.2356,-3.163,-3.1311,-3.0829,-2.9979,-2.945,-2.9221,-2.9624,-2.8813,-2.8553,0.0,0.0,0.0,0.0,0.0,0.0,0.0,0.0,0.0,0.0,0.0,0.0,0.0,0.0,0.0,0.0,0.0,0.0,0.0,0.0,0.0,0.0,0.0,0.0,0.0,0.0,0.0,0.0,0.0,0.0,0.0,0.0,0.3124,0.5389,0.0,0.0,0.0,0.0,0.0,0.0,0.0,0.0,0.0,0.0,0.0,0.0,0.0,-1.0228,-1.0264,-0.8231,-0.6961,-0.6662,-0.7711,-0.8347,-0.8613,-0.958,-1.0444,-1.1125,-1.1873,0.0,-1.2607,-1.4449,0.0,0.0,0.0,0.0,0.0,0.0,0.0,0.0,0.0,0.0,0.0,0.0,0.0,0.0,0.0,0.0,0.0,0.0,0.0,0.0,0.0,0.0,-2.6642,-2.6828,-2.7116,-2.7419,-2.738,-2.6264,-2.5135,-2.4549,-2.5087,-2.5216,0.0,0.0,0.0,0.0,0.0,0.0,-2.9797,-3.0851,-3.1588,-3.1941,-3.0916,-3.0133,-2.9979,-2.9462,-2.9052,-2.8961,-2.9269,-2.9139,-2.8486,-2.8451,0.0,0.0,0.0,0.0,0.0,0.0,0.0,0.0,0.0,0.0,0.0,0.0,0.0,0.0,0.0,0.0,0.0,0.0,0.0,0.0,0.0,0.0,0.0,0.0,0.0,0.0,0.0,0.0,0.0,0.2423,0.5026,0.6965,0.6552,0.5579,0.0,0.0,0.0,0.0,0.0,0.0,0.0,0.0,0.0,-0.9528,-0.7077,-0.6051,-0.6656,-0.5981,-0.5832,-0.6214,-0.7251,-0.8089,-0.8703,-0.9836,-1.075,-1.1335,-1.1702,-1.2022,-1.2472,-1.3599,-1.3848,-1.3835,0.0,0.0,0.0,0.0,-1.9353,-1.94,-2.0744,-2.1437,-2.1663,-2.1134,0.0,0.0,0.0,0.0,0.0,0.0,0.0,-2.2739,-2.3839,-2.4752,-2.5674,-2.6561,-2.7365,-2.7793,-2.7668,-2.7459,-2.7019,-2.6166,-2.5768,-2.5314,-2.4503,-2.5132,0.0,0.0,0.0,-2.8531,-2.9576,-3.0484,-3.1055,-3.1082,-3.0412,-2.9831,-2.9352,-2.9108,-2.8882,-2.8803,-2.9028,-2.9118,-2.895,-2.8632,-2.8163,0.0,0.0,0.0,0.0,0.0,0.0,0.0,0.0,0.0,0.0,0.0,0.0,0.0,0.0,0.0,0.0,0.0,0.0,0.0,0.0,0.0,0.0,0.0,0.0,0.0,0.0,0.0,0.0,0.522,0.729,0.8551,0.8986,0.883,0.0,0.0,0.0,0.0,0.0,0.0,-0.6865,-0.5177,-0.4396,-0.4873,-0.3262,-0.2863,-0.3904,-0.4768,-0.5473,-0.6025,-0.7322,-0.8165,-0.878,-1.0062,-1.0924,-1.149,-1.1877,-1.235,-1.2804,-1.2998,-1.3623,-1.4496,-1.5371,-1.5929,-1.6492,-1.8137,-1.8804,-1.9021,-2.0361,-2.1209,-2.1721,-2.1479,-2.1881,-2.2445,-2.2308,0.0,0.0,0.0,0.0,-2.2198,-2.3443,-2.4133,-2.4835,-2.6264,-2.7258,-2.7812,-2.7743,-2.7812,-2.7775,-2.7352,-2.6714,-2.6034,-2.5504,-2.6039,0.0,-2.5952,-2.7392,-2.8715,-2.9176,-2.9907,-3.0265,-2.9973,-2.964,-2.9229,-2.8761,-2.8645,-2.8645,-2.8724,-2.8724,-2.8943,-2.9303,-2.8923,-2.85,-2.8114,0.0,0.0,0.0,0.0,0.0,0.0,0.0,0.0,0.0,0.0,0.0,0.0,0.0,0.0,0.0,0.0,0.0,0.0,0.0,0.0,0.0,0.0,0.0,0.0,0.0,0.0,0.0,0.0,0.0,0.9768,1.2183,0.0,0.0,0.0,0.0,0.7853,0.6476,0.4794,0.2698,0.1788,0.0882,0.0,-0.0934,-0.1794,-0.2581,-0.3984,-0.4924,-0.5398,-0.7238,-0.8313,-0.8775,-1.0357,-1.1192,-1.1502,-1.2606,-1.3127,-1.3162,-1.3546,-1.369,-1.3882,-1.526,-1.5741,-1.5908,-1.8152,-1.8881,-1.9105,-2.1845,-2.2475,-2.208,-2.2264,-2.1907,-2.1452,-2.1936,-2.1738,0.0,0.0,-2.2479,-2.2925,-2.4072,-2.4779,-2.5572,-2.6914,-2.7163,-2.7288,-2.8147,-2.7066,-2.6153,-2.7288,-2.7876,-2.8033,-2.7497,0.0,-2.7908,-2.8375,-2.8227,-2.8387,-2.9232,-2.9118,-2.8919,-2.8919,-2.8339,-2.8087,-2.851,-2.8203,-2.8122,-2.851,-2.851,-2.8715,-2.9196,-2.9415,-2.9229,-2.8469,-2.9499,0.0,0.0,0.0,0.0,0.0,0.0,0.0,0.0,0.0,0.0,0.0,0.0,0.0,0.0,0.0,0.0,0.0,0.0,0.0,0.0,0.0,0.0,0.0,0.0,0.0,0.0,0.0,0.0,1.0283,1.2129,0.0,1.1887,1.1489,1.0644,0.9136,0.8168,0.673,0.4707,0.3427,0.2384,0.1567,0.047,-0.0626,-0.1722,-0.3051,-0.4066,-0.4924,-0.6696,-0.7927,-0.8761,-1.0132,-1.1186,-1.2003,-1.2673,-1.3339,-1.392,-1.4317,-1.4641,-1.4947,-1.5791,-1.6471,-1.7119,-1.8379,-1.8973,-1.9308,-2.1005,-2.1658,-2.1889,-2.2579,-2.2688,-2.2607,-2.2656,-2.2441,-2.2231,-2.2512,-2.2466,-2.2469,-2.3261,-2.3913,-2.4681,-2.6022,-2.6606,-2.7105,-2.8094,-2.7739,-2.732,-2.7447,-2.6873,-2.6437,-2.6748,-2.7321,-2.7786,-2.7852,-2.8249,-2.8598,-2.8755,-2.8498,-2.8179,-2.7995,-2.7661,-2.7499,-2.7684,-2.7684,-2.7788,-2.8122,-2.8593,-2.8843,-2.8775,-2.9356,-2.9284,-2.8582,-2.8925,-2.8421,0.0,0.0,0.0,0.0,0.0,0.0,0.0,0.0,0.0,0.0,0.0,0.0,0.0,0.0,0.0,0.0,0.0,0.0,0.0,0.0,0.0,0.0,0.0,0.0,0.0,1.1025,1.2752,1.1691,1.3429,1.4321,1.3405,1.3341,1.2691,1.1185,0.9941,0.8335,0.6377,0.4916,0.36,0.2508,0.1488,0.0313,-0.1019,-0.2272,-0.3444,-0.4613,-0.6234,-0.754,-0.868,-1.0045,-1.118,-1.215,-1.3039,-1.3833,-1.441,-1.4982,-1.548,-1.6035,-1.6603,-1.7285,-1.8114,-1.8988,-1.9452,-1.9811,-2.0647,-2.1198,-2.1668,-2.2296,-2.2703,-2.2852,-2.2478,-2.2327,-2.2327,-2.2327,-2.2101,-2.2025,-2.2703,-2.3276,-2.4112,-2.5524,-2.6196,-2.676,-2.7763,-2.7888,-2.7627,-2.71,-2.6388,-2.6127,-2.6689,-2.7234,-2.7434,-2.7041,-2.7924,-2.8354,-2.777,-2.7891,-2.7976,-2.7707,-2.7367,-2.7215,-2.729,-2.7198,-2.7498,-2.8186,-2.8444,-2.8681,-2.8946,-2.8806,-2.8622,-2.8453,-2.8196,-2.7612,-2.6857,0.0,0.0,0.0,0.0,0.0,0.0,0.0,0.0,0.0,0.0,0.0,0.0,0.0,0.0,0.0,0.0,0.0,0.0,0.0,0.0,0.0,0.0,0.0,1.3074,1.4332,1.505,1.4096,1.6336,1.735,1.5725,1.5718,1.5384,1.4347,1.2291,1.0232,0.821,0.6538,0.4844,0.3132,0.2115,0.0862,-0.0628,-0.1883,-0.3136,-0.4384,-0.5848,-0.7153,-0.8456,-1.026,-1.1316,-1.1855,-1.376,-1.4625,-1.4681,-1.5497,-1.6289,-1.6968,-1.7619,-1.8085,-1.8643,-1.9835,-2.0324,-2.0435,-2.0956,-2.1235,-2.1408,-2.1435,-2.1731,-2.1949,-2.1359,-2.1359,-2.1502,-2.1512,-2.1502,-2.1731,-2.2478,-2.3161,-2.4033,-2.5548,-2.6078,-2.6407,-2.711,-2.721,-2.6976,-2.6103,-2.6661,-2.7351,-2.7422,-2.7297,-2.6904,-2.6041,-2.7204,0.0,-2.6228,-2.7359,-2.8205,-2.7908,-2.7488,-2.7284,-2.7429,-2.6783,-2.7105,-2.8892,-2.8268,-2.8432,-2.9665,-2.7912,-2.7268,-2.8063,-2.7214,-2.691,-2.7106,0.0,0.0,0.0,0.0,0.0,0.0,0.0,0.0,0.0,0.0,0.0,0.0,0.0,0.0,0.0,0.0,0.0,0.0,0.0,0.0,0.0,1.5468,1.6389,1.4348,1.6457,1.767,1.6221,1.7081,1.7542,1.6985,1.6762,1.5965,1.4442,1.2517,1.0754,0.9059,0.693,0.5076,0.3361,0.2349,0.0862,-0.1097,-0.204,-0.3136,-0.4384,-0.6009,-0.754,-0.8903,-1.0271,-1.1552,-1.282,-1.3912,-1.484,-1.5683,-1.6193,-1.6751,-1.7245,-1.689,-1.7166,-1.7794,-1.8192,-1.8866,-1.9644,-1.9941,-2.0586,-2.1281,-2.1293,-2.1359,-2.1359,-2.1061,-2.1205,-2.1578,-2.1873,-2.2025,-2.2327,-2.2927,-2.385,-2.4751,-2.5359,-2.6154,-2.6825,-2.7164,-2.736,-2.7127,-2.6082,-2.656,-2.7024,-2.6721,-2.6942,-2.7042,-2.6848,-2.7324,-2.7498,-2.6967,-2.7244,-2.7151,-2.6246,-2.6018,-2.5871,-2.5701,-2.5836,-2.6551,-2.7874,-2.8248,-2.8397,-2.8151,-2.7869,-2.7349,-2.667,-2.5696,-2.5259,0.0,0.0,0.0,0.0,0.0,0.0,0.0,0.0,0.0,0.0,0.0,0.0,0.0,0.0,0.0,0.0,0.0,0.0,0.0,0.0,0.0,0.0,1.5537,1.6638,1.5204,1.7073,1.8287,1.7432,1.7716,1.8056,1.8212,1.7735,1.6811,1.5562,1.3526,1.163,0.9879,0.7456,0.5303,0.3357,0.2113,0.047,-0.1568,-0.243,-0.3524,-0.4927,-0.6468,-0.7918,-0.9281,-1.087,-1.2144,-1.3266,-1.4346,-1.5275,-1.6044,-1.6603,-1.7166,-1.7657,0.0,0.0,0.0,0.0,-1.8418,-1.8864,-1.934,-1.9882,-2.037,-2.0688,-2.0886,-2.0964,-2.0819,-2.0974,-2.1359,-2.1807,-2.2176,-2.2553,-2.315,-2.4016,-2.4823,-2.5005,-2.5793,-2.6439,-2.6384,-2.6639,-2.6565,-2.5538,-2.6136,0.0,-2.5761,-2.6196,-2.6586,-2.6188,-2.6795,-2.7047,-2.6622,-2.7139,-2.7229,-2.6381,-2.6244,-2.6084,-2.5699,-2.5957,0.0,0.0,0.0,-2.7352,-2.6219,-2.6668,0.0,0.0,0.0,-2.458,-2.4847,-2.4812,0.0,0.0,-2.5764,-2.5733,0.0,0.0,0.0,0.0,0.0,0.0,0.0,0.0,0.0,0.0,0.0,0.0,0.0,0.0,0.0,0.0,1.4273,1.6048,1.5283,1.6349,1.7413,1.7833,1.8124,1.8539,1.9142,1.8482,1.7774,1.7111,1.4814,1.2576,1.0599,0.7973,0.0,0.0,0.0,-0.0078,-0.196,-0.2978,-0.4224,-0.5622,-0.7149,-0.8447,-0.9669,-1.1749,-1.2879,-1.3339,-1.4919,-1.5771,-1.6114,-1.689,-1.752,-1.8008,-1.8519,-1.8576,-1.8375,-1.8633,-1.8375,-1.8018,-1.8955,0.0,0.0,-1.9995,-2.0411,-2.0644,-2.0644,-2.0886,-2.1205,-2.1807,-2.2252,-2.2703,-2.3224,-2.3993,-2.4669,-2.4729,-2.5171,-2.5467,-2.5182,-2.5505,-2.5573,-2.4583,-2.5329,-2.5871,-2.4813,-2.5451,-2.5848,-2.4889,-2.5961,-2.6574,-2.5846,-2.6977,-2.7672,-2.7368,-2.7116,0.0,-2.6427,-2.6412,-2.6808,-2.7765,-2.7036,-2.5913,-2.4426,-2.4957,-2.4804,-2.3903,-2.4098,-2.4583,-2.5137,-2.5235,-2.5323,-2.5548,-2.471,-2.4482,0.0,0.0,0.0,0.0,0.0,0.0,0.0,0.0,0.0,0.0,0.0,0.0,0.0,0.0,0.0,1.003,1.3076,1.4522,1.3097,1.3947,1.5217,1.6733,1.7579,1.8144,1.8472,1.8337,1.7852,1.7001,1.5043,1.302,1.0965,0.8112,0.5366,0.2965,0.1251,-0.0548,-0.2589,-0.3682,-0.4771,-0.586,-0.7689,0.0,-0.9895,-1.1916,-1.3178,-1.376,-1.5267,-1.6114,-1.6533,-1.7028,-1.7442,-1.7784,-1.8066,-1.7794,-1.7176,-1.7088,-1.7088,-1.7227,-1.7971,-1.8563,-1.9149,-1.9995,-2.0586,-2.0896,-2.1051,-2.1578,0.0,-2.2628,-2.315,-2.3666,-2.397,-2.4696,-2.5187,-2.451,-2.4853,-2.5175,-2.4342,-2.426,-2.4228,-2.362,-2.4404,-2.5011,-2.4292,-2.5499,-2.6278,-2.576,-2.6218,-2.6494,-2.614,-2.6528,-2.6546,-2.5564,-2.5486,-2.5441,-2.5352,-2.5672,-2.6193,-2.6797,-2.6072,-2.5304,-2.4852,-2.4347,-2.4161,-2.4184,-2.3966,-2.4095,-2.4449,-2.4538,-2.4833,-2.5118,-2.5464,-2.5688,0.0,0.0,0.0,0.0,0.0,0.0,0.0,0.0,0.0,0.0,0.0,-0.4164,0.0,0.0,0.4942,0.7593,0.8546,0.9075,0.9366,1.0337,1.2179,1.5271,1.6603,1.7442,1.7833,1.8056,1.7988,1.7482,1.5184,1.2998,1.107,0.8023,0.5132,0.2421,0.0703,-0.1095,-0.3057,-0.446,-0.5705,-0.671,-0.8604,-0.9959,-1.0858,-1.2652,-1.3905,-1.4689,-1.5692,-1.6324,-1.6603,-1.695,-1.7226,-1.7579,-1.7657,-1.752,-1.7235,-1.7028,-1.7028,-1.7288,-1.819,-1.8839,-1.9424,-2.0283,-2.0886,-2.1205,-2.1359,-2.1807,-2.238,-2.2918,-2.3437,-2.388,-2.4049,-2.4559,-2.4803,-2.4254,-2.4453,-2.463,-2.4007,-2.4028,-2.3984,-2.3601,-2.402,-2.4352,-2.4048,-2.4815,-2.5622,-2.5895,-2.6063,-2.6313,-2.6396,-2.6561,-2.6278,-2.5532,-2.5477,-2.5414,-2.5491,-2.5786,-2.6003,-2.6125,-2.5449,-2.4922,-2.4538,-2.4053,-2.3854,-2.3954,-2.3854,-2.3854,-2.3954,-2.4341,-2.4538,-2.4735,-2.5226,-2.5605,0.0,0.0,0.0,0.0,0.0,0.0,0.0,0.0,-1.2809,-0.8603,-0.7058,-0.4318,0.284,0.2495,0.1939,0.4414,0.3816,0.3646,0.5467,0.6706,0.8729,1.2312,1.4481,1.5861,1.6473,1.6849,1.712,1.717,1.4719,1.2469,1.0745,0.7639,0.475,0.2032,0.0313,-0.1485,-0.329,-0.5002,-0.6325,-0.7403,-0.9291,-1.064,-1.1533,-1.3237,-1.4482,-1.5251,-1.5912,-1.6342,-1.6533,-1.6664,-1.6917,-1.7357,-1.7288,-1.7543,-1.7808,-1.7385,-1.7404,-1.7652,-1.8686,-1.9321,-1.9845,-2.0708,-2.1255,-2.1543,-2.1794,-2.2091,-2.2484,-2.3182,-2.3632,-2.3962,-2.4198,-2.4248,-2.426,-2.4106,-2.4095,-2.4095,-2.3765,-2.3835,-2.3876,-2.3556,-2.3771,-2.3846,-2.3763,-2.4134,-2.468,-2.5464,-2.5633,-2.5895,-2.6302,-2.6385,-2.6229,-2.5895,-2.5899,-2.5915,-2.5862,-2.5859,-2.5814,-2.5577,-2.502,-2.4538,-2.4152,-2.3854,-2.3755,-2.3755,-2.3755,-2.3755,-2.3755,-2.4143,-2.443,-2.4538,-2.4735,-2.4992,-1.384,-1.0952,-0.7941,-1.0798,-0.9732,-0.906,0.0,0.0,-1.4975,-1.1639,-0.8924,-0.5254,0.0774,0.0945,0.0396,0.1235,0.1725,0.2315,0.295,0.414,0.5191,0.5895,0.9674,1.2514,1.3286,1.3643,1.3984,1.4348,1.2449,1.0775,0.9456,0.6663,0.421,0.2267,0.0391,-0.1409,-0.3132,-0.4608,-0.5928,-0.7015,-0.8988,-1.0201,-1.0738,-1.2872,-1.3977,-1.4346,-1.5363,-1.6008,-1.6342,-1.6044,-1.6466,-1.7225,-1.7,-1.7497,-1.8201,-1.7631,-1.7723,-1.8092,-1.8864,-1.9487,-2.0161,-2.1174,-2.1507,-2.1732,-2.2939,-2.3292,-2.3436,-2.4281,-2.4513,-2.4624,-2.4601,-2.45,-2.4377,-2.414,-2.3812,-2.3482,-2.3241,-2.296,-2.2757,-2.2839,-2.3134,-2.3355,-2.3523,-2.372,-2.409,-2.4584,-2.485,-2.5115,-2.5369,-2.5549,-2.5644,-2.5644,-2.5744,-2.5816,-2.5787,-2.5377,-2.5043,-2.5001,-2.4341,-2.3854,-2.3854,-2.3555,-2.3447,-2.3447,-2.3447,-2.3546,-2.3755,-2.3845,-2.4044,-2.4529,-2.4529,-2.4538,-1.5205,-1.1427,-0.7073,0.0,-0.8502,-0.6695,-1.0482,-1.3086,-1.4691,-1.4554,-1.3372,-1.1223,-0.7513,-0.6248,-0.5362,0.0,-0.242,-0.097,-0.0281,0.107,0.1942,0.1857,0.3319,0.581,0.9608,1.0414,1.1053,1.1913,1.0188,0.8801,0.8134,0.5659,0.3359,0.1487,0.0,-0.1566,-0.329,-0.4766,-0.6083,-0.7249,-0.9064,-1.034,-1.1242,-1.2879,-1.4057,-1.4713,-1.4912,-1.551,-1.6258,-1.5593,-1.5997,-1.7051,-1.6893,-1.7353,-1.8033,-1.7999,-1.8248,-1.8665,-1.9316,-1.9847,-2.0456,-2.1567,-2.22,-2.2558,-2.3297,-2.361,-2.3863,-2.4325,-2.4384,-2.4459,-2.4562,-2.4352,-2.4069,-2.3813,-2.3567,-2.3392,-2.2978,-2.3022,-2.3033,-2.3033,-2.3097,-2.314,-2.314,-2.3288,-2.3396,-2.3484,-2.41,-2.4805,-2.5486,-2.5604,-2.5538,-2.557,-2.554,-2.54,-2.5134,-2.5006,-2.483,-2.4421,-2.4044,-2.3755,-2.3546,-2.3347,-2.3147,-2.3147,-2.3147,-2.3247,-2.3347,-2.3447,-2.3746,-2.4044,-2.4044,-2.4159,-1.2834,-0.7908,0.0,-0.6541,-0.4899,-0.3805,-0.8889,-1.3674,-1.7343,-1.8404,-1.8095,-1.7045,-1.5119,-1.3059,-1.0781,-0.8001,-0.6119,-0.4196,-0.1929,-0.0987,-0.0639,-0.1129,-0.1499,0.0144,0.4678,0.6075,0.7248,0.8788,0.7425,0.6467,0.6232,0.4194,0.2347,0.0784,-0.047,-0.1802,-0.3368,-0.4844,-0.6163,-0.7403,-0.8988,-1.034,-1.1391,-1.2674,-1.38,-1.4691,-1.4494,-1.4976,-1.5914,-1.5341,-1.5814,-1.6911,-1.692,-1.7304,-1.7918,-1.8321,-1.8741,-1.9089,-1.9889,-2.0426,-2.0891,-2.2098,-2.2701,-2.3108,-2.3625,-2.3963,-2.4196,-2.4335,-2.4305,-2.4294,-2.4372,-2.4132,-2.3801,-2.3622,-2.3537,-2.3368,-2.3113,-2.3189,-2.3242,-2.3057,-2.2969,-2.2882,-2.2706,-2.2794,-2.2882,-2.2794,-2.3416,-2.4186,-2.5228,-2.5394,-2.5365,-2.5289,-2.5248,-2.5012,-2.4468,-2.4557,-2.443,-2.4035,-2.3746,-2.3447,-2.3347,-2.3046,-2.2846,-2.2846,-2.2846,-2.2946,-2.3046,-2.3147,-2.3456,-2.3655,-2.3655,-2.3845,0.0,0.0,0.7858,0.4701,0.4068,0.1469,-0.9041,-1.8699,-2.5063,-2.3747,-2.2395,-2.1073,-1.9897,-1.7722,-1.439,-0.9123,-0.8527,-0.6686,-0.087,-0.1198,-0.2325,-0.3237,-0.3399,-0.2979,-0.1938,0.0076,0.2143,0.4337,0.3893,0.3513,0.3513,0.219,0.1019,0.0313,-0.094,-0.2194,-0.3368,-0.4686,-0.5925,-0.7242,-0.8613,-0.9755,-1.0599,-1.198,-1.2866,-1.3369,-1.4002,-1.4554,-1.5049,-1.5304,-1.5966,-1.6814,-1.7075,-1.7539,-1.8023,-1.8505,-1.8966,-1.9399,-2.0537,-2.1002,-2.1379,-2.2772,-2.3021,-2.2992,-2.4134,-2.4367,-2.4273,-2.4714,-2.468,-2.4444,-2.4282,-2.4013,-2.382,-2.382,-2.3647,-2.3484,-2.3484,-2.3144,-2.2803,-2.2794,-2.2618,-2.2441,-2.2432,-2.2441,-2.253,-2.2803,-2.2803,-2.3124,-2.4078,-2.4686,-2.5023,-2.4687,-2.4669,-2.4477,-2.4177,-2.3926,-2.3737,-2.3845,-2.3347,-2.3046,-2.3046,-2.2745,-2.2644,-2.2644,-2.2644,-2.2745,-2.3046,-2.3046,-2.3147,-2.3447,-2.3447,-2.3546,0.0,0.0,1.2973,0.8342,0.6706,0.3666,-0.609,-1.5947,-2.3637,-2.5835,-2.5566,-2.4827,-2.4528,-2.1351,-1.6597,-1.0032,-0.7508,-0.4476,0.0929,0.1947,0.1333,-0.0706,-0.1447,0.0,0.0075,-0.0892,-0.0678,0.1589,0.0718,0.0399,0.1199,0.0561,-0.008,-0.0705,-0.1568,-0.2585,-0.3834,-0.4765,-0.5792,-0.6788,-0.8686,-1.0229,-1.1414,-1.1812,-1.2293,-1.2711,-1.3059,-1.3783,-1.4765,-1.508,-1.5967,-1.7202,-1.7291,-1.7527,-1.7861,-1.8362,-1.8442,-1.8647,-2.0021,-2.0657,-2.1034,-2.2645,-2.3337,-2.3567,-2.4268,-2.4436,-2.4428,-2.4413,-2.4272,-2.4024,-2.3764,-2.3677,-2.3503,-2.3232,-2.3057,-2.2979,-2.2794,-2.2618,-2.253,-2.253,-2.2441,-2.2353,-2.2185,-2.2353,-2.2527,-2.2891,-2.3628,-2.4134,-2.4271,-2.5012,-2.5322,-2.4889,-2.4617,-2.4389,-2.4233,-2.3945,-2.3746,-2.3546,-2.3247,-2.2946,-2.2745,-2.2644,-2.2644,-2.2644,-2.2644,-2.2644,-2.2745,-2.2745,-2.2846,-2.3147,-2.2937,-2.2937,0.0,0.7675,1.5964,1.393,0.9025,0.2441,-0.6196,-1.5792,-2.3765,-2.7039,-2.6702,-2.6024,-2.6674,-2.4307,-1.9233,-1.0002,-0.7725,-0.44,0.3339,0.4541,0.3813,0.1541,0.0656,0.0601,0.0,0.0,-0.1445,0.0161,-0.0648,-0.0891,-0.0405,-0.0649,-0.1044,-0.1568,-0.2273,-0.3134,-0.4224,-0.5121,-0.6128,-0.7363,-0.8904,-1.0119,-1.0996,-1.1322,-1.1613,-1.1952,-1.2462,-1.3361,-1.444,-1.4989,-1.5906,-1.7057,-1.7147,-1.7302,-1.7538,-1.787,-1.7951,-1.81,-1.9861,-2.0639,-2.1018,-2.2715,-2.3513,-2.3724,-2.4104,-2.4272,-2.4196,-2.3937,-2.3667,-2.3484,-2.3144,-2.3144,-2.3057,-2.2706,-2.2618,-2.2618,-2.2441,-2.2353,-2.2264,-2.2264,-2.2176,-2.2087,-2.2008,-2.2176,-2.2405,-2.2809,-2.3693,-2.4214,-2.4265,-2.4785,-2.4913,-2.444,-2.4233,-2.4134,-2.3755,-2.3646,-2.3447,-2.3247,-2.3046,-2.2745,-2.2653,-2.2644,-2.2644,-2.2644,-2.2644,-2.2644,-2.2644,-2.2644,-2.2644,-2.2846,-2.2535,-2.2526,0.4445,1.0518,1.7432,2.1161,1.1135,-0.1587,-0.904,-1.8168,-2.5577,-2.7358,-2.5956,-2.484,0.0,0.0,-2.1771,-0.8886,-0.8768,-0.6014,0.6336,0.678,0.5205,0.0,0.0,0.0,0.0,0.0,-0.0472,-0.0081,-0.0326,-0.0816,-0.1388,-0.155,-0.1854,-0.2285,-0.3067,-0.3853,-0.4479,-0.561,-0.7042,-0.8626,-0.926,-0.9533,-0.9663,-1.0496,-1.0948,-1.1068,-1.2357,-1.3379,-1.4139,-1.4977,-1.5809,-1.6394,-1.6648,-1.6894,-1.7139,-1.731,-1.7546,-1.7972,-2.007,-2.0857,-2.1165,-2.2948,-2.3503,-2.3503,-2.3754,-2.3754,-2.3667,-2.3232,-2.3057,-2.296,-2.252,-2.2353,-2.2353,-2.2353,-2.2353,-2.2353,-2.2353,-2.2274,-2.2097,-2.2097,-2.1919,-2.1741,-2.1741,-2.1919,-2.2246,-2.2665,-2.3075,-2.3485,-2.3781,-2.3984,-2.3935,-2.3447,-2.3538,-2.3538,-2.3046,-2.3046,-2.3046,-2.3046,-2.2745,-2.2644,-2.2644,-2.2644,-2.2644,-2.2644,-2.2644,-2.2644,-2.2644,-2.2644,-2.2644,-2.2544,-2.2232,-2.2224,1.1957,1.6631,2.1295,2.1712,1.0718,-0.1867,-0.8289,-1.7517,-2.4878,-2.5414,-2.4746,-2.4074,0.0,0.0,0.0,-0.4718,-0.4065,0.0,1.1293,1.1439,0.0,0.761,0.0,0.6177,0.5115,0.3163,0.0,0.1019,-0.1022,-0.2388,-0.2648,-0.2564,-0.2707,-0.3057,-0.3796,-0.4454,-0.5112,-0.6289,-0.7351,-0.8328,-0.8704,-0.9164,-0.9611,-1.0211,-1.0499,-1.0722,-1.1837,-1.2863,-1.388,-1.4559,-1.5567,-1.6648,-1.6656,-1.6894,-1.7139,-1.731,-1.7392,-1.7736,-1.9326,-2.0268,-2.0978,-2.2688,-2.3319,-2.3503,-2.359,-2.3406,-2.3222,-2.2969,-2.2706,-2.253,-2.2274,-2.2185,-2.2097,-2.1909,-2.1909,-2.1909,-2.1909,-2.2008,-2.2008,-2.183,-2.1919,-2.1919,-2.1731,-2.2087,-2.2419,-2.2778,-2.3074,-2.3381,-2.3588,-2.3797,-2.3746,-2.3447,-2.3447,-2.3447,-2.3347,-2.3147,-2.3046,-2.3046,-2.2745,-2.2644,-2.2644,-2.2644,-2.2644,-2.2644,-2.2644,-2.2644,-2.2644,-2.2644,-2.2644,-2.2552,-2.203,-2.1827,1.3034,1.6589,1.9967,1.6115,0.6519,-0.4006,-1.1999,-1.8865,-2.3738,-2.4312,-2.3936,0.0,-2.3345,-2.1993,0.0,0.0,0.0,0.0,1.4979,1.4731,1.2549,0.0,0.9688,0.0,0.7258,0.5095,0.3168,0.1641,-0.052,-0.2083,-0.2779,-0.2694,-0.2839,-0.3362,-0.4028,-0.4888,-0.5951,-0.6793,-0.751,-0.8113,-0.845,-0.8801,-0.9161,-0.9772,-1.0207,-1.0549,-1.1499,-1.2437,-1.3464,-1.4146,-1.5075,-1.6147,-1.6237,-1.6484,-1.6804,-1.6984,-1.7147,-1.7491,-1.8812,-1.9645,-2.0327,-2.2187,-2.2872,-2.3057,-2.3154,-2.2969,-2.2784,-2.2539,-2.2264,-2.2087,-2.1919,-2.183,-2.175,-2.1741,-2.183,-2.1919,-2.1919,-2.2097,-2.2176,-2.1919,-2.2008,-2.2008,-2.1741,-2.1909,-2.2277,-2.2635,-2.2857,-2.3067,-2.3242,-2.3511,-2.3546,-2.3247,-2.3247,-2.3147,-2.3046,-2.2837,-2.2667,-2.2412,-2.2204,-2.2136,-2.1965,-2.2047,-2.2124,-2.2204,-2.2204,-2.218,-2.2342,-2.2342,-2.2443,-2.2552,-2.2131,-2.1928,1.1705,1.371,1.5669,0.8341,0.0831,-0.7291,-1.7174,-2.1083,-2.2885,-2.37,0.0,-2.318,-2.372,-2.2567,-1.6853,-0.2538,0.0,0.2656,1.5798,1.6053,1.432,1.2733,1.1334,0.9948,0.8625,0.6283,0.3982,0.208,0.0523,-0.0961,-0.2357,-0.2444,-0.2768,-0.3562,-0.4236,-0.5206,-0.6519,-0.7039,-0.7451,-0.7856,-0.8288,-0.8548,-0.8548,-0.9253,-0.9777,-1.0294,-1.1241,-1.2015,-1.2784,-1.3652,-1.4489,-1.5137,-1.5477,-1.5982,-1.6394,-1.6566,-1.6812,-1.7237,-1.8387,-1.9032,-1.9609,-2.1618,-2.2315,-2.2366,-2.2608,-2.253,-2.2353,-2.2097,-2.183,-2.1651,-2.1642,-2.1472,-2.1482,-2.1651,-2.1919,-2.2097,-2.2185,-2.2264,-2.2353,-2.2185,-2.2097,-2.2008,-2.1741,-2.1688,-2.1889,-2.2362,-2.2479,-2.2643,-2.288,-2.3176,-2.3176,-2.2968,-2.2824,-2.2698,-2.249,-2.2389,-2.2053,-2.1551,-2.1534,-2.1383,-2.1159,-2.123,-2.1383,-2.1526,-2.1576,-2.1653,-2.1954,-2.2106,-2.2232,-2.2443,-2.2232,-2.203,1.6158,1.4035,1.1191,0.667,-0.1807,-1.0861,-1.8012,-2.2111,0.0,0.0,-2.3532,-2.4013,-2.342,-2.1911,-1.8621,-1.2267,-0.5174,0.1616,0.7589,1.2457,1.4976,0.0,1.1671,0.987,0.8337,0.6098,0.0,0.2217,0.0712,-0.0803,-0.2411,-0.2499,-0.3117,-0.4433,-0.496,-0.5585,-0.6395,-0.6926,-0.7295,-0.7595,-0.7852,-0.8116,-0.8288,-0.899,-0.9519,-0.9777,-1.0895,-1.123,-1.1128,-1.2869,-1.3542,-1.3756,-1.4963,-1.5816,-1.6394,-1.6476,-1.6722,-1.7237,-1.8063,-1.8707,-1.947,-2.1271,-2.1864,-2.191,-2.2171,-2.2185,-2.2097,-2.166,-2.1482,-2.1392,-2.1186,-2.1284,-2.1482,-2.1651,-2.1919,-2.2185,-2.2627,-2.253,-2.2353,-2.2353,-2.2176,-2.1919,-2.1571,-2.1835,-2.2198,-2.2294,-2.2375,-2.2545,-2.2708,-2.277,-2.2761,-2.2467,-2.2179,-2.1891,-2.161,-2.1425,-2.1206,-2.0856,-2.105,-2.1113,-2.1151,-2.1142,-2.1168,-2.1235,-2.1237,-2.1313,-2.1371,-2.1879,-2.203,-2.1827,-2.1827,-2.1725,1.2422,1.1004,0.8878,0.315,-0.4643,-1.2386,-1.7906,0.0,0.0,0.0,-2.3249,-2.3796,-2.3688,-2.2014,0.0,-1.2816,-0.9081,-0.3375,0.68,0.8633,0.0,1.2251,1.049,0.86,0.0,0.4799,0.2877,0.2139,0.0627,-0.0807,-0.2244,-0.2782,-0.3568,-0.4586,-0.5164,-0.5638,-0.6257,-0.67,-0.7054,-0.7323,-0.7676,-0.8116,-0.846,-0.8736,-0.9118,-0.9447,-1.024,-1.0732,-1.1133,-1.2553,-1.3457,-1.3944,-1.497,-1.5643,-1.6064,-1.6154,-1.6409,-1.6668,-1.7626,-1.8263,-1.876,-2.0421,-2.1248,-2.1581,-2.1686,-2.175,-2.1651,-2.1284,-2.1105,-2.1024,-2.0997,-2.1096,-2.1284,-2.1642,-2.2097,-2.2539,-2.2715,-2.2618,-2.2353,-2.2087,-2.183,-2.1651,-2.1284,-2.1428,-2.1597,-2.1626,-2.1781,-2.1922,-2.2215,-2.2092,-2.1944,-2.2048,-2.19,-2.1692,-2.1413,-2.1222,-2.0858,-2.038,-2.0467,-2.0479,-2.0295,-2.0372,-2.0559,-2.076,-2.092,-2.1,-2.1095,-2.1654,-2.1849,-2.1653,-2.1945,-2.1946,0.7255,0.7295,0.6801,-0.0415,-0.7438,-1.372,-1.7875,-2.1856,0.0,0.0,-2.3118,-2.3574,-2.4061,0.0,-1.9815,0.0,-1.3161,-0.8415,0.4384,0.0,0.5291,0.0,0.9096,0.0,0.6623,0.3723,0.1839,0.1694,-0.0089,-0.1524,-0.2333,-0.3229,-0.4003,-0.4633,-0.5127,-0.57,-0.6171,-0.6587,-0.6851,-0.7054,-0.7496,-0.7937,-0.8281,-0.8432,-0.8681,-0.9048,-0.9547,-1.0203,-1.0893,-1.2246,-1.3294,-1.4048,-1.4894,-1.5401,-1.5733,-1.5914,-1.6087,-1.6262,-1.7361,-1.7838,-1.8192,-1.9673,-2.0692,-2.1194,-2.1275,-2.1293,-2.1293,-2.1006,-2.0826,-2.0744,-2.0907,-2.0997,-2.1177,-2.1731,-2.2353,-2.2794,-2.2715,-2.253,-2.2176,-2.1741,-2.1472,-2.1203,-2.1006,-2.0978,-2.1054,-2.1093,-2.1229,-2.1342,-2.1639,-2.1436,-2.1322,-2.1517,-2.1543,-2.1449,-2.1174,-2.0889,-2.0573,-2.0008,-1.9984,-1.9953,-1.9687,-1.9845,-2.0071,-2.0382,-2.0543,-2.072,-2.0816,-2.1362,-2.1559,-2.1483,-2.1944,-2.209,0.5129,0.4574,0.3568,-0.2622,-0.9969,-1.6327,-1.8693,0.0,0.0,-2.3364,-2.3621,-2.4155,-2.4331,0.0,0.0,0.0,0.0,-1.0688,0.0,0.0,0.0,1.0636,0.0,0.0,0.698,0.4222,0.1785,0.0268,-0.2144,-0.3403,-0.3138,-0.3853,-0.4472,-0.4907,-0.5264,-0.579,-0.634,-0.6573,-0.6663,-0.6792,-0.7054,-0.7228,-0.7224,-0.7775,-0.8041,-0.8195,-0.9061,-0.9221,-0.9128,-1.1219,-1.226,-1.2668,-1.4132,-1.5151,-1.5733,-1.5733,-1.5906,-1.6262,-1.7361,-1.7921,-1.8357,-1.9586,-2.015,-2.0545,-2.0891,-2.0997,-2.0997,-2.0835,-2.0744,-2.0744,-2.0736,-2.0826,-2.1266,-2.2078,-2.2696,-2.2969,-2.253,-2.2264,-2.2008,-2.1482,-2.1195,-2.0997,-2.0736,-2.0942,-2.1102,-2.0959,-2.1331,-2.1525,-2.1281,-2.1325,-2.1275,-2.0841,-2.0759,-2.0668,-2.0394,-2.012,-1.9929,-1.9637,-1.9804,-1.987,-1.9845,-1.9936,-1.9945,-1.9987,-2.012,-2.021,-2.0149,-2.1052,-2.1326,-2.1088,-2.162,-2.1807,0.0551,0.1449,0.2142,-0.418,-1.0601,-1.6128,-1.9279,0.0,-2.4222,-2.3634,-2.404,-2.4545,-2.4728,0.0,0.0,0.0,0.0,0.0,-0.8606,0.0,0.0,0.4596,0.3647,0.0,0.0,0.0,0.0447,-0.0716,-0.2327,-0.3315,-0.3408,-0.3942,-0.4452,-0.4745,-0.514,-0.5518,-0.5994,-0.6129,-0.6216,-0.6349,-0.6609,-0.6697,-0.6691,-0.6893,-0.7083,-0.7339,-0.7765,-0.8017,-0.8369,-1.061,-1.1724,-1.2054,-1.3957,-1.4901,-1.509,-1.5283,-1.5408,-1.5708,-1.6991,-1.7601,-1.7986,-1.9142,-1.9654,-2.0013,-2.0421,-2.0736,-2.0736,-2.0564,-2.0473,-2.0473,-2.0654,-2.1105,-2.1544,-2.2087,-2.2353,-2.2353,-2.19,-2.1445,-2.1096,-2.0835,-2.0382,-2.0201,-2.0201,-2.0415,-2.05,-2.0281,-2.0627,-2.0974,-2.0915,-2.0876,-2.0827,-2.0726,-2.0702,-2.0564,-2.0292,-2.0201,-2.0027,-1.9754,-1.9845,-1.9928,-2.011,-2.011,-2.0283,-2.0555,-2.0802,-2.0789,-2.068,-2.1129,-2.1229,-2.0899,-2.1552,-2.1776,-0.4726,-0.2954,-0.1357,-0.7126,-1.2295,-1.6816,0.0,0.0,-2.4145,-2.41,-2.4441,-2.4805,-2.5013,-2.4764,0.0,0.0,0.0,-1.7062,-0.8381,-0.7285,0.0,0.0,0.0,0.1102,0.2707,0.0709,-0.0895,-0.1345,-0.2509,-0.3315,-0.3587,-0.4032,-0.436,-0.4646,-0.5048,-0.5431,-0.5727,-0.5869,-0.5956,-0.5905,-0.6077,-0.6074,-0.5891,-0.5901,-0.6017,-0.6218,-0.661,-0.7535,-0.8835,-1.0424,-1.1798,-1.288,-1.3957,-1.4482,-1.4692,-1.4998,-1.5148,-1.5517,-1.6825,-1.752,-1.7864,-1.8902,-1.9387,-1.9679,-1.9928,-2.0201,-2.0391,-2.0201,-2.0382,-2.0555,-2.0736,-2.1284,-2.1741,-2.1919,-2.1909,-2.1642,-2.1266,-2.0727,-2.0374,-2.011,-1.9853,-1.9679,-1.9762,-1.987,-1.9953,-1.9795,-2.0071,-2.0374,-2.048,-2.0509,-2.0491,-2.0577,-2.0525,-2.0454,-2.0271,-2.0178,-2.007,-1.9987,-1.9996,-2.0096,-2.0371,-2.0371,-2.0494,-2.0916,-2.1015,-2.1015,-2.0907,-2.1105,-2.1075,-2.0795,-2.1466,-2.1715,-1.0375,-0.915,-0.812,-1.2043,-1.5842,-1.9195,0.0,0.0,-2.4948,-2.4832,-2.4849,-2.4943,-2.5074,-2.4823,0.0,0.0,0.0,0.0,-0.8252,-0.4831,0.0,0.0,0.0,0.1398,0.1158,-0.1042,-0.2147,-0.1435,-0.2956,-0.3762,-0.3587,-0.4032,-0.4389,-0.4659,-0.5175,-0.5605,-0.5719,-0.6043,-0.5959,-0.5371,-0.5633,-0.5361,-0.4732,-0.4962,-0.4835,-0.4493,-0.5832,-0.797,-1.0579,-1.0585,-1.2565,-1.5501,-1.4216,-1.3977,-1.4432,-1.4726,-1.5275,-1.6058,-1.716,-1.7936,-1.8351,-1.8983,-1.9387,-1.9579,-1.9288,-1.9387,-1.9679,-1.9845,-2.0464,-2.0988,-2.0997,-2.1365,-2.1741,-2.1741,-2.1365,-2.0907,-2.0637,-2.0283,-1.9845,-1.9679,-1.9587,-1.9587,-1.9587,-1.9587,-1.9587,-1.9587,-1.9762,-1.9971,-2.005,-2.027,-2.0364,-2.0099,-2.0099,-2.0091,-2.0091,-1.9785,-1.9736,-2.0074,-2.0091,-2.0201,-2.05,-2.0508,-2.0593,-2.0663,-2.0473,-2.0473,-2.0744,-2.0744,-2.0744,-2.068,-2.1438,-2.1715,-1.133,-1.0278,-0.958,-1.3928,-1.6389,-1.8642,-2.1928,0.0,-2.3385,-2.4456,-2.4822,-2.494,-2.4843,-2.4362,0.0,0.0,0.0,0.0,0.0,0.0,0.0,-0.2585,-0.0955,-0.0086,-0.0349,-0.1065,-0.1881,-0.2599,-0.2689,-0.2869,-0.3317,-0.3674,-0.4123,-0.4661,-0.5188,-0.5312,-0.517,-0.5152,-0.4946,-0.4713,-0.463,-0.4374,-0.4028,-0.4227,-0.4502,-0.476,-0.5496,-0.6132,-0.6753,-0.9183,-1.024,-1.0706,-1.2583,-1.3476,-1.3789,-1.4629,-1.5034,-1.5402,-1.6872,-1.7492,-1.7636,-1.8448,-1.8751,-1.8804,-1.8632,-1.91,-1.9679,-1.9845,-2.0292,-2.0826,-2.0826,-2.1006,-2.1186,-2.1186,-2.0826,-2.0464,-2.0192,-1.9737,-1.9379,-1.9379,-1.9406,-1.941,-1.9336,-1.9601,-1.9668,-1.9361,-1.9592,-1.9791,-1.9769,-1.9857,-1.9911,-1.9817,-1.9738,-1.9735,-1.9937,-1.9953,-2.0085,-2.0397,-2.0442,-2.0575,-2.0861,-2.0861,-2.0874,-2.1055,-2.0954,-2.0915,-2.0907,-2.0744,-2.0694,-2.0576,-2.0627,-2.0891,0.0,-1.459,-1.4498,-1.7536,-1.8818,0.0,0.0,0.0,-2.3185,-2.3641,-2.3805,-2.3704,-2.3215,0.0,0.0,0.0,0.0,0.0,0.0,0.0,0.0,-0.2466,0.0,0.0,-0.1225,-0.151,-0.2063,-0.2601,-0.2511,-0.269,-0.3317,-0.3471,-0.3897,-0.4515,-0.4827,-0.4857,-0.4633,-0.4504,-0.4305,-0.403,-0.395,-0.3798,-0.3488,-0.3796,-0.4099,-0.4557,-0.5386,-0.6106,0.0,-0.9035,-1.0072,-1.0631,-1.2328,-1.3052,-1.3461,-1.4566,-1.5192,-1.5556,-1.6711,-1.7283,-1.7583,-1.8016,-1.8177,-1.8263,-1.8352,-1.8763,-1.929,-1.9545,-2.0,-2.0564,-2.0654,-2.0826,-2.0826,-2.0736,-2.0382,-1.9936,-1.9654,-1.9379,-1.9012,-1.9012,-1.9215,-1.9391,-1.9252,-1.9495,-1.9717,-1.9469,-1.9589,-1.971,-1.9914,-1.9902,-1.9934,-1.9934,-1.9846,-1.975,-1.981,-1.9657,-1.9829,-2.021,-2.0213,-2.032,-2.0829,-2.0608,-2.071,-2.1052,-2.0728,-2.0692,-2.0946,-2.0534,-2.0388,-2.0474,-2.0342,-2.0619,0.0,0.0,0.0,0.0,0.0,0.0,0.0,0.0,0.0,0.0,0.0,0.0,0.0,0.0,0.0,0.0,0.0,0.0,0.0,-0.7725,0.0,0.0,-0.1197,-0.2186,-0.1429,-0.2272,-0.2598,-0.197,-0.2508,-0.3135,-0.3578,-0.3599,-0.3727,-0.4144,-0.4144,-0.4106,-0.4026,-0.4097,-0.3843,-0.3343,-0.3595,-0.3465,-0.31,-0.3556,-0.3865,-0.4007,-0.5336,-0.7472,-1.0037,-0.9894,-1.1461,-1.3807,-1.2936,-1.2802,-1.3316,-1.4458,-1.5377,-1.6145,-1.665,-1.7408,-1.7911,-1.759,-1.7679,-1.7885,-1.8333,-1.8605,-1.8718,-1.8978,-1.9659,-2.0292,-2.0564,-2.0654,-2.0564,-2.0292,-1.9936,-1.9487,-1.9288,-1.9012,-1.8735,-1.8735,-1.9137,-1.9399,-1.9376,-1.938,-1.9607,-1.9771,-1.9673,-1.9701,-2.0213,-2.0361,-2.0353,-2.0361,-2.0361,-2.0189,-1.9724,-1.9183,-1.9177,-1.9828,-1.9598,-1.9782,-2.0475,-2.0077,-2.0063,-2.0679,-1.9954,-1.9937,-2.0729,-2.0096,-2.0012,-2.0441,-2.0541,-2.0614,-2.3639,0.0,-2.283,-2.3568,-2.3244,-2.296,0.0,0.0,0.0,0.0,0.0,0.0,0.0,0.0,0.0,0.0,0.0,0.0,-1.0622,0.0,0.0,-0.1368,-0.2101,-0.255,-0.2138,-0.222,-0.2539,-0.3063,-0.3019,-0.3203,-0.3936,-0.383,-0.385,-0.4216,-0.3878,-0.3704,-0.3685,-0.378,-0.3506,-0.2711,-0.3429,-0.3356,-0.2651,-0.3892,-0.4477,-0.4612,-0.5616,-0.6298,-0.6913,-0.8524,-0.9648,-1.0479,-1.1563,-1.2567,-1.3467,-1.4132,-1.4845,-1.5603,-1.6385,-1.6657,-1.6885,-1.7169,-1.7257,-1.7343,-1.7877,-1.8383,-1.88,-1.9066,-1.9579,-1.9928,-1.9853,-1.9936,-2.0019,-1.9853,-1.9479,-1.9288,-1.9188,-1.8835,-1.8566,-1.8566,-1.8869,-1.9097,-1.8835,-1.9192,-1.9499,-1.9329,-1.9388,-1.9509,-1.9398,-1.9799,-1.9889,-1.9701,-1.9701,-1.9638,-1.9571,-1.9573,-1.9693,-1.9771,-2.0051,-2.0095,-1.9883,-2.0095,-2.0095,-1.9652,-1.9584,-1.972,-1.9895,-1.9512,-1.942,-1.9502,-1.9399,-1.9654,-2.4423,-2.3887,-2.3143,-2.3593,-2.2945,-2.2326,0.0,0.0,0.0,0.0,0.0,0.0,0.0,0.0,0.0,0.0,-1.4831,0.0,0.0,0.0,-0.3551,-0.1725,-0.192,-0.2103,-0.1929,-0.2208,-0.2569,-0.3082,-0.32,-0.3635,-0.4442,-0.3978,-0.3833,-0.4225,-0.3859,-0.3597,-0.3358,-0.3315,-0.3137,-0.2668,-0.337,-0.3467,-0.3188,-0.4131,-0.4811,-0.5291,-0.6168,-0.6694,-0.7122,-0.8711,-0.9579,-0.9995,-1.1316,-1.2359,-1.32,-1.4035,-1.4791,-1.5313,-1.5991,-1.6349,-1.6632,-1.7106,-1.7221,-1.7198,-1.7629,-1.8126,-1.8519,-1.891,-1.9257,-1.9563,-1.9587,-1.9538,-1.9447,-1.9438,-1.9074,-1.8811,-1.8888,-1.8558,-1.8288,-1.8288,-1.8732,-1.904,-1.8857,-1.9284,-1.9671,-1.9691,-1.966,-1.9652,-1.976,-1.9821,-1.9917,-1.9719,-1.9677,-1.9673,-1.9478,-1.9532,-1.9508,-1.9486,-1.9361,-1.9361,-1.9329,-1.9377,-1.919,-1.8979,-1.9271,-1.9455,-1.9455,-1.9277,-1.9188,-1.9196,-1.9344,-1.9492,-2.4144,-2.3597,-2.2798,-2.2274,-2.1325,-2.0512,0.0,0.0,0.0,0.0,0.0,0.0,0.0,0.0,0.0,0.0,0.0,0.0,-0.7045,-0.5749,-0.4209,-0.1708,-0.1551,-0.1571,-0.1536,-0.2279,-0.2762,-0.2762,-0.3439,-0.4191,-0.5004,-0.4263,-0.397,-0.4357,-0.4038,-0.3608,-0.3139,-0.3061,-0.2902,-0.2824,-0.337,-0.3722,-0.3879,-0.4298,-0.4984,-0.5869,-0.6695,-0.7555,-0.8456,-0.9423,-1.012,-1.0722,-1.1585,-1.2295,-1.2961,-1.403,-1.4736,-1.5245,-1.5775,-1.622,-1.6676,-1.7047,-1.7194,-1.7146,-1.7527,-1.7825,-1.8134,-1.8497,-1.8928,-1.9196,-1.9396,-1.9167,-1.8995,-1.9023,-1.8597,-1.8281,-1.8411,-1.8187,-1.7994,-1.7994,-1.8495,-1.892,-1.892,-1.9227,-1.9633,-2.0051,-1.9846,-1.9736,-2.0153,-2.0,-1.9922,-1.9822,-1.9795,-1.963,-1.9388,-1.902,-1.8862,-1.8814,-1.8388,-1.8379,-1.8853,-1.8308,-1.8082,-1.8411,-1.8853,-1.9162,-1.9162,-1.9105,-1.9164,-1.918,-1.959,-1.9673,-2.3974,-2.3287,-2.1458,-1.8503,-1.6965,-1.5837,0.0,0.0,0.0,0.0,0.0,0.0,0.0,-1.6081,-1.3819,0.0,0.0,-0.8176,0.0,0.0,-0.3815,-0.267,-0.2338,-0.2148,-0.2079,-0.2749,-0.3265,-0.3428,-0.3904,-0.4493,-0.5054,-0.4796,-0.4583,-0.4648,-0.424,-0.3843,-0.3448,-0.3765,-0.3528,-0.2818,-0.3759,-0.3999,-0.354,-0.4593,-0.5281,-0.5745,-0.6212,-0.7027,-0.7937,-0.8544,-0.9501,-1.0636,-1.1241,-1.2233,-1.3368,-1.3531,-1.4295,-1.5296,-1.5792,-1.5987,-1.6089,-1.6726,-1.6699,-1.6496,-1.7379,-1.775,-1.8014,-1.8319,-1.8731,-1.9104,-1.8751,-1.8711,-1.8764,-1.835,-1.8048,-1.7848,-1.8079,-1.78,-1.752,-1.7721,-1.7926,-1.7985,-1.7985,-1.8302,-1.8552,-1.8651,-1.8949,-1.9155,-1.8964,-1.9307,-1.9465,-1.9276,-1.9277,-1.9192,-1.8807,-1.8361,-1.7949,-1.7724,-1.8192,-1.8434,-1.8281,-1.7772,-1.7545,-1.75,-1.805,-1.8391,-1.8406,-1.8641,-1.8851,-1.9136,-1.8935,-1.9079,-2.3276,-2.2157,-1.9809,-1.648,-1.4564,-1.2632,0.0,0.0,0.0,0.0,0.0,0.0,0.0,0.0,-1.1887,-1.0599,0.0,-0.5705,-0.51,-0.4304,-0.3583,-0.3093,-0.2877,-0.2598,-0.2281,-0.2893,-0.3425,-0.3665,-0.4101,-0.4668,-0.5331,-0.4854,-0.4594,-0.4701,-0.4314,-0.3843,-0.3294,-0.3843,-0.3763,-0.321,-0.3917,-0.4073,-0.3839,-0.4654,-0.5339,-0.5794,-0.66,-0.7353,-0.794,-0.8723,-0.9593,-1.0467,-1.1068,-1.2083,-1.3311,-1.3861,-1.4504,-1.5116,-1.5562,-1.585,-1.6038,-1.6328,-1.6396,-1.6411,-1.7071,-1.7402,-1.7629,-1.7896,-1.8341,-1.8743,-1.8574,-1.8333,-1.8133,-1.7956,-1.7579,-1.7313,-1.749,-1.7246,-1.6958,-1.7059,-1.7318,-1.7437,-1.7534,-1.7996,-1.8299,-1.8489,-1.8701,-1.8807,-1.8701,-1.8746,-1.8806,-1.889,-1.8709,-1.8566,-1.8474,-1.8081,-1.7609,-1.7237,-1.7567,-1.764,-1.7609,-1.7273,-1.7201,-1.7215,-1.7479,-1.7735,-1.8282,-1.8364,-1.8633,-1.9005,-1.91,-1.9182,-2.2137,-2.0555,-1.7826,-1.4605,-1.2746,0.0,0.0,0.0,0.0,0.0,0.0,0.0,0.0,-1.093,0.0,-0.6705,-0.4852,-0.3736,-0.3643,-0.3491,-0.3322,-0.2837,-0.3002,-0.297,-0.2576,-0.3214,-0.3682,-0.3997,-0.4307,-0.4851,-0.5479,-0.4929,-0.4618,-0.4701,-0.4233,-0.3765,-0.3297,-0.3767,-0.3853,-0.3634,-0.3953,-0.4205,-0.4309,-0.4683,-0.5271,-0.5999,-0.7,-0.7576,-0.7937,-0.903,-0.9702,-1.0134,-1.0904,-1.2049,-1.3307,-1.4237,-1.4633,-1.484,-1.5447,-1.5669,-1.5827,-1.6066,-1.6184,-1.6301,-1.6713,-1.6966,-1.7161,-1.74,-1.7773,-1.7995,-1.8156,-1.7896,-1.7484,-1.7468,-1.6999,-1.6641,-1.6815,-1.6614,-1.6486,-1.6563,-1.6711,-1.6968,-1.7213,-1.7667,-1.7984,-1.8349,-1.8476,-1.8484,-1.8461,-1.8319,-1.8319,-1.8574,-1.8303,-1.8022,-1.8054,-1.7581,-1.7196,-1.6926,-1.6929,-1.6961,-1.6924,-1.688,-1.6777,-1.6842,-1.6887,-1.7262,-1.8009,-1.8145,-1.8439,-1.8819,-1.9275,-1.9174,-2.0358,-1.8372,-1.5373,-1.2,-1.0969,0.0,-0.6452,-0.4938,0.0,-0.7053,0.0,0.0,0.0,-0.7785,-0.5854,-0.4632,-0.3734,-0.3083,-0.2752,-0.309,-0.3007,-0.1847,-0.2551,-0.3248,-0.3417,-0.382,-0.4233,-0.4621,-0.4851,-0.5085,-0.5321,-0.5082,-0.4851,-0.4701,-0.4155,-0.3763,-0.3763,-0.3763,-0.3805,-0.3889,-0.4053,-0.4426,-0.4929,-0.4834,-0.532,-0.6306,-0.6692,-0.7222,-0.7929,-0.8623,-0.9155,-0.9503,-1.059,-1.1983,-1.3483,-1.3913,-1.4257,-1.4551,-1.5369,-1.5383,-1.5339,-1.6089,-1.6051,-1.5844,-1.6483,-1.665,-1.665,-1.6712,-1.6714,-1.6669,-1.7265,-1.7311,-1.721,-1.677,-1.6436,-1.6218,-1.6444,-1.6306,-1.6185,-1.6478,-1.6321,-1.6321,-1.6915,-1.6786,-1.6793,-1.7355,-1.7601,-1.7796,-1.7796,-1.8043,-1.823,-1.8252,-1.7996,-1.7752,-1.7204,-1.6689,-1.645,-1.6655,-1.6933,-1.6889,-1.663,-1.6491,-1.6216,-1.5865,-1.6415,-1.6897,-1.722,-1.7987,-1.8426,-1.8426,-1.894,-1.9011,-2.0408,-1.8755,-1.6391,-1.4502,-1.2134,0.0,0.0,-0.1121,-0.0895,-0.1774,-0.1761,0.0,0.0,0.0,-0.4412,-0.3985,-0.3304,-0.2806,-0.2624,-0.2634,-0.2647,-0.2515,-0.2882,-0.3248,-0.3491,-0.3972,-0.4387,-0.4462,-0.4849,-0.5082,-0.5321,-0.4851,-0.4693,-0.4851,-0.4151,-0.3763,-0.3604,-0.3763,-0.3651,-0.3332,-0.3762,-0.4023,-0.411,-0.4257,-0.4844,-0.5626,-0.626,-0.6949,-0.7665,-0.8384,-0.9225,-1.0091,-1.1538,-1.2366,-1.2881,-1.3568,-1.3906,-1.4004,-1.4464,-1.4677,-1.4776,-1.5184,-1.5353,-1.542,-1.6036,-1.6181,-1.6238,-1.6638,-1.6463,-1.6248,-1.6487,-1.6605,-1.6487,-1.6216,-1.604,-1.5865,-1.5858,-1.5624,-1.5445,-1.5555,-1.5487,-1.5625,-1.6324,-1.6487,-1.6699,-1.7188,-1.7426,-1.7434,-1.7261,-1.7269,-1.7318,-1.752,-1.726,-1.7009,-1.6791,-1.6476,-1.636,-1.6668,-1.6573,-1.6594,-1.666,-1.6519,-1.6402,-1.6373,-1.6606,-1.6915,-1.7408,-1.7729,-1.7989,-1.8396,-1.8696,-1.8634,-1.8906,-1.6767,-1.4082,-1.3798,0.0,0.0,-0.1095,0.0514,0.1013,0.1608,0.1414,0.045,-0.2066,0.0,0.0,-0.3298,-0.286,-0.2467,-0.265,-0.2492,-0.2505,-0.2873,-0.3162,-0.3371,-0.3694,-0.4112,-0.4462,-0.4696,-0.4849,-0.5082,-0.5321,-0.4774,-0.4618,-0.4771,-0.4073,-0.3604,-0.3526,-0.3528,-0.3254,-0.2763,-0.3356,-0.3692,-0.3775,-0.401,-0.4594,-0.5368,-0.5922,-0.6691,-0.7397,-0.8047,-0.9065,-1.0358,-1.164,-1.2292,-1.2619,-1.3307,-1.3652,-1.3652,-1.4075,-1.4243,-1.4321,-1.4741,-1.4915,-1.5231,-1.5733,-1.584,-1.5826,-1.6227,-1.598,-1.5552,-1.5538,-1.5761,-1.5825,-1.5654,-1.5538,-1.5429,-1.5237,-1.504,-1.4886,-1.4987,-1.4838,-1.5096,-1.586,-1.605,-1.6303,-1.6987,-1.7044,-1.7052,-1.6878,-1.6767,-1.6819,-1.6933,-1.6863,-1.6739,-1.6616,-1.64,-1.6407,-1.669,-1.6407,-1.6307,-1.6511,-1.643,-1.6402,-1.6525,-1.6538,-1.6785,-1.7385,-1.747,-1.7661,-1.8061,-1.8563,-1.8551,-1.5383,-1.152,-0.735,0.0,0.0,0.0,-0.1661,-0.0872,0.0212,0.1981,0.1169,-0.0226,-0.1438,-0.1815,-0.2024,-0.2485,-0.2015,-0.1852,-0.2676,-0.2589,-0.2589,-0.2747,-0.3136,-0.3604,-0.4079,-0.4309,-0.4618,-0.5243,-0.5082,-0.5082,-0.5321,-0.4932,-0.4621,-0.4384,-0.3837,-0.3526,-0.3526,-0.3059,-0.262,-0.2193,-0.2922,-0.3535,-0.4118,-0.419,-0.4748,-0.5634,-0.5756,-0.6269,-0.7129,-0.7408,-0.8526,-1.005,-1.0731,-1.1719,-1.279,-1.3222,-1.3398,-1.3476,-1.4146,-1.4237,-1.4173,-1.4838,-1.509,-1.5147,-1.5726,-1.5687,-1.5413,-1.5562,-1.5149,-1.465,-1.4482,-1.4836,-1.5273,-1.5029,-1.4943,-1.4872,-1.489,-1.4829,-1.4747,-1.4902,-1.4617,-1.4692,-1.5616,-1.5513,-1.5597,-1.649,-1.6588,-1.6588,-1.6581,-1.6854,-1.6953,-1.6676,-1.6953,-1.6924,-1.6609,-1.6581,-1.6683,-1.6979,-1.6508,-1.6224,-1.6224,-1.5933,-1.5933,-1.6231,-1.6231,-1.6464,-1.7043,-1.7244,-1.7348,-1.7466,-1.8581,-1.8656,-1.3427,-1.1415,0.0,-0.6639,0.0,0.0,0.0,-0.1033,0.0,0.0,0.1538,0.0884,-0.0905,-0.0612,-0.061,-0.2054,-0.2141,-0.2135,-0.2514,-0.2431,-0.251,-0.3136,-0.3212,-0.3524,-0.4229,-0.4465,-0.4774,-0.5085,-0.501,-0.501,-0.5082,-0.4543,-0.4465,-0.4849,-0.4231,-0.3763,-0.3446,-0.3134,-0.2753,-0.2219,-0.258,-0.2901,-0.3178,-0.3867,-0.4435,-0.4965,-0.5287,-0.5754,-0.652,-0.7872,-0.907,-1.0024,-1.1054,-1.1866,-1.2534,-1.3052,-1.3398,-1.3652,-1.3815,-1.399,-1.4166,-1.4489,-1.4566,-1.4671,-1.493,-1.4986,-1.4929,-1.5204,-1.4902,-1.4482,-1.4566,-1.4542,-1.4502,-1.4621,-1.4649,-1.4636,-1.4629,-1.4435,-1.4355,-1.4521,-1.4473,-1.4703,-1.5549,-1.5645,-1.5766,-1.623,-1.6305,-1.6218,-1.6015,-1.6096,-1.615,-1.6061,-1.615,-1.6116,-1.6028,-1.6015,-1.6116,-1.6116,-1.6021,-1.6123,-1.6532,-1.6239,-1.6224,-1.6545,-1.6551,-1.6585,-1.6772,-1.6869,-1.6974,-1.7189,-1.7761,-1.7668,-1.1904,-0.9787,0.0,-0.4341,-0.2013,-0.0304,-0.0379,0.0,0.0,0.0,0.1632,0.106,-0.0303,-0.0462,-0.0694,-0.1713,-0.2066,-0.2267,-0.2556,-0.2397,-0.2542,-0.3279,-0.3349,-0.3575,-0.4263,-0.4493,-0.4738,-0.516,-0.5092,-0.5115,-0.5315,-0.4929,-0.4774,-0.5004,-0.4462,-0.3919,-0.3368,-0.3134,-0.2678,-0.2068,-0.2662,-0.2815,-0.2741,-0.3551,-0.4199,-0.4689,-0.519,-0.5744,-0.6346,-0.8013,-0.9157,-0.9946,-1.1241,-1.1935,-1.2283,-1.2966,-1.3313,-1.3483,-1.3737,-1.3913,-1.3997,-1.4398,-1.4482,-1.4482,-1.4824,-1.4908,-1.4915,-1.5173,-1.4915,-1.4566,-1.465,-1.4321,-1.3985,-1.4276,-1.4342,-1.4382,-1.4315,-1.4203,-1.4173,-1.4243,-1.4401,-1.4704,-1.5349,-1.5477,-1.5591,-1.5967,-1.6015,-1.6021,-1.5825,-1.5832,-1.5872,-1.5992,-1.6001,-1.5974,-1.5999,-1.619,-1.619,-1.6101,-1.6005,-1.6189,-1.6669,-1.6286,-1.6197,-1.6647,-1.6677,-1.6677,-1.6856,-1.6773,-1.6877,-1.696,-1.7295,-1.7274,-1.0785,0.0,0.0,0.0,-0.0835,0.0,0.2728,0.1585,0.0478,0.2041,0.0,0.0797,0.0153,-0.0847,-0.1473,-0.1288,-0.1768,-0.232,-0.2722,-0.2562,-0.2691,-0.3435,-0.3493,-0.3711,-0.4295,-0.4377,-0.4719,-0.5498,-0.5364,-0.5497,-0.5931,-0.5702,-0.5389,-0.5004,-0.4616,-0.4073,-0.3368,-0.2981,-0.2459,-0.1943,-0.2838,-0.3038,-0.2683,-0.3442,-0.4081,-0.4604,-0.5406,-0.5985,-0.6605,-0.7925,-0.8982,-0.9777,-1.1154,-1.1854,-1.2209,-1.3058,-1.3307,-1.3222,-1.3828,-1.3913,-1.3822,-1.4405,-1.4482,-1.4482,-1.5082,-1.5173,-1.509,-1.5264,-1.4999,-1.4657,-1.4657,-1.4153,-1.3802,-1.4056,-1.4097,-1.407,-1.4063,-1.4091,-1.4095,-1.4122,-1.4362,-1.4656,-1.495,-1.5054,-1.5238,-1.569,-1.5737,-1.5737,-1.5737,-1.5737,-1.5945,-1.6239,-1.6211,-1.615,-1.6246,-1.6655,-1.6752,-1.6474,-1.637,-1.6377,-1.6579,-1.6088,-1.6015,-1.6487,-1.6588,-1.6704,-1.6928,-1.6899,-1.6826,-1.6626,-1.7134,-1.7093,0.0,-0.7624,0.0,0.0,-0.0525,0.1083,0.5004,0.2286,-0.0704,0.0941,0.1728,0.1717,0.0456,0.0683,0.0603,-0.0959,-0.155,-0.2144,-0.2941,-0.2938,-0.3151,-0.401,-0.3858,-0.4,-0.4581,-0.5105,-0.5693,-0.6172,-0.6359,-0.6437,-0.6388,-0.5851,-0.5389,-0.5004,-0.4465,-0.3919,-0.3368,-0.2823,-0.2516,-0.2372,-0.2496,-0.285,-0.3438,-0.3997,-0.442,-0.4868,-0.5406,-0.6163,-0.7051,-0.8105,-0.9157,-1.0294,-1.1327,-1.202,-1.2625,-1.3052,-1.3222,-1.3398,-1.3652,-1.3737,-1.3737,-1.3899,-1.4153,-1.4398,-1.4153,-1.4321,-1.4489,-1.4419,-1.4334,-1.425,-1.425,-1.4082,-1.4017,-1.4077,-1.3959,-1.3756,-1.3815,-1.3952,-1.4155,-1.4382,-1.4663,-1.4963,-1.5244,-1.5445,-1.5569,-1.5534,-1.554,-1.554,-1.554,-1.554,-1.5658,-1.5967,-1.5634,-1.539,-1.5667,-1.5784,-1.5784,-1.579,-1.5692,-1.579,-1.6097,-1.5704,-1.573,-1.5927,-1.6218,-1.6334,-1.647,-1.6429,-1.658,-1.7056,-1.6718,-1.6738,0.0,0.0,0.0,0.0,0.0,0.2331,0.4902,0.3052,0.0854,0.1563,0.1565,0.1312,0.0884,0.052,0.0,-0.1006,-0.1878,-0.2611,-0.3293,-0.3357,-0.3626,-0.4348,-0.4271,-0.4477,-0.5237,-0.5853,-0.6334,-0.6783,-0.7319,-0.7458,-0.6857,-0.6475,-0.5854,-0.5004,-0.4621,-0.3997,-0.3294,-0.3137,-0.2981,-0.2669,-0.2542,-0.2893,-0.3494,-0.4118,-0.4549,-0.4776,-0.5436,-0.6246,-0.7208,-0.8332,-0.928,-1.0243,-1.1295,-1.194,-1.2375,-1.2796,-1.3052,-1.3313,-1.3483,-1.3568,-1.3568,-1.3822,-1.399,-1.4068,-1.4153,-1.4314,-1.4398,-1.4412,-1.4328,-1.4243,-1.4243,-1.4082,-1.3913,-1.3913,-1.3913,-1.3861,-1.3906,-1.4025,-1.4117,-1.4324,-1.4611,-1.4852,-1.4903,-1.5263,-1.5363,-1.5166,-1.5261,-1.5356,-1.5445,-1.5356,-1.5466,-1.5856,-1.5441,-1.5197,-1.5275,-1.5398,-1.5496,-1.5496,-1.5496,-1.5692,-1.6091,-1.5704,-1.5635,-1.6028,-1.613,-1.6205,-1.6258,-1.6347,-1.6585,-1.6727,-1.6707,-1.678,0.0,0.0,0.0,0.0,0.0,0.0,0.3902,0.3428,0.2716,0.2405,0.1245,0.0459,0.0929,-0.0291,-0.1398,-0.1329,-0.2335,-0.3278,-0.3758,-0.3954,-0.4198,-0.4773,-0.4824,-0.515,-0.5935,-0.6511,-0.6973,-0.7425,-0.8119,-0.8184,-0.7326,-0.6915,-0.614,-0.4927,-0.4696,-0.4075,-0.3139,-0.3528,-0.345,-0.2826,-0.2758,-0.295,-0.3251,-0.4067,-0.4495,-0.4683,-0.5521,-0.6379,-0.7261,-0.8535,-0.9386,-1.0001,-1.1166,-1.1693,-1.1946,-1.2454,-1.279,-1.3052,-1.3222,-1.3313,-1.3398,-1.3828,-1.3913,-1.3822,-1.4398,-1.4482,-1.4398,-1.4573,-1.4398,-1.4314,-1.4314,-1.3984,-1.3665,-1.3711,-1.39,-1.4051,-1.4022,-1.4112,-1.4147,-1.4172,-1.445,-1.464,-1.464,-1.493,-1.4987,-1.479,-1.4885,-1.5172,-1.535,-1.5172,-1.5185,-1.5745,-1.5338,-1.5095,-1.5072,-1.5392,-1.5496,-1.5496,-1.5496,-1.5692,-1.6175,-1.5794,-1.5737,-1.6123,-1.6224,-1.6245,-1.6205,-1.6553,-1.6633,-1.6341,-1.6874,-1.6899,0.0,0.0,0.0,0.0,0.0,0.2821,0.0,0.0,0.1715,0.0,0.0912,0.0302,0.0,-0.0787,-0.1471,-0.1899,-0.2637,-0.3518,-0.4509,-0.4779,-0.5109,-0.5693,-0.5749,-0.5935,-0.6523,-0.7245,-0.7967,-0.8488,-0.8481,-0.8254,-0.7774,-0.6342,-0.5272,-0.4535,-0.4151,-0.3763,-0.3448,-0.3526,-0.3372,-0.3062,-0.2806,-0.2756,-0.3092,-0.375,-0.4426,-0.5107,-0.5936,-0.6625,-0.7261,-0.8535,-0.9128,-0.9484,-1.0807,-1.1327,-1.1499,-1.2192,-1.2448,-1.254,-1.2966,-1.3143,-1.3137,-1.3398,-1.3737,-1.3997,-1.3906,-1.4062,-1.4398,-1.425,-1.399,-1.3822,-1.4082,-1.3822,-1.354,-1.3957,-1.3928,-1.3847,-1.3798,-1.4008,-1.4179,-1.4173,-1.4446,-1.4734,-1.5026,-1.5057,-1.4987,-1.479,-1.4885,-1.4981,-1.4783,-1.479,-1.4889,-1.5158,-1.4946,-1.4896,-1.5066,-1.5392,-1.5496,-1.5496,-1.5496,-1.5594,-1.5895,-1.5704,-1.5635,-1.5832,-1.6123,-1.6252,-1.6316,-1.6558,-1.6646,-1.6625,-1.6456,-1.651,-1.4726,0.0,0.0,0.0,0.0,0.0,0.2157,0.0,0.2256,0.1618,0.0381,-0.0523,-0.0216,-0.1215,-0.2328,-0.2896,-0.3877,-0.4945,-0.5997,-0.6264,-0.6531,-0.6994,-0.7051,-0.7419,-0.8205,-0.8461,-0.8838,-0.9254,-0.9004,-0.837,-0.7317,-0.6125,-0.5103,-0.4457,-0.4229,-0.3995,-0.3684,-0.3995,-0.3763,-0.2906,-0.2733,-0.2702,-0.2818,-0.3301,-0.4168,-0.5183,-0.5973,-0.6685,-0.7256,-0.8508,-0.9216,-0.9493,-1.0499,-1.1068,-1.1327,-1.1671,-1.1935,-1.2203,-1.254,-1.2711,-1.279,-1.3137,-1.3398,-1.3568,-1.3568,-1.3646,-1.3815,-1.3737,-1.3652,-1.36,-1.3847,-1.3799,-1.3697,-1.4078,-1.4077,-1.401,-1.401,-1.411,-1.4186,-1.4264,-1.441,-1.4496,-1.4592,-1.4688,-1.4592,-1.449,-1.4592,-1.4688,-1.4688,-1.4592,-1.4539,-1.4855,-1.466,-1.4539,-1.4655,-1.477,-1.4964,-1.5261,-1.5267,-1.5454,-1.584,-1.5708,-1.5642,-1.5635,-1.5832,-1.5994,-1.6025,-1.6366,-1.6467,-1.6514,-1.6497,-1.6605,0.0,0.0,0.0,0.0,0.0,0.0,0.0,0.0,0.1772,0.1081,-0.0534,-0.1642,-0.1293,-0.2449,-0.3576,-0.4144,-0.5256,-0.6382,-0.7321,-0.7642,-0.7987,-0.8429,-0.8452,-0.8772,-0.9832,-0.9577,-0.9485,-0.9811,-0.905,-0.8036,-0.6817,-0.5663,-0.4876,-0.438,-0.446,-0.4384,-0.4073,-0.4387,-0.3932,-0.2852,-0.2595,-0.2574,-0.2714,-0.2997,-0.3746,-0.4895,-0.5863,-0.6617,-0.7185,-0.8457,-0.9119,-0.9445,-1.0238,-1.0727,-1.1068,-1.1241,-1.1505,-1.186,-1.2198,-1.2369,-1.2448,-1.2881,-1.3052,-1.3143,-1.3313,-1.3398,-1.3398,-1.3398,-1.3363,-1.3379,-1.3667,-1.3592,-1.3628,-1.3913,-1.3946,-1.4011,-1.4178,-1.419,-1.4251,-1.4256,-1.4298,-1.4298,-1.4298,-1.4298,-1.4298,-1.4298,-1.4298,-1.4394,-1.4592,-1.449,-1.4496,-1.4694,-1.4682,-1.4586,-1.4496,-1.4586,-1.4783,-1.5083,-1.5083,-1.5267,-1.5642,-1.5642,-1.5547,-1.5356,-1.5547,-1.5642,-1.5642,-1.6032,-1.6117,-1.6124,-1.6475,-1.6524,0.0,0.0,0.0,0.0,0.0,0.0,0.0,0.0,-0.0981,-0.1058,-0.1812,-0.2863,-0.4355,-0.4854,-0.5164,-0.5641,-0.6639,-0.7592,-0.8067,-0.8613,-0.9144,-0.9802,-0.961,-0.9814,-1.0876,-1.0182,-0.9761,-0.9881,-0.8418,-0.7082,-0.629,-0.4958,-0.4273,-0.438,-0.4771,-0.4927,-0.4927,-0.4387,-0.3728,-0.2922,-0.2492,-0.2464,-0.2778,-0.277,-0.3286,-0.4226,-0.5405,-0.6344,-0.718,-0.8102,-0.8796,-0.9315,-0.9871,-1.0212,-1.0467,-1.1068,-1.1327,-1.1413,-1.186,-1.2203,-1.2448,-1.2619,-1.2875,-1.3143,-1.3313,-1.3398,-1.3398,-1.3398,-1.325,-1.3191,-1.3361,-1.3106,-1.2911,-1.3444,-1.3327,-1.3396,-1.4124,-1.4274,-1.428,-1.4292,-1.4298,-1.4298,-1.4298,-1.4298,-1.4298,-1.4298,-1.4298,-1.4298,-1.4298,-1.4496,-1.4688,-1.4688,-1.5159,-1.5356,-1.5083,-1.5261,-1.5356,-1.5083,-1.5083,-1.5083,-1.5178,-1.5178,-1.5083,-1.5083,-1.5083,-1.5178,-1.5178,-1.5636,-1.5802,-1.5506,-1.6064,-1.6211,0.0,0.0,0.0,0.0,-1.2329,-1.0738,-0.6599,-0.4759,-0.3804,-0.3167,-0.3585,-0.4545,-0.5835,-0.6162,-0.652,-0.7206,-0.8295,-0.9308,-1.0184,-1.0233,-1.047,-1.1061,-1.1062,-1.1289,-1.2002,-1.0956,-1.0301,-1.0461,-0.8219,-0.656,-0.5855,-0.4922,-0.4503,-0.4768,-0.5082,-0.5162,-0.5162,-0.4618,-0.3855,-0.3018,-0.2643,-0.2534,-0.2555,-0.2848,-0.3298,-0.3984,-0.5079,-0.594,-0.6698,-0.7811,-0.8569,-0.89,-0.9525,-0.9864,-1.0212,-1.0727,-1.0992,-1.117,-1.1607,-1.1866,-1.1946,-1.2203,-1.2295,-1.2466,-1.2711,-1.279,-1.2832,-1.2922,-1.2867,-1.2928,-1.3156,-1.3124,-1.3077,-1.3435,-1.3402,-1.3425,-1.3709,-1.3823,-1.3823,-1.3823,-1.3925,-1.4022,-1.3829,-1.4112,-1.4202,-1.4118,-1.4208,-1.4298,-1.4298,-1.4394,-1.4496,-1.4688,-1.4682,-1.4777,-1.4885,-1.4783,-1.4777,-1.4885,-1.4981,-1.5083,-1.5083,-1.5267,-1.5166,-1.4885,-1.4885,-1.4885,-1.5083,-1.5256,-1.5426,-1.55,-1.5677,-1.5834,-1.8192,0.0,0.0,0.0,0.0,-1.3437,-0.9124,-0.7148,-0.6029,-0.537,-0.5582,-0.6166,-0.7507,-0.8019,-0.846,-0.8837,-0.9735,-1.0736,-1.1573,-1.1485,-1.162,-1.2424,-1.2393,-1.257,-1.3089,-1.1885,-1.094,-1.0653,-0.8393,-0.6695,-0.5999,-0.5487,-0.5378,-0.5699,-0.586,-0.5786,-0.5476,-0.4927,-0.4104,-0.313,-0.2901,-0.2629,-0.2409,-0.2771,-0.3227,-0.3771,-0.4711,-0.5675,-0.6437,-0.7473,-0.8235,-0.8734,-0.9118,-0.9515,-0.9951,-1.0299,-1.0646,-1.1003,-1.1435,-1.1607,-1.1699,-1.1957,-1.2043,-1.2037,-1.2203,-1.2347,-1.2447,-1.2539,-1.2624,-1.274,-1.2972,-1.3025,-1.3031,-1.321,-1.3249,-1.3249,-1.3249,-1.3346,-1.3539,-1.3539,-1.3636,-1.3738,-1.3636,-1.3925,-1.4112,-1.4022,-1.4208,-1.4298,-1.4298,-1.4394,-1.4496,-1.4688,-1.4592,-1.4592,-1.4688,-1.4496,-1.4496,-1.4592,-1.4781,-1.4933,-1.4933,-1.512,-1.5061,-1.4863,-1.4783,-1.488,-1.507,-1.5146,-1.5226,-1.5411,-1.5567,-1.5722,0.0,0.0,0.0,0.0,0.0,0.0,-1.1625,0.0,-0.7651,-0.7667,-0.7509,-0.7908,-0.9396,-1.0426,-1.0947,-1.0532,-1.0994,-1.1594,-1.2086,-1.2159,-1.2587,-1.3761,-1.3619,-1.3684,-1.4162,-1.2825,-1.1498,-1.0438,-0.8964,-0.7735,-0.6681,-0.6619,-0.678,-0.718,-0.718,-0.6795,-0.5941,-0.5315,-0.4405,-0.3271,-0.311,-0.2841,-0.251,-0.2635,-0.308,-0.3671,-0.4552,-0.5548,-0.6583,-0.7011,-0.788,-0.8823,-0.8636,-0.8986,-0.9602,-0.9864,-1.0299,-1.0727,-1.1154,-1.1424,-1.1699,-1.1871,-1.1957,-1.1957,-1.1963,-1.2214,-1.2403,-1.2426,-1.2603,-1.2786,-1.2803,-1.2789,-1.2764,-1.2764,-1.2764,-1.2764,-1.2764,-1.3152,-1.3443,-1.3443,-1.3443,-1.3539,-1.3835,-1.3835,-1.3925,-1.4202,-1.4298,-1.4298,-1.4298,-1.4496,-1.4688,-1.4688,-1.4885,-1.4981,-1.4688,-1.4688,-1.4592,-1.4298,-1.4558,-1.4721,-1.4714,-1.4727,-1.4847,-1.5101,-1.4859,-1.4853,-1.5107,-1.5107,-1.5113,-1.5131,-1.565,-1.5891,-1.5985,0.0,0.0,0.0,0.0,0.0,-1.1134,-1.0173,-0.9393,-0.8414,-0.8466,-0.914,-1.0265,-1.1031,-1.1755,-1.2337,-1.2473,-1.2641,-1.3085,-1.3084,-1.3427,-1.4202,-1.453,-1.4772,-1.4967,-1.3926,-1.2932,-1.2163,-1.0124,-0.8685,-0.8129,-0.7846,-0.7625,-0.7633,-0.7633,-0.7169,-0.6089,-0.5547,-0.453,-0.3197,-0.3252,-0.2901,-0.2193,-0.2832,-0.3298,-0.3849,-0.4271,-0.4968,-0.5766,-0.6558,-0.7281,-0.7933,-0.8197,-0.864,-0.917,-0.9777,-1.0038,-1.0299,-1.0727,-1.0992,-1.1181,-1.1267,-1.1354,-1.1554,-1.1904,-1.197,-1.1997,-1.2253,-1.2461,-1.2598,-1.2767,-1.2813,-1.2764,-1.2764,-1.2764,-1.2764,-1.2764,-1.2861,-1.2958,-1.2958,-1.3152,-1.3147,-1.3152,-1.3346,-1.3539,-1.3437,-1.3732,-1.4022,-1.4022,-1.4208,-1.449,-1.4694,-1.4592,-1.4592,-1.4688,-1.449,-1.4394,-1.4298,-1.4747,-1.4906,-1.4721,-1.5089,-1.5224,-1.5107,-1.4832,-1.4725,-1.4796,-1.4796,-1.4891,-1.508,-1.5205,-1.525,-1.4187,-1.4226,-1.3997,-1.3085,0.0,0.0,-1.1387,-1.0927,-1.0539,-1.0066,-1.02,-1.0651,-1.1409,-1.207,-1.2739,-1.3557,-1.363,-1.3702,-1.3855,-1.3879,-1.4191,-1.5047,-1.5432,-1.5624,-1.5618,-1.4803,-1.3863,-1.2889,-1.125,-1.0036,-0.9412,-0.913,-0.8826,-0.8371,-0.8134,-0.7475,-0.6402,-0.5686,-0.4743,-0.3376,-0.337,-0.3017,-0.2291,-0.2915,-0.3375,-0.376,-0.4082,-0.4528,-0.5013,-0.5725,-0.652,-0.7228,-0.7757,-0.8285,-0.8819,-0.9345,-0.9689,-0.9864,-1.0381,-1.0646,-1.0738,-1.0911,-1.1065,-1.1258,-1.1478,-1.1747,-1.1881,-1.2015,-1.2188,-1.2309,-1.2399,-1.2467,-1.2467,-1.2467,-1.2467,-1.2473,-1.257,-1.2565,-1.2565,-1.2764,-1.2861,-1.2958,-1.2958,-1.3147,-1.3346,-1.3443,-1.3738,-1.3931,-1.4022,-1.4208,-1.4394,-1.4496,-1.4394,-1.4394,-1.4496,-1.4503,-1.4473,-1.4473,-1.4923,-1.5236,-1.504,-1.5287,-1.5517,-1.5433,-1.5015,-1.4803,-1.47,-1.47,-1.4781,-1.503,-1.4973,-1.5041,-1.2046,-1.2483,-1.2725,-1.2067,-1.1342,0.0,-1.179,-1.1339,-1.0938,-1.1694,-1.1877,-1.1972,-1.2442,-1.292,-1.3494,-1.4157,-1.449,-1.4522,-1.4425,-1.4449,-1.4919,-1.5877,-1.6272,-1.6342,-1.6202,-1.5523,-1.4539,-1.3208,-1.2319,-1.1455,-1.044,-1.0384,-1.0,-0.9149,-0.8672,-0.7886,-0.6666,-0.5854,-0.4849,-0.3626,-0.3528,-0.3163,-0.2512,-0.2901,-0.3258,-0.3583,-0.4039,-0.4224,-0.43,-0.4743,-0.5633,-0.6704,-0.7224,-0.7852,-0.8576,-0.8849,-0.92,-0.9634,-1.0071,-1.0226,-1.0299,-1.0758,-1.0906,-1.09,-1.0925,-1.139,-1.1811,-1.1647,-1.1809,-1.198,-1.198,-1.198,-1.198,-1.198,-1.198,-1.2078,-1.237,-1.2175,-1.2175,-1.2667,-1.2764,-1.2861,-1.305,-1.305,-1.3249,-1.3738,-1.3835,-1.3925,-1.4106,-1.4202,-1.4202,-1.4202,-1.4202,-1.4214,-1.4244,-1.4448,-1.4696,-1.4757,-1.5197,-1.5469,-1.5499,-1.5529,-1.565,-1.5885,-1.534,-1.4913,-1.4606,-1.4601,-1.4718,-1.4934,-1.4934,-1.4934,-1.1554,-1.2003,-1.2304,-1.1968,-1.0795,0.0,-1.0325,-1.0038,-0.9682,-0.9846,-1.0467,-1.1152,-1.1724,-1.1905,-1.2362,-1.351,-1.4114,-1.4463,-1.4386,-1.4942,-1.535,-1.5559,-1.6473,-1.689,-1.6542,-1.5826,-1.5097,-1.4307,-1.2961,-1.1816,-1.0958,-1.0964,-1.0511,-0.9535,-0.8918,-0.8125,-0.6904,-0.5981,-0.4889,-0.3798,-0.3554,-0.3163,-0.2513,-0.2946,-0.3304,-0.3587,-0.384,-0.4107,-0.43,-0.4659,-0.5191,-0.5988,-0.6691,-0.7474,-0.8309,-0.8947,-0.9217,-0.9306,-0.9584,-0.9655,-0.9805,-1.0065,-1.0234,-1.0386,-1.0827,-1.1027,-1.1223,-1.1502,-1.1616,-1.1683,-1.1683,-1.1683,-1.1688,-1.198,-1.1883,-1.1785,-1.2273,-1.2175,-1.2078,-1.237,-1.2467,-1.2565,-1.2856,-1.2861,-1.2861,-1.2958,-1.3152,-1.3244,-1.334,-1.3534,-1.3636,-1.3636,-1.3636,-1.3813,-1.4219,-1.4193,-1.4282,-1.5004,-1.5125,-1.5276,-1.5487,-1.5698,-1.5837,-1.5891,-1.531,-1.4877,-1.4606,-1.4556,-1.4561,-1.4407,-1.4407,-1.4509,-1.0764,-1.1233,-1.151,-1.1191,-1.0174,0.0,0.0,-0.9615,-0.946,-0.9631,-1.0586,-1.1454,-1.1732,-1.2216,-1.2856,-1.3669,-1.4449,-1.4743,-1.421,-1.4775,-1.533,-1.5584,-1.5886,-1.6167,-1.6377,-1.5812,-1.5009,-1.4147,-1.3414,-1.26,-1.1771,-1.1626,-1.1147,-1.0115,-0.9301,-0.8356,-0.7103,-0.6056,-0.5004,-0.3848,-0.3669,-0.3285,-0.2694,-0.305,-0.3317,-0.3587,-0.3857,-0.4034,-0.4302,-0.4441,-0.4881,-0.5453,-0.6166,-0.6962,-0.7811,-0.8177,-0.8559,-0.8808,-0.8987,-0.922,-0.9415,-0.9611,-0.9866,-1.0231,-1.0421,-1.0612,-1.0714,-1.1298,-1.1312,-1.1194,-1.1194,-1.1194,-1.1194,-1.1389,-1.1296,-1.1389,-1.1883,-1.178,-1.178,-1.2273,-1.2273,-1.237,-1.2764,-1.2764,-1.2861,-1.2958,-1.305,-1.3147,-1.3244,-1.3443,-1.3539,-1.3539,-1.3539,-1.3591,-1.3912,-1.3924,-1.4086,-1.4671,-1.4824,-1.5012,-1.5264,-1.5399,-1.5464,-1.5464,-1.5363,-1.5148,-1.4821,-1.4821,-1.4606,-1.4401,-1.4401,-1.4504,-0.9782,-1.0218,-1.0482,-1.01,-0.934,-0.8798,0.0,0.0,0.0,-0.9762,-1.0829,-1.167,-1.1655,-1.2495,-1.334,-1.3672,-1.4563,-1.483,-1.376,-1.4253,-1.488,-1.5382,-1.5497,-1.5652,-1.6046,-1.5471,-1.4723,-1.366,-1.3568,-1.3147,-1.2369,-1.2145,-1.1444,-1.0413,-0.9473,-0.8387,-0.7064,-0.5992,-0.4905,-0.3833,-0.3617,-0.332,-0.2875,-0.3139,-0.3406,-0.3587,-0.3857,-0.4133,-0.433,-0.4404,-0.4673,-0.5068,-0.5768,-0.6545,-0.7265,-0.7406,-0.78,-0.8261,-0.8422,-0.8727,-0.9104,-0.9366,-0.969,-1.004,-0.9983,-1.0171,-1.0462,-1.089,-1.0806,-1.0703,-1.0708,-1.0609,-1.0703,-1.0806,-1.0801,-1.0904,-1.159,-1.1487,-1.1492,-1.2273,-1.2273,-1.2273,-1.2764,-1.2764,-1.2861,-1.305,-1.305,-1.3147,-1.3346,-1.3346,-1.3346,-1.3346,-1.3346,-1.3363,-1.3413,-1.3554,-1.3862,-1.4157,-1.4378,-1.4605,-1.4742,-1.4798,-1.4928,-1.5041,-1.5261,-1.5261,-1.5148,-1.5035,-1.4928,-1.4713,-1.4713,-1.4821,-0.8645,-0.8992,-0.9193,-0.8665,-0.7994,-0.7545,-0.7699,0.0,-0.7997,-0.8931,0.0,-1.0107,-1.0657,0.0,0.0,-1.2281,-1.3298,-1.3872,-1.3204,-1.3684,-1.4154,-1.4288,-1.6315,-1.7122,-1.5606,-1.4976,-1.4355,-1.3563,-1.3092,-1.2608,-1.2273,-1.1837,-1.0893,-0.9479,-0.9077,-0.8205,-0.6569,-0.5625,-0.4624,-0.3652,-0.34,-0.3139,-0.2875,-0.332,-0.3587,-0.3587,-0.4032,-0.4346,-0.442,-0.443,-0.4568,-0.4996,-0.5647,-0.6259,-0.6819,-0.7259,-0.7626,-0.7931,-0.8058,-0.8298,-0.8603,-0.891,-0.9415,-0.9765,-0.9645,-0.9892,-1.0101,-1.0168,-1.0314,-1.0413,-1.0117,-1.0117,-1.0216,-1.0708,-1.0609,-1.0703,-1.1785,-1.178,-1.1683,-1.2273,-1.237,-1.2467,-1.2764,-1.2764,-1.2764,-1.2861,-1.2861,-1.2861,-1.2861,-1.2861,-1.2861,-1.2861,-1.2861,-1.2948,-1.3254,-1.3002,-1.3089,-1.3529,-1.3583,-1.3708,-1.3963,-1.4169,-1.4493,-1.5035,-1.4821,-1.4934,-1.5482,-1.5148,-1.4928,-1.4928,-1.4928,-1.5148,-0.6773,-0.6952,-0.7149,-0.6972,-0.6955,-0.6977,-0.7128,-0.7461,-0.7842,-0.8268,0.0,0.0,0.0,0.0,0.0,0.0,-1.3052,-1.3566,-1.283,-1.4063,-1.4913,-1.4462,-1.5061,-1.5429,-1.5106,-1.5407,-1.5334,-1.4547,-1.4301,-1.3818,-1.2979,-1.2041,-1.1044,-1.0049,-0.8882,-0.7889,-0.6979,-0.5684,-0.4617,-0.3699,-0.3387,-0.3139,-0.2875,-0.3409,-0.3587,-0.3587,-0.4121,-0.4351,-0.4438,-0.4493,-0.4599,-0.4866,-0.5347,-0.5914,-0.6374,-0.648,-0.6961,-0.7492,-0.7564,-0.7909,-0.8415,-0.8747,-0.912,-0.9429,-0.941,-0.9477,-0.9633,-0.9706,-0.9826,-0.992,-0.9821,-1.0019,-1.0246,-1.0458,-1.0584,-1.0784,-1.1383,-1.1482,-1.1642,-1.2103,-1.2283,-1.248,-1.2678,-1.287,-1.3012,-1.3157,-1.3179,-1.3179,-1.3179,-1.3179,-1.3179,-1.2973,-1.2873,-1.2909,-1.2903,-1.2604,-1.2666,-1.3216,-1.3267,-1.3391,-1.3602,-1.3804,-1.4072,-1.4288,-1.4283,-1.4606,-1.5261,-1.5041,-1.5143,-1.5571,-1.5369,-1.5476,-0.494,-0.4952,-0.5067,-0.5274,-0.572,-0.6143,-0.6439,-0.7085,-0.7628,-0.7842,-0.8811,0.0,0.0,0.0,-1.1552,-1.1859,0.0,-1.3075,-1.2631,-1.4023,-1.4899,-1.4354,-1.4056,-1.4146,-1.4895,-1.5536,-1.5723,-1.5264,-1.5185,-1.4714,-1.3598,-1.2394,-1.1241,-1.0294,-0.887,-0.7724,-0.7076,-0.5832,-0.4724,-0.3771,-0.3401,-0.3166,-0.2988,-0.3367,-0.3547,-0.3619,-0.4091,-0.4318,-0.4479,-0.4545,-0.4643,-0.4801,-0.5059,-0.5353,-0.5782,-0.5729,-0.6204,-0.6864,-0.6993,-0.753,-0.8178,-0.8685,-0.8928,-0.9031,-0.9034,-0.8965,-0.9103,-0.9303,-0.9303,-0.9303,-0.9402,-0.976,-0.9954,-1.0096,-1.023,-1.0545,-1.1001,-1.1372,-1.1601,-1.1895,-1.2208,-1.2445,-1.2602,-1.2809,-1.3063,-1.3243,-1.327,-1.3372,-1.327,-1.327,-1.3162,-1.2854,-1.2746,-1.254,-1.223,-1.2094,-1.2162,-1.2634,-1.2812,-1.3033,-1.3093,-1.3207,-1.3423,-1.3645,-1.3851,-1.4283,-1.4821,-1.4821,-1.5035,-1.5678,-1.5583,-1.5684,-0.3427,-0.3215,-0.3191,-0.373,-0.4229,-0.4732,-0.5378,-0.615,-0.6972,-0.7717,-0.8203,-0.8732,-0.9577,-1.0263,-1.0859,-1.1264,-1.1798,0.0,0.0,-1.3005,-1.3397,-1.3545,-1.4069,-1.4597,-1.4972,-1.4888,-1.4982,-1.5265,-1.5072,-1.456,-1.3723,-1.2757,-1.1501,-0.9745,-0.8937,-0.7839,-0.6557,-0.5744,-0.4832,-0.3585,-0.3384,-0.3325,-0.3328,-0.3394,-0.3484,-0.3701,-0.4052,-0.4373,-0.4569,-0.4571,-0.4622,-0.47,-0.4704,-0.4839,-0.5016,-0.5277,-0.5628,-0.5926,-0.6134,-0.6912,-0.8131,-0.8627,-0.8825,-0.8726,-0.8531,-0.8542,-0.8663,-0.8667,-0.8667,-0.8663,-0.9071,-0.8948,-0.9027,-0.9533,-0.9636,-0.9884,-1.0869,-1.1354,-1.1658,-1.1869,-1.2319,-1.2692,-1.2597,-1.2633,-1.2638,-1.2643,-1.2854,-1.2956,-1.2648,-1.2643,-1.254,-1.223,-1.1916,-1.1606,-1.1399,-1.1291,-1.1481,-1.17,-1.2037,-1.2238,-1.2432,-1.2441,-1.2767,-1.3315,-1.3315,-1.3635,-1.4277,-1.4277,-1.4493,-1.5041,-1.5571,-1.5891,-0.0262,-0.0401,-0.074,-0.1644,-0.236,-0.3097,-0.4041,-0.4734,-0.5505,-0.6322,-0.6512,-0.6884,-0.8273,-0.8999,-0.9663,-1.0456,-1.1218,-1.1934,0.0,-1.3479,-1.4293,-1.4547,-1.4972,-1.5255,-1.5223,-1.6154,-1.6718,-1.6727,-1.6846,-1.6472,-1.5442,-1.4179,-1.2726,-1.1237,-0.9776,-0.8261,-0.6873,-0.5877,-0.4869,-0.3934,-0.3502,-0.3446,-0.368,-0.3468,-0.3536,-0.3976,-0.4094,-0.4326,-0.4577,-0.4636,-0.4679,-0.4708,-0.4901,-0.4938,-0.4944,-0.5135,-0.5348,-0.5684,-0.5987,-0.6572,-0.7241,-0.7437,-0.7733,-0.8028,-0.7928,-0.7935,-0.8034,-0.8036,-0.8184,-0.8343,-0.8341,-0.8678,-0.9061,-0.9272,-0.9497,-0.9948,-1.0446,-1.0736,-1.0977,-1.1327,-1.1531,-1.1694,-1.1827,-1.1838,-1.2121,-1.2661,-1.2874,-1.2874,-1.2549,-1.2442,-1.2335,-1.2121,-1.2014,-1.18,-1.1478,-1.1693,-1.1773,-1.1718,-1.2051,-1.237,-1.2436,-1.2441,-1.255,-1.2659,-1.2659,-1.2985,-1.3635,-1.3635,-1.3851,-1.4493,-1.4708,-1.5035,0.1879,0.1561,0.0998,-0.013,-0.0858,-0.1666,-0.284,-0.35,-0.4057,-0.483,-0.5031,-0.5534,-0.6824,-0.7749,-0.8667,-0.9806,-1.0698,-1.1596,0.0,-1.3743,-1.4602,-1.4989,-1.5327,-1.5525,-1.5592,-1.6581,-1.7295,-1.738,-1.7708,-1.7268,-1.5959,-1.4936,-1.3678,-1.1912,-1.026,-0.8694,-0.7298,-0.6163,-0.5155,-0.4248,-0.391,-0.3858,-0.4003,-0.3693,-0.3762,-0.4109,-0.4045,-0.4279,-0.4626,-0.4586,-0.461,-0.4708,-0.4901,-0.4861,-0.4714,-0.4934,-0.516,-0.5403,-0.5703,-0.6142,-0.6542,-0.6642,-0.6939,-0.7335,-0.7335,-0.7434,-0.7524,-0.7535,-0.768,-0.7734,-0.7844,-0.8179,-0.8678,-0.8834,-0.9176,-0.9548,-0.9886,-1.0201,-1.0435,-1.0527,-1.0906,-1.1138,-1.1114,-1.1363,-1.1711,-1.2323,-1.2555,-1.2441,-1.2114,-1.2114,-1.2005,-1.1673,-1.1564,-1.1455,-1.124,-1.1568,-1.1624,-1.15,-1.1932,-1.2114,-1.2223,-1.2223,-1.2327,-1.2441,-1.2441,-1.255,-1.2985,-1.2985,-1.331,-1.3851,-1.3851,-1.4283]}]]